GFSMW_sfc_dewp_000.txt.gz
Dewpoint
41 41 44 50 53 55 55 58 54 45 44 43 41 38 38 36 34 32 31 30 30 31 31 32 31 33 31 29 30 31 31 32 34 32 29 34 33 26 19 29 22 29 20
40 43 48 51 54 55 56 56 50 45 45 44 43 40 38 37 34 31 27 26 27 29 29 29 30 30 30 27 28 30 30 32 33 30 31 29 29 26 21 25 25 21 26
40 43 49 51 53 53 53 52 49 47 46 43 41 40 39 38 35 31 27 25 26 28 28 28 28 29 29 27 27 27 27 28 30 29 29 27 25 24 27 22 24 20 27
41 44 48 48 50 49 49 48 47 46 44 41 39 36 36 36 37 34 28 25 24 26 26 26 25 25 27 24 24 24 26 26 25 29 29 29 29 24 21 25 20 25 20
41 45 47 47 47 47 47 47 46 44 44 42 39 39 38 38 36 31 25 22 23 24 24 24 23 23 25 22 21 22 21 25 24 26 28 25 26 26 24 18 21 19 20
42 45 46 45 44 43 43 43 43 42 42 40 39 38 36 33 31 28 27 25 24 24 21 21 20 20 20 21 22 20 19 20 22 23 23 25 24 20 20 19 19 17 19
42 44 44 43 41 40 40 40 40 39 39 38 37 35 31 27 23 24 24 21 20 20 18 18 17 18 17 19 19 19 18 19 20 19 21 24 24 23 24 21 16 15 18
42 44 43 42 40 40 39 38 36 34 33 32 29 26 24 24 22 20 20 19 18 18 16 15 14 14 14 15 16 18 19 17 20 17 19 22 22 25 24 19 19 19 17
43 43 43 41 40 39 38 36 34 31 28 26 24 21 20 20 19 17 17 17 16 15 13 13 13 13 13 14 14 17 16 17 18 18 19 19 21 22 20 21 22 21 20
43 43 42 42 40 39 37 34 31 28 25 22 19 17 16 16 15 14 13 12 12 11 12 12 12 13 14 14 14 16 17 16 18 17 16 17 19 20 22 22 23 24 22
42 43 43 42 40 38 35 32 29 25 22 18 15 14 14 13 12 11 11 11 11 11 11 12 13 14 14 14 15 15 16 15 16 16 19 20 22 22 22 24 24 23 23
42 43 43 41 39 36 34 31 27 23 20 16 14 14 13 12 11 11 11 11 11 12 12 13 15 15 16 16 16 16 16 16 16 17 21 23 21 22 23 24 23 23 23
41 43 42 40 38 36 32 29 25 21 18 16 14 13 12 12 11 12 12 13 13 13 14 15 15 16 18 17 17 17 16 16 16 19 21 23 21 21 23 23 24 24 24
41 42 41 39 37 34 31 27 21 18 16 16 14 13 12 12 12 14 14 14 14 14 15 15 16 17 17 17 17 17 17 18 20 22 23 23 22 22 23 22 23 21 21
40 41 40 38 36 34 30 24 19 17 16 15 15 15 15 14 15 15 15 15 15 15 14 14 15 16 15 13 20 20 20 19 20 21 22 22 24 27 25 21 22 22 24
40 40 39 38 35 33 27 21 18 16 16 16 16 17 16 16 16 15 14 14 14 13 14 15 15 16 13 24 25 23 18 17 17 19 21 21 26 25 27 28 28 27 24
40 40 38 37 34 30 24 20 17 16 16 16 16 16 16 16 15 13 12 12 11 13 15 15 15 15 14 24 25 26 18 17 18 21 22 21 20 25 23 27 29 28 29
40 39 36 33 30 26 22 18 15 15 15 15 14 15 15 13 13 12 11 11 12 14 16 16 15 15 13 23 25 27 20 19 20 21 21 22 22 24 24 22 24 29 25
37 35 33 30 26 22 18 16 15 15 14 13 13 14 14 13 12 11 10 11 13 15 15 15 14 13 13 21 24 24 20 20 20 20 21 22 22 26 28 29 29 20 17
31 28 26 23 20 16 16 15 14 13 12 12 12 12 12 11 10 9 11 13 15 15 16 13 13 17 11 20 24 24 20 20 20 21 22 27 25 29 34 23 18 17 17
26 24 22 19 16 16 15 14 12 11 12 12 12 11 10 9 9 11 13 13 13 13 13 12 12 11 13 17 24 25 21 21 21 23 25 24 29 30 25 23 16 18 20
25 22 19 16 17 16 14 11 10 11 12 12 11 10 9 8 11 12 13 13 13 13 13 13 13 15 15 22 23 25 26 27 25 24 21 28 26 23 22 20 23 24 22
21 19 17 18 15 14 12 10 10 11 10 9 9 8 8 12 12 13 13 13 14 15 15 15 16 16 17 18 24 25 26 25 22 23 28 24 22 21 19 21 22 22 18
19 18 17 14 13 11 11 10 10 10 8 7 7 9 11 15 13 14 14 14 15 15 16 16 16 17 17 18 19 20 20 24 25 24 21 19 19 20 19 17 17 16 17
21 20 17 13 10 10 10 10 9 9 7 6 8 9 13 13 13 14 14 16 16 18 17 17 17 17 18 18 23 22 21 21 21 21 15 13 14 15 15 15 16 17 18
24 22 18 14 10 10 10 10 10 8 7 7 9 12 15 14 14 14 14 19 20 21 21 21 20 18 22 23 24 24 24 24 23 16 13 14 15 16 15 15 16 18 19

GFSMW_sfc_dewp_003.txt.gz
Dewpoint
39 41 44 48 52 53 52 60 56 47 46 43 40 38 37 34 32 31 30 30 30 31 30 32 31 31 28 28 27 29 28 29 31 31 30 32 31 27 21 27 23 23 24
39 40 44 51 54 54 54 54 47 45 45 44 40 38 35 34 30 29 27 28 29 29 29 30 29 27 26 24 25 27 27 27 30 29 30 27 27 27 18 23 26 21 27
39 40 46 51 53 54 54 47 45 45 44 40 38 37 34 33 29 27 26 26 27 28 28 27 27 26 26 25 24 24 23 23 25 28 24 19 23 23 25 18 22 16 24
39 42 48 51 53 53 53 47 46 46 41 39 36 32 30 29 32 29 26 25 25 26 26 25 24 24 24 21 21 22 22 24 22 26 24 25 26 23 21 23 16 23 18
39 43 48 51 52 50 50 47 47 44 40 38 36 35 35 36 33 27 23 22 23 23 23 22 21 21 23 20 19 19 18 22 21 23 24 23 24 24 24 14 17 18 18
40 45 48 48 48 48 48 47 45 43 41 38 38 36 36 33 28 25 24 23 23 23 20 20 19 18 19 19 20 18 17 18 19 20 20 22 21 20 19 18 16 15 13
42 45 46 47 45 45 46 45 44 42 40 38 38 37 35 31 27 25 26 22 20 20 17 17 15 16 16 17 17 17 17 17 18 17 19 22 22 22 22 18 16 14 15
42 45 46 46 44 43 43 43 42 39 39 38 36 34 29 29 26 25 23 20 18 18 16 15 13 13 13 15 15 18 18 16 18 16 17 20 20 22 22 19 19 17 15
42 45 44 42 41 40 40 40 38 35 35 32 28 25 23 23 21 19 18 18 17 15 13 12 12 13 14 14 14 17 16 17 17 18 18 17 20 21 22 22 22 21 19
42 44 41 39 39 38 36 35 34 31 28 24 22 20 18 17 17 16 15 14 12 11 11 12 13 14 14 15 15 17 18 16 18 17 16 17 20 22 24 23 23 24 23
42 42 40 39 39 37 34 31 28 25 22 19 18 17 15 14 13 11 11 11 11 11 12 13 14 14 15 15 16 16 16 16 17 17 18 20 22 23 22 23 24 24 24
42 41 40 39 37 35 32 29 25 22 19 16 15 14 13 12 11 11 11 12 11 12 13 14 15 15 16 17 16 16 17 17 17 17 20 22 21 22 22 23 23 24 24
42 42 40 38 37 34 31 27 23 19 17 15 14 13 12 12 12 12 12 13 13 14 14 15 15 16 18 17 16 16 17 18 18 19 20 21 22 22 22 22 23 24 25
42 41 40 38 36 33 29 25 21 18 16 15 14 13 13 13 13 14 14 15 14 14 14 15 16 17 17 16 16 19 19 19 19 20 22 22 23 22 22 22 22 23 22
41 41 39 37 35 32 27 21 19 17 16 15 15 15 15 15 16 16 15 15 15 14 15 16 16 16 15 13 21 21 20 18 17 18 20 21 24 26 25 22 23 22 22
41 40 39 37 34 30 24 19 17 16 16 16 16 17 17 17 17 15 14 14 13 14 16 16 16 16 13 23 26 25 22 18 17 18 20 21 25 25 26 27 27 26 24
40 39 38 36 33 27 21 18 16 17 16 17 17 17 17 17 15 13 12 12 13 15 16 16 16 15 15 23 25 26 21 20 20 20 21 20 20 25 23 27 29 31 34
39 38 37 33 29 23 20 17 16 17 17 17 16 17 17 15 14 12 11 12 13 15 16 16 15 15 13 23 25 26 21 20 20 21 21 20 21 23 24 28 29 25 22
38 36 34 30 24 20 17 15 16 16 16 15 15 15 15 13 13 11 11 13 15 15 15 15 14 13 14 23 25 24 21 20 20 20 21 21 24 27 31 25 22 18 17
32 30 27 24 20 17 16 15 15 14 13 14 14 13 13 12 11 11 13 14 15 14 14 13 14 18 14 22 25 24 21 21 21 21 22 28 25 28 28 21 18 17 17
26 25 24 20 17 16 16 14 14 12 13 13 13 12 11 11 13 14 14 14 13 14 14 14 14 14 16 19 25 26 22 21 22 22 20 22 29 26 25 24 17 19 23
22 21 19 17 16 15 14 13 12 12 13 13 12 10 10 13 13 13 13 13 14 14 15 15 16 17 17 23 24 26 26 25 19 21 23 27 26 24 23 21 24 24 22
19 18 17 15 14 13 13 11 11 11 11 10 9 10 14 13 14 13 13 14 15 16 16 17 17 17 17 18 24 26 26 25 24 24 24 25 23 21 19 22 23 22 17
18 18 16 14 12 12 12 10 11 10 9 8 9 12 13 15 13 14 14 15 16 16 17 17 17 17 17 18 19 20 21 25 23 23 20 19 19 20 19 17 16 16 16
19 17 15 14 12 11 10 10 9 8 7 8 9 12 14 14 13 14 14 17 17 18 18 18 18 17 18 19 23 22 22 20 22 21 15 13 14 15 15 15 15 16 17
20 17 14 12 10 10 10 9 9 8 7 7 9 14 15 13 14 14 15 18 20 21 21 21 20 18 22 23 24 26 24 24 23 17 13 14 15 15 15 15 16 16 18

GFSMW_sfc_dewp_006.txt.gz
Dewpoint
39 39 41 47 52 52 58 61 60 52 49 48 45 44 42 35 32 31 31 30 30 30 31 31 29 27 27 24 24 26 25 25 30 28 27 30 30 30 27 22 24 21 23
38 39 42 48 52 52 56 59 54 49 50 49 44 39 35 32 30 30 29 29 29 29 28 28 27 25 24 23 23 24 23 24 27 24 27 23 23 24 16 22 23 18 24
39 39 41 47 51 52 54 53 49 48 47 39 37 33 29 29 28 27 27 27 27 27 26 25 25 24 25 23 23 22 21 22 22 27 21 14 17 24 24 21 21 15 22
38 39 41 48 51 52 52 47 46 46 41 40 36 32 29 26 28 26 26 26 26 25 25 24 23 23 23 20 20 19 21 22 20 23 22 22 23 18 19 20 14 19 15
38 39 42 46 51 52 48 47 47 44 40 41 36 33 29 31 29 25 23 22 22 23 23 21 20 21 22 19 18 18 17 21 20 21 22 21 22 23 20 13 16 16 16
38 40 44 51 51 51 48 47 47 42 40 38 34 32 31 27 24 23 23 22 22 22 20 19 18 18 18 18 18 17 16 18 18 19 19 21 19 20 18 18 15 15 15
39 44 48 50 50 50 48 47 46 41 39 37 35 34 30 25 23 23 23 21 20 19 17 16 15 15 16 17 17 17 16 17 17 16 18 21 21 21 21 20 18 17 16
40 45 47 50 50 50 48 47 45 41 38 37 36 35 30 28 26 26 23 20 18 18 15 14 13 13 14 15 16 19 18 16 18 16 17 19 20 21 21 20 20 17 15
41 44 47 49 48 48 47 45 43 40 38 37 34 31 29 27 25 22 19 19 17 15 13 12 13 13 14 15 15 18 16 17 17 18 18 18 19 21 22 23 23 21 17
40 45 46 44 44 44 42 41 40 38 34 31 28 25 22 21 19 17 16 14 12 12 12 12 13 14 15 15 15 17 17 16 18 18 17 17 20 21 24 24 24 23 22
41 44 43 41 39 37 37 35 33 30 27 24 20 19 17 16 14 13 12 11 12 11 13 14 14 15 15 16 16 16 16 17 18 18 19 19 20 23 24 24 23 23 24
43 42 40 39 37 34 32 30 28 24 21 18 17 15 14 12 12 11 11 12 12 13 14 14 15 16 16 16 15 16 18 18 18 19 20 20 19 22 23 23 22 23 24
41 39 38 37 35 32 28 25 23 19 17 16 14 13 13 12 12 12 13 14 14 14 14 15 16 16 17 16 15 17 19 19 19 19 19 20 21 21 22 22 22 23 23
41 39 38 36 34 30 26 22 18 17 16 15 14 13 13 13 13 14 14 15 14 14 15 16 16 17 16 15 15 20 20 19 19 19 20 20 21 21 22 22 22 22 21
40 39 37 35 32 28 23 20 17 16 15 14 15 15 15 16 16 16 15 15 15 15 16 16 16 15 14 12 21 23 22 19 19 19 19 20 23 26 24 21 21 21 22
41 39 37 35 31 26 22 18 17 16 16 16 16 18 18 18 17 15 14 14 15 16 16 16 15 15 13 23 26 25 23 20 19 19 20 21 24 23 28 28 28 28 31
41 39 37 35 30 24 20 18 16 16 16 17 17 18 18 17 15 13 13 14 14 15 15 15 15 14 14 23 26 26 22 20 20 21 21 21 20 25 22 27 29 32 28
40 39 36 32 26 21 18 17 16 17 17 17 17 18 17 15 14 12 13 14 14 15 15 14 14 14 14 24 25 26 22 21 21 21 21 21 21 22 25 27 29 23 21
39 37 34 29 23 19 17 16 17 17 16 16 16 16 15 14 13 12 13 14 14 14 14 14 14 14 15 24 25 25 21 21 21 21 21 22 23 27 29 26 23 19 18
34 32 28 24 19 16 16 16 16 15 15 15 14 14 13 12 12 14 13 14 13 14 14 14 15 19 15 23 25 24 22 21 21 22 23 26 24 27 30 23 18 18 17
28 26 25 20 16 16 16 15 14 13 14 14 13 12 12 14 14 13 13 13 13 14 14 15 16 16 18 20 25 26 22 21 21 19 22 23 27 27 25 24 17 19 24
24 22 19 17 16 16 15 14 12 13 13 13 11 12 13 13 13 13 13 13 14 15 15 16 17 18 17 23 24 26 26 25 21 23 23 22 26 24 23 21 24 25 22
21 19 17 15 15 15 14 11 11 12 11 10 11 14 13 13 13 13 13 14 16 16 16 17 17 17 18 18 24 26 27 26 25 22 24 25 23 21 19 22 23 22 16
18 17 16 14 13 13 11 11 11 10 9 9 11 12 17 13 13 14 14 16 16 16 16 17 17 18 18 18 19 20 21 28 22 23 20 20 19 20 19 17 16 16 16
18 17 15 14 12 10 10 9 9 8 8 8 10 14 14 13 13 14 14 16 17 18 18 18 18 17 17 18 22 22 25 20 22 21 16 13 14 15 14 14 15 15 16
17 15 14 12 10 10 10 9 9 8 7 8 11 17 14 13 14 14 15 19 19 21 21 20 19 18 21 23 23 25 24 24 23 17 13 14 15 15 14 15 15 16 17

GFSMW_sfc_dewp_009.txt.gz
Dewpoint
42 42 41 41 46 52 56 62 62 59 56 54 49 47 44 39 36 35 33 32 32 32 32 29 26 26 24 23 21 24 23 23 27 21 23 27 29 31 31 20 25 21 23
42 42 41 44 48 52 58 61 61 55 56 54 52 47 40 35 33 33 31 31 31 30 29 28 26 25 24 23 22 24 22 22 26 19 24 19 19 22 16 24 22 19 20
37 40 40 43 50 53 58 59 55 54 54 49 43 34 31 31 31 30 30 29 28 27 27 26 25 25 25 24 23 24 23 20 23 23 18 15 14 18 21 21 23 16 18
38 40 41 42 49 53 57 56 52 53 47 45 42 39 39 33 30 29 29 27 27 26 25 25 24 23 23 22 21 20 22 23 20 22 18 19 20 14 13 19 15 19 14
38 39 41 43 47 53 54 52 50 49 44 44 43 39 34 31 29 27 26 24 24 25 24 23 23 22 21 21 20 21 20 21 20 21 20 20 19 23 19 11 13 16 16
39 41 41 45 51 53 51 51 49 47 44 43 41 36 31 27 26 26 24 22 22 22 22 21 21 20 20 20 21 22 22 21 20 21 21 20 17 16 16 14 15 16 15
38 39 44 48 51 52 50 50 48 44 43 41 37 34 30 28 27 25 24 21 20 20 19 19 17 17 20 21 21 21 20 20 20 19 19 20 19 19 18 19 17 16 16
37 40 44 48 51 52 49 49 47 43 41 38 37 32 28 27 26 25 23 21 20 19 18 16 16 16 17 18 19 21 21 20 21 20 20 20 20 20 20 20 19 17 13
38 40 45 49 51 51 49 49 47 43 40 38 34 29 27 27 27 24 22 20 19 16 15 16 16 16 17 17 18 19 18 19 20 20 20 20 20 21 21 22 21 18 15
37 41 46 49 51 51 49 48 45 41 39 36 33 29 27 26 24 21 19 18 15 14 15 15 16 17 17 17 17 17 18 18 20 20 19 19 20 20 22 23 23 22 20
37 41 46 48 49 47 47 44 40 37 34 31 29 26 24 22 19 17 15 14 13 14 14 15 15 16 16 16 16 16 18 19 20 20 21 20 20 20 21 23 23 22 22
39 44 44 43 44 44 42 41 36 33 29 25 24 22 19 17 15 13 13 13 13 15 15 15 16 16 16 15 14 17 19 20 20 20 21 20 18 20 21 22 21 22 22
40 40 41 41 41 38 36 34 30 25 22 21 19 16 15 14 13 13 13 14 14 15 15 16 16 15 16 14 13 17 20 21 20 20 19 18 19 18 20 21 22 22 22
40 40 39 37 36 33 30 26 23 21 19 17 16 15 14 14 14 15 15 15 14 16 16 16 16 16 14 14 14 20 22 22 21 21 20 19 19 19 22 22 22 22 21
40 38 37 34 30 27 24 22 19 18 16 16 16 16 16 16 16 16 15 16 17 17 16 15 15 15 14 12 22 24 23 23 21 21 20 20 23 27 26 23 23 23 24
40 38 35 31 29 27 23 20 18 16 17 17 17 19 18 18 17 15 16 17 17 17 16 15 14 15 12 23 26 25 23 23 21 20 20 21 25 25 28 28 28 28 31
39 37 34 31 26 22 19 17 16 17 17 17 17 18 18 16 15 14 16 16 16 15 15 14 14 13 14 24 26 26 22 22 22 22 22 21 21 26 23 27 29 34 29
39 37 34 28 23 21 18 17 17 17 17 17 18 17 16 14 14 14 15 15 15 14 13 13 14 14 15 25 25 26 22 22 22 23 22 22 22 24 25 26 32 26 23
39 36 32 26 22 19 17 17 17 17 17 17 16 16 14 13 14 15 14 14 13 13 13 13 14 15 18 24 25 25 22 21 22 22 22 23 23 26 27 28 27 19 18
35 31 27 23 19 17 17 17 16 16 16 16 15 14 13 14 14 14 13 13 13 13 14 15 16 19 16 23 25 24 21 21 21 22 22 25 25 27 29 24 19 19 18
29 27 24 20 17 17 17 16 16 15 14 14 13 13 14 14 13 13 13 13 14 14 14 16 17 17 18 19 25 25 21 21 22 20 22 21 26 28 25 24 18 19 24
24 21 19 17 16 17 16 15 13 14 13 13 14 14 13 13 12 12 13 14 14 14 15 17 17 17 18 22 23 25 26 25 21 24 21 22 26 24 23 21 24 25 23
21 19 17 16 16 16 14 12 12 11 11 13 13 13 13 13 13 12 13 14 15 15 16 17 17 16 17 18 24 26 26 25 25 21 24 25 24 21 19 21 23 22 16
18 17 16 15 13 12 12 11 11 10 11 13 14 15 13 13 13 13 14 15 16 16 17 17 16 17 17 17 18 20 21 26 22 23 22 20 19 20 19 17 16 15 15
18 17 16 14 11 11 10 9 9 10 9 10 12 13 13 13 13 13 15 17 17 18 17 17 16 16 16 17 22 22 24 21 21 21 16 13 13 14 14 14 15 15 15
17 16 14 11 10 10 9 9 9 8 8 11 15 14 13 13 13 14 14 18 18 20 19 19 18 17 21 23 23 25 23 23 23 17 12 13 14 14 14 14 15 16 18

GFSMW_sfc_dewp_012.txt.gz
Dewpoint
40 41 43 44 44 44 46 49 55 59 62 63 61 58 53 50 46 42 39 37 34 33 33 31 28 27 25 23 21 23 23 23 23 21 24 26 28 32 32 19 21 22 21
35 39 41 42 43 44 49 52 57 60 61 62 61 59 54 48 43 37 34 34 33 33 32 31 28 27 25 24 24 26 23 23 23 20 24 21 20 22 23 22 19 17 17
31 35 37 40 44 46 50 54 59 60 60 61 58 52 44 39 33 33 33 32 30 29 30 29 27 27 27 26 25 24 23 22 23 21 19 17 17 16 20 21 19 17 16
30 32 36 36 41 46 51 57 60 58 60 58 51 47 48 45 35 32 31 30 29 28 26 26 25 25 24 24 21 20 22 23 21 23 16 18 17 14 14 18 17 16 15
29 32 33 36 39 46 54 59 59 58 58 53 52 53 50 45 32 30 28 27 27 27 25 24 25 23 22 22 22 22 21 22 21 21 20 19 19 18 19 16 16 17 18
32 33 38 37 39 47 55 59 57 57 54 53 54 52 46 33 29 29 27 26 25 24 23 23 23 22 22 22 23 24 23 23 22 21 21 20 19 17 18 17 17 17 18
30 32 36 40 42 49 54 57 57 54 52 50 49 44 39 32 29 28 27 26 23 23 23 21 20 20 22 23 23 23 23 22 21 20 19 20 19 19 18 18 18 17 17
35 32 36 41 44 50 53 55 55 51 50 49 43 38 33 35 29 29 27 25 24 22 21 19 18 17 18 19 20 22 22 22 21 22 21 21 20 21 20 20 19 17 15
37 36 36 42 45 49 51 53 53 52 50 46 41 36 33 34 30 29 28 25 23 19 19 18 17 17 17 18 19 20 18 19 21 21 21 21 21 21 21 21 21 19 15
35 38 36 42 46 49 51 51 51 50 47 42 37 31 32 30 29 27 25 23 19 17 18 17 17 17 17 17 18 18 18 18 20 20 21 20 20 20 21 21 21 20 19
38 39 38 41 47 50 51 50 49 47 44 39 32 30 29 27 25 24 22 20 17 16 15 15 15 15 15 16 16 16 17 19 20 21 22 22 20 19 18 19 19 19 20
40 41 41 45 48 50 50 49 47 44 41 33 32 28 27 25 23 20 18 16 15 15 15 14 15 15 15 15 13 15 18 20 20 21 23 22 16 17 17 18 18 19 20
40 41 43 45 47 48 49 45 43 37 33 31 28 26 25 23 19 17 15 15 15 15 15 16 16 15 16 14 13 14 18 20 21 21 21 19 17 16 17 17 20 21 19
40 41 42 44 46 47 44 37 32 29 29 29 27 24 22 19 17 16 16 16 15 16 16 16 16 16 14 14 14 19 21 21 22 22 22 20 18 19 19 20 21 20 21
39 41 41 42 43 40 34 29 27 25 25 25 23 21 19 18 17 17 16 16 17 17 16 15 15 15 14 12 21 23 23 22 21 20 20 19 22 26 27 24 23 22 23
39 40 40 40 38 31 28 26 23 25 22 22 21 19 19 18 19 17 17 18 18 17 16 15 15 15 11 22 26 26 22 21 20 19 18 19 24 23 27 27 27 26 29
41 39 38 36 32 28 26 26 26 24 21 19 19 19 18 18 17 17 17 18 17 16 15 14 14 13 14 23 26 26 22 21 20 21 22 20 18 25 21 25 28 30 33
41 39 35 32 28 28 26 24 20 19 19 18 18 18 17 16 16 16 16 15 14 14 14 14 13 14 13 23 25 26 21 20 20 22 21 20 21 22 24 25 30 29 24
40 38 33 27 24 21 20 19 19 19 18 18 17 16 15 15 16 16 15 14 13 13 13 14 13 13 13 20 25 25 20 19 19 19 19 21 21 25 27 28 29 20 17
36 30 26 23 21 19 19 19 18 18 17 17 16 14 14 15 16 15 13 14 14 14 13 14 13 15 13 18 24 24 20 19 18 18 19 24 24 26 29 25 19 19 17
32 28 25 22 19 19 19 17 18 16 16 15 14 14 15 14 13 13 12 13 13 13 12 12 13 14 15 16 23 25 21 19 19 18 19 20 24 27 26 25 18 18 23
26 24 21 19 18 18 18 17 15 15 14 14 14 14 13 11 11 12 13 13 13 11 11 11 11 12 13 17 20 25 25 25 20 22 19 20 25 25 24 22 22 25 24
24 22 20 19 18 18 16 14 13 13 14 14 13 13 12 12 12 12 13 13 12 11 11 12 12 11 12 14 20 23 24 24 25 20 23 25 24 22 19 20 23 22 17
20 20 18 17 16 16 14 13 13 13 13 13 12 11 11 12 12 13 13 12 11 12 12 12 12 12 12 13 16 18 19 24 21 22 23 20 20 19 18 17 16 16 16
20 19 17 16 14 13 12 11 12 13 13 13 12 12 13 12 12 12 14 13 13 16 14 13 13 13 13 15 22 22 21 21 21 22 16 12 12 13 14 15 15 16 17
18 17 16 14 12 11 10 11 11 11 11 10 11 13 13 13 12 12 11 17 17 18 18 18 18 15 19 22 23 24 24 24 23 17 12 12 14 14 14 15 16 18 20

GFSMW_sfc_dewp_015.txt.gz
Dewpoint
34 38 40 39 38 40 42 44 44 50 52 59 65 65 63 63 60 55 51 46 41 41 41 36 33 32 30 28 26 28 27 28 26 29 30 31 28 32 32 30 24 25 23
31 34 36 41 41 42 44 44 46 51 55 62 64 64 61 58 54 47 42 37 36 38 38 36 34 32 31 29 29 31 28 28 26 24 30 28 26 26 24 26 23 21 25
28 30 32 36 44 43 45 45 48 53 58 63 62 60 55 47 45 41 38 35 34 36 36 35 32 33 34 32 31 30 28 28 28 24 24 24 24 21 26 27 24 23 23
25 28 29 33 39 44 48 48 51 55 58 61 60 57 51 47 46 39 34 32 33 34 33 31 31 31 30 30 27 25 26 29 26 26 18 20 20 18 18 25 24 22 17
27 26 29 33 35 42 49 52 53 56 58 60 60 56 52 52 44 34 30 29 30 32 31 29 31 29 28 27 27 27 25 24 24 24 24 22 23 21 21 21 22 22 22
25 29 31 32 35 42 50 54 55 57 58 60 57 53 55 45 37 32 29 29 29 30 29 28 29 28 27 27 27 28 26 24 23 24 23 23 22 21 22 21 20 20 21
27 28 30 33 38 42 48 54 56 56 58 58 54 54 54 44 38 32 30 28 28 28 28 28 25 25 27 27 26 26 25 23 24 23 22 22 22 21 21 22 22 21 21
33 36 37 32 38 45 48 52 55 56 56 55 55 55 45 43 37 32 28 28 28 28 27 25 24 23 22 22 23 24 25 23 25 25 25 24 23 24 24 23 22 21 20
33 35 38 37 35 41 45 52 54 56 55 54 52 46 42 36 34 31 29 29 28 26 24 23 21 20 20 20 20 21 20 21 23 24 25 24 24 25 25 24 23 22 19
31 34 38 39 37 42 47 51 53 54 54 51 43 39 36 33 32 30 29 28 25 23 22 21 20 20 19 18 18 20 19 19 22 22 22 22 23 23 24 24 23 22 20
34 36 39 39 39 44 48 50 52 52 52 45 38 36 35 35 29 29 27 24 21 21 20 19 18 17 17 17 16 17 18 19 20 22 24 23 23 22 21 21 21 21 21
34 37 40 41 41 46 49 50 52 51 48 41 36 33 31 29 29 25 23 21 20 19 18 17 17 16 16 15 14 15 16 18 20 21 26 25 19 20 19 20 19 19 20
28 35 39 42 45 48 49 50 49 47 42 36 32 29 27 26 25 22 19 20 18 17 17 17 17 16 17 15 14 13 15 18 20 21 21 21 20 19 18 19 20 22 21
31 38 41 42 45 47 48 47 46 43 37 32 30 28 26 23 21 19 19 19 18 18 18 17 17 16 14 15 14 18 20 22 23 23 23 21 21 20 20 22 23 22 23
38 38 41 42 44 47 45 40 40 35 32 30 30 28 25 22 21 20 19 19 20 18 18 17 16 15 14 12 21 23 23 22 21 21 20 20 24 25 26 24 25 24 24
39 39 41 42 45 40 36 34 32 29 30 29 28 25 22 22 22 20 20 21 19 18 17 16 15 15 12 22 25 26 23 21 20 19 18 20 25 23 25 27 27 26 26
39 40 41 41 36 32 29 27 28 29 30 28 25 25 21 21 21 20 20 20 18 17 16 14 13 13 15 22 25 26 23 21 20 23 23 21 18 25 22 24 26 28 30
41 40 39 33 28 28 29 28 30 27 27 25 24 21 21 20 20 19 19 17 16 15 13 13 13 15 15 20 24 26 22 19 20 23 20 20 20 23 23 24 28 28 27
39 36 30 29 30 32 33 34 36 35 27 22 21 20 19 19 19 18 16 15 13 13 12 13 14 13 12 18 23 25 20 18 19 19 19 20 20 24 26 25 28 25 20
32 27 26 27 29 29 27 27 28 27 24 24 18 17 18 18 18 17 14 14 14 14 14 14 13 13 13 16 21 23 20 19 18 19 19 23 22 25 26 25 22 21 19
35 35 34 34 31 27 27 22 20 18 17 17 16 17 17 16 14 13 12 12 13 15 12 13 11 12 13 15 19 23 21 20 20 20 20 21 24 26 27 26 21 20 21
26 23 22 21 21 20 20 19 17 16 16 16 16 15 13 12 12 13 13 13 13 12 10 9 10 12 11 15 17 22 24 24 20 21 22 21 25 26 25 23 23 24 24
22 22 21 21 20 18 17 15 15 15 16 15 15 13 12 12 13 13 14 14 12 10 11 12 12 11 13 13 17 21 23 23 22 22 23 25 24 24 20 20 23 22 18
22 21 20 18 17 15 14 14 15 15 15 14 13 12 11 12 13 15 14 12 11 11 11 11 11 12 12 13 16 18 21 22 23 23 23 22 21 18 18 17 17 17 17
22 20 18 16 14 14 14 15 16 15 15 14 13 14 14 12 13 13 13 13 12 14 14 13 13 13 13 14 22 22 20 22 22 22 19 16 12 15 14 15 16 17 18
19 18 17 15 13 13 14 15 15 15 13 12 13 14 15 14 13 12 11 19 16 17 18 18 17 15 19 21 23 23 24 24 24 19 15 13 15 15 15 16 17 18 21

GFSMW_sfc_dewp_018.txt.gz
Dewpoint
34 35 37 38 39 36 39 43 46 47 55 64 64 65 63 63 63 58 54 48 42 41 40 37 35 34 31 28 27 28 28 28 27 28 28 30 29 32 31 32 23 23 22
31 32 34 38 40 40 38 43 45 47 48 59 64 65 63 62 56 52 47 44 41 41 37 36 34 32 31 30 29 29 30 28 27 24 27 25 26 26 24 26 23 20 21
29 29 30 34 40 40 42 45 45 47 50 56 64 59 54 50 47 43 39 39 37 37 36 34 34 33 35 33 30 28 27 28 27 22 24 22 22 21 24 23 22 20 22
27 28 29 29 34 41 42 45 46 48 53 63 61 57 55 50 47 43 45 36 34 35 34 34 33 33 33 30 27 27 26 28 25 27 21 20 20 20 19 24 23 22 20
27 27 28 29 29 32 43 44 46 50 57 63 61 57 52 51 43 39 39 34 33 33 32 32 32 31 31 26 26 26 24 25 26 25 24 22 23 21 21 20 22 23 23
24 28 30 33 33 33 39 49 47 52 58 62 60 57 52 48 38 37 36 33 32 32 31 31 31 29 29 28 28 27 25 24 24 24 24 24 23 22 21 21 20 20 21
25 29 36 38 36 35 39 50 49 54 58 60 60 55 52 42 37 36 35 29 29 30 30 31 31 29 29 29 28 27 25 24 23 22 23 24 23 24 23 23 22 22 21
24 34 36 39 39 38 42 49 52 55 57 59 56 53 44 39 38 37 33 30 28 28 28 27 28 26 25 26 26 26 26 23 24 22 24 25 25 25 25 24 23 21 21
29 33 36 38 40 39 43 50 54 55 57 58 53 49 43 40 38 39 31 29 28 26 26 25 23 23 22 22 22 24 22 21 22 22 23 24 25 25 25 25 24 22 19
30 32 36 38 40 40 42 50 54 55 57 55 52 43 40 38 36 31 28 28 26 26 23 22 22 21 20 19 20 21 19 19 21 23 21 22 24 24 25 24 24 22 21
32 35 37 39 41 40 43 48 52 55 54 42 42 39 36 34 31 29 27 25 23 23 22 22 20 19 19 18 18 17 18 19 20 21 23 23 23 24 23 22 22 21 21
30 34 37 39 41 41 45 49 51 54 42 39 37 34 34 31 29 26 24 22 22 21 20 20 19 18 18 15 14 15 16 18 19 21 23 24 22 21 21 21 20 20 20
28 30 39 40 41 45 47 50 54 47 39 37 35 33 30 27 26 24 22 22 20 19 18 19 19 18 19 16 14 14 16 18 20 21 22 22 21 20 20 19 21 23 22
35 36 41 41 42 48 51 52 44 39 36 33 32 30 29 27 23 21 20 21 18 18 19 19 19 19 17 16 16 20 21 22 23 24 24 22 21 21 20 22 23 23 24
38 39 40 41 45 46 46 44 37 35 31 30 28 26 25 24 22 20 20 20 20 19 19 18 17 17 16 18 23 25 25 23 22 21 20 21 25 26 25 23 24 25 25
40 40 40 43 42 39 37 38 35 33 33 30 26 24 23 24 22 21 21 21 20 19 19 17 17 16 13 25 25 26 25 23 21 20 20 21 26 25 26 26 27 26 26
40 40 41 38 33 31 31 32 32 31 29 28 27 27 30 31 28 23 21 20 19 18 16 15 14 14 21 25 23 25 24 23 22 21 22 22 19 25 23 25 26 27 29
40 40 34 30 29 28 29 30 30 30 32 31 32 33 34 31 25 20 19 18 17 16 15 14 15 17 19 22 22 25 23 21 20 21 20 20 20 22 23 24 25 26 27
33 30 29 29 30 31 30 30 32 33 32 33 35 33 30 28 23 20 17 15 14 14 14 16 15 13 16 20 20 23 22 20 19 19 19 20 21 25 26 25 23 24 22
27 30 31 34 34 35 36 35 33 34 33 32 31 29 26 19 17 15 14 15 15 15 16 15 13 19 13 16 19 22 22 21 20 20 20 24 23 26 26 23 22 21 20
35 34 34 34 35 38 37 35 35 35 35 34 24 19 18 15 14 14 13 14 15 14 13 11 12 12 13 14 17 20 21 21 21 21 21 22 26 26 27 26 21 20 22
38 37 37 38 38 37 32 22 16 17 17 17 16 14 13 12 12 13 13 13 13 11 10 10 12 13 11 16 18 19 22 24 21 21 22 22 26 26 25 23 23 24 24
22 22 21 20 20 19 17 15 16 16 15 14 13 13 13 13 15 15 14 14 12 12 12 12 12 12 14 14 19 22 23 24 22 22 24 25 25 24 21 21 22 22 18
21 19 17 16 15 15 15 16 16 15 14 13 13 13 13 14 14 15 14 13 12 13 12 12 13 14 14 14 18 20 21 24 22 25 23 23 22 20 18 17 18 18 17
20 18 16 15 15 15 15 16 15 14 13 13 15 15 15 14 13 14 15 14 17 16 16 16 16 15 15 16 21 22 20 21 23 23 20 17 14 15 15 16 17 17 18
18 17 16 15 15 16 16 16 16 14 13 13 15 17 16 15 14 13 12 17 16 15 17 17 17 17 18 21 22 23 24 25 24 19 15 14 15 16 16 16 16 18 20

GFSMW_sfc_dewp_021.txt.gz
Dewpoint
36 35 35 37 35 36 37 42 55 62 65 65 64 64 63 63 63 61 55 49 45 42 39 36 33 33 31 29 27 28 26 27 26 25 27 31 29 30 30 30 25 23 22
32 33 34 34 37 38 38 38 47 59 63 65 65 65 64 62 60 55 50 46 43 41 37 34 34 31 30 29 29 30 29 27 26 23 28 23 25 24 24 25 23 19 22
29 30 31 31 33 37 40 41 43 48 63 64 64 59 56 52 50 49 47 44 42 39 36 34 32 31 33 31 28 28 28 27 26 22 24 19 21 21 24 23 22 21 21
28 28 29 29 30 33 40 42 44 46 49 63 63 61 60 57 51 47 45 42 39 36 35 33 32 33 33 29 28 27 27 29 25 26 23 21 20 17 15 22 23 23 21
27 27 28 30 30 30 36 42 44 46 50 63 62 62 59 52 47 45 41 37 36 35 34 33 33 32 31 27 26 25 24 25 26 26 24 22 24 21 20 19 21 22 22
24 26 29 33 34 34 32 41 43 46 58 62 61 61 56 45 44 44 40 36 34 34 34 32 31 30 27 28 28 26 24 25 24 25 25 24 23 22 21 21 20 20 22
20 26 36 36 38 39 39 38 46 45 60 61 59 56 52 46 46 43 41 35 34 36 32 31 29 28 29 29 28 27 24 24 24 22 24 24 24 24 23 23 22 22 22
21 30 35 37 39 39 40 40 43 47 59 60 58 55 50 47 45 44 39 36 34 33 33 30 28 28 28 27 27 27 26 23 25 22 24 25 25 25 25 24 22 21 21
22 33 36 38 38 39 40 40 44 50 58 60 58 53 46 44 42 41 36 34 32 33 30 27 27 26 26 25 25 25 20 21 23 23 23 24 26 25 25 25 24 21 19
25 33 36 38 39 40 41 41 44 53 57 57 55 47 44 43 40 36 33 33 31 29 28 26 24 23 23 22 23 21 20 19 22 23 22 22 24 24 24 24 23 22 21
31 35 36 39 40 40 41 42 50 54 55 52 46 45 43 39 36 34 33 33 30 28 26 26 25 23 20 19 20 20 19 19 20 21 22 23 23 24 24 22 21 20 21
32 32 35 39 40 40 41 43 48 53 48 45 43 42 39 36 35 32 30 29 27 27 25 25 22 19 19 17 16 16 17 18 19 20 22 23 23 21 21 21 19 20 21
35 36 37 40 40 41 43 47 51 44 42 43 42 38 36 35 30 28 27 27 25 23 24 20 19 18 19 16 15 15 17 19 20 21 22 22 22 21 21 20 20 23 22
39 38 40 41 41 46 49 48 43 41 40 41 39 36 34 29 26 27 24 25 24 22 19 19 19 20 18 17 20 23 24 23 23 23 23 22 21 21 20 20 22 22 23
41 42 40 41 43 44 43 41 41 43 43 38 36 33 29 29 27 28 26 26 26 22 19 18 18 18 19 19 25 26 25 24 23 22 20 21 25 26 26 23 24 24 24
39 40 41 42 39 42 41 41 40 39 40 33 31 27 27 28 29 29 28 27 20 19 18 17 17 15 20 29 29 27 25 24 22 21 21 21 26 25 26 26 26 25 25
40 41 40 33 34 38 41 41 39 34 27 26 26 27 29 31 33 29 26 24 21 18 17 16 16 19 25 28 27 27 24 23 22 21 21 21 20 25 22 26 27 27 28
39 34 30 29 30 32 35 35 35 33 32 32 32 33 33 33 33 33 32 30 26 24 22 15 16 20 24 27 25 27 22 21 20 21 20 19 19 22 24 23 25 26 26
30 30 30 31 31 32 34 34 34 34 35 35 36 36 36 35 34 32 31 30 28 19 15 17 16 18 22 23 23 24 21 21 21 20 21 22 21 25 27 25 23 23 23
33 32 33 34 33 33 35 35 36 36 35 35 35 35 34 33 30 27 20 15 16 16 17 15 14 19 13 19 19 21 22 21 21 21 22 26 24 26 27 24 23 22 20
33 35 36 37 37 37 36 35 35 34 35 35 34 33 29 23 20 16 16 15 15 14 12 11 12 12 14 14 16 19 20 21 21 22 21 22 26 26 27 26 22 20 21
36 37 37 37 37 37 35 34 34 35 34 32 26 19 15 13 13 14 14 13 12 11 11 11 12 13 12 19 18 20 21 23 21 21 22 22 26 26 25 23 23 24 23
36 37 35 34 32 30 25 21 17 16 15 14 14 14 14 15 15 14 13 13 12 13 12 13 13 13 14 14 22 22 23 24 22 21 24 26 25 23 21 21 22 21 18
19 20 19 17 16 16 16 16 15 14 13 13 13 14 15 14 14 15 14 13 13 13 13 13 13 14 14 15 16 20 21 24 22 24 24 23 20 20 19 18 17 17 17
18 18 17 17 16 16 15 15 15 13 13 14 15 16 15 13 13 15 14 15 16 13 14 16 16 15 16 16 21 22 20 22 23 23 19 16 14 15 15 16 16 17 17
17 17 17 17 17 16 16 15 15 14 14 14 15 16 15 14 13 12 12 18 17 17 17 17 15 16 16 19 21 22 23 24 24 16 13 13 15 15 14 15 16 17 19

GFSMW_sfc_dewp_024.txt.gz
Dewpoint
34 37 36 36 35 36 37 43 58 62 65 65 64 64 62 63 62 62 59 55 52 49 42 36 33 32 30 30 28 29 25 26 25 25 27 30 29 29 30 28 26 23 23
31 33 34 35 35 36 36 37 49 60 64 65 64 64 63 62 62 59 56 53 50 46 39 35 32 31 30 28 28 29 29 26 25 24 28 23 24 25 23 25 22 20 22
29 30 30 32 33 34 36 39 40 56 64 64 64 59 57 56 54 54 52 49 47 42 38 34 33 31 32 31 29 29 29 27 25 22 25 22 21 20 22 23 23 21 22
29 29 30 30 31 31 34 37 41 46 62 64 64 61 60 59 56 56 52 51 44 39 36 34 31 31 34 30 28 29 29 29 25 26 22 21 21 15 13 21 22 23 20
29 30 29 30 30 31 31 36 39 44 54 64 63 61 60 60 53 50 50 48 46 38 35 33 32 32 33 29 28 26 27 27 27 26 25 23 24 21 19 17 20 23 22
25 27 27 29 30 35 35 34 37 41 47 62 63 61 60 51 49 48 47 46 43 40 37 33 33 33 30 28 28 26 25 25 25 26 25 24 22 22 21 20 20 20 22
21 23 29 36 37 38 39 39 39 41 46 59 62 61 57 52 51 48 47 43 41 39 38 35 33 33 31 30 28 27 25 24 24 23 24 25 24 24 23 22 21 21 23
20 21 30 36 37 39 38 37 39 41 45 58 60 61 57 53 52 50 47 43 39 40 40 37 32 32 31 28 28 27 27 24 24 22 24 25 25 26 25 24 22 20 21
29 25 25 37 38 38 37 38 40 41 45 58 58 56 50 50 49 47 45 42 41 39 36 33 33 33 32 29 26 27 24 23 24 23 24 25 26 26 25 25 24 21 18
30 31 35 37 38 39 39 40 41 42 45 56 58 54 49 49 48 46 44 42 38 35 32 32 32 32 30 26 26 23 21 21 23 24 23 23 24 24 25 24 24 23 20
34 31 33 36 39 39 38 39 42 45 50 56 56 48 48 46 46 44 42 38 35 31 31 31 31 30 27 24 22 22 20 19 20 22 23 22 23 24 24 23 22 21 21
39 36 34 35 37 40 40 40 43 47 52 50 48 47 46 45 44 41 38 34 31 31 30 29 29 30 26 23 22 20 19 19 20 20 23 24 23 23 22 22 20 20 20
40 40 39 40 41 42 44 47 49 48 47 46 45 44 43 43 41 39 34 31 30 30 30 28 27 21 21 18 17 17 17 19 20 21 22 22 22 21 22 21 21 21 21
40 40 41 42 41 46 43 42 42 42 43 44 43 41 43 42 37 34 33 30 31 31 31 31 28 24 21 18 19 22 23 23 23 23 22 21 22 21 21 20 20 22 23
39 41 41 41 43 41 40 40 42 43 42 42 42 38 35 33 30 30 30 30 30 28 27 29 27 26 26 25 26 25 24 23 22 22 21 21 23 28 25 23 24 24 24
40 39 40 41 40 39 39 39 39 40 38 36 35 33 30 31 32 32 30 29 30 30 29 26 23 25 27 32 31 26 24 23 22 21 21 21 26 25 27 27 26 25 25
39 40 36 35 38 41 40 38 37 37 35 34 32 32 32 31 30 30 30 29 30 30 27 25 21 26 28 30 29 28 23 21 21 21 21 20 19 24 22 25 27 27 28
30 29 30 32 35 37 37 37 37 36 35 34 35 35 33 33 34 34 33 32 31 30 30 29 29 30 29 29 28 26 21 21 20 21 20 20 21 22 24 24 25 26 25
32 32 32 33 35 35 37 36 36 36 36 36 35 35 36 35 35 34 33 33 33 32 31 29 25 26 24 25 25 23 21 21 21 21 21 23 22 26 27 25 24 23 23
34 34 33 33 34 35 35 36 36 35 35 36 36 36 35 35 34 34 33 33 31 26 20 16 15 21 17 23 20 24 21 19 20 21 22 25 24 26 27 25 23 22 21
36 37 37 37 37 36 36 35 34 33 36 35 35 34 34 32 31 29 26 21 17 15 13 12 12 13 13 14 17 18 20 19 21 21 21 21 26 27 27 26 21 20 21
37 36 35 34 36 37 36 35 33 34 33 33 32 29 24 17 15 15 14 13 12 11 11 12 13 13 13 21 21 24 23 24 21 21 21 21 27 26 24 22 23 24 23
36 35 33 30 27 28 31 32 30 26 21 16 15 14 14 14 14 13 12 13 13 13 12 13 12 13 14 15 20 22 23 24 22 22 24 26 25 22 19 21 22 22 17
27 25 23 22 17 16 16 15 15 15 14 14 15 15 14 14 14 15 13 14 14 13 12 13 13 13 14 15 17 20 21 24 22 24 23 21 18 18 18 17 17 17 17
19 19 18 18 16 16 15 15 14 13 14 15 17 17 15 14 14 14 14 14 12 11 12 15 15 14 15 16 20 21 20 22 23 21 16 13 13 15 14 14 16 16 16
19 19 19 17 16 16 15 15 15 14 15 14 15 15 14 13 14 14 15 20 18 19 18 20 17 15 18 18 20 23 23 24 23 14 12 13 14 14 14 14 15 16 18

GFSMW_sfc_dewp_027.txt.gz
Dewpoint
31 34 36 37 37 37 38 41 58 62 64 65 64 64 62 62 62 62 61 57 57 53 48 42 35 33 31 30 27 27 23 24 26 27 28 29 30 28 29 28 27 24 23
30 31 33 35 36 36 36 37 47 60 64 65 64 64 63 63 62 62 61 58 55 52 45 40 35 32 31 29 29 29 28 25 24 25 28 24 25 25 23 25 22 21 23
29 29 30 32 33 34 35 36 38 50 62 64 63 59 58 57 57 57 57 56 54 51 46 40 36 32 32 30 29 30 29 26 24 23 26 23 21 22 22 22 22 21 23
30 30 30 30 31 31 33 34 37 40 56 64 63 61 60 59 60 57 58 54 53 51 45 40 35 32 33 30 30 30 30 28 25 25 21 21 23 17 14 20 22 23 20
29 30 30 30 31 31 31 32 34 40 45 62 64 62 60 59 60 54 54 53 52 50 45 42 36 32 33 32 29 29 29 28 28 27 25 23 24 21 18 15 19 23 22
20 23 26 29 29 30 33 32 32 35 43 58 63 62 61 56 53 52 54 51 48 45 43 42 40 35 35 35 33 29 28 27 27 26 25 25 23 22 21 19 19 20 21
26 26 26 26 35 38 39 39 39 39 41 47 61 62 61 56 55 54 54 50 45 43 41 41 41 40 38 37 33 29 27 26 25 24 25 25 24 24 23 22 21 20 22
29 30 30 30 31 36 39 38 38 38 42 49 56 61 59 57 55 53 53 51 48 46 43 42 40 39 37 33 31 31 28 25 26 23 25 25 25 25 25 24 22 20 20
31 32 32 35 37 38 38 38 38 39 40 46 55 59 59 54 54 52 52 51 48 44 42 41 37 37 35 33 32 31 26 25 25 25 25 25 26 26 26 26 24 21 18
33 35 35 33 35 37 39 39 39 40 42 45 53 57 56 53 52 49 48 45 44 42 39 38 36 35 34 32 30 27 23 24 25 25 24 24 25 25 25 25 24 24 21
39 39 37 35 34 36 38 39 40 42 44 47 52 52 50 49 48 47 45 42 42 41 39 37 36 33 31 28 28 29 26 25 24 24 23 23 23 24 25 25 23 22 21
41 41 40 39 40 41 42 44 45 47 48 49 54 50 47 47 46 47 43 41 40 38 37 35 32 31 30 30 28 26 26 25 24 25 27 25 23 23 24 23 21 21 21
40 39 40 39 40 43 45 44 44 43 46 47 46 46 45 45 45 44 42 40 38 38 36 32 31 29 28 28 29 30 26 23 22 22 21 22 22 22 23 22 22 21 20
39 40 40 41 41 44 42 41 42 42 43 44 44 43 44 44 43 41 39 37 36 34 32 28 29 28 29 30 30 29 27 26 24 24 23 22 23 22 21 20 20 20 21
35 40 40 41 42 41 39 39 40 41 41 41 40 40 41 40 40 36 35 35 35 33 31 32 32 32 32 30 30 28 26 24 22 22 21 22 23 27 26 23 23 24 23
33 37 40 40 40 39 38 38 37 35 35 35 34 35 34 34 33 31 31 32 31 32 33 33 32 33 34 36 34 28 23 22 22 22 20 21 23 24 27 27 28 25 23
31 30 32 36 39 39 38 37 36 36 34 33 32 33 33 32 32 32 33 33 33 33 32 32 33 34 34 34 33 29 24 21 21 21 21 19 19 24 22 25 27 27 28
32 31 32 34 36 37 37 38 37 35 35 35 34 34 34 34 35 35 34 33 33 32 32 32 33 33 34 36 35 30 23 21 21 21 20 20 22 23 24 24 25 25 25
33 33 33 35 36 36 37 36 35 36 36 36 36 37 37 36 35 34 33 33 33 33 33 33 33 33 33 34 32 24 20 20 20 21 21 23 23 26 27 25 23 24 23
35 35 35 36 36 36 37 36 35 35 34 35 36 36 36 35 34 34 34 34 33 32 33 31 31 32 26 27 25 24 20 19 19 21 21 24 23 26 27 25 23 21 20
37 37 37 37 36 36 36 35 34 32 35 35 35 35 35 34 34 33 33 32 30 27 20 15 15 13 15 15 18 20 20 19 21 21 21 21 25 27 27 26 20 20 21
36 35 33 34 36 37 35 34 33 35 34 33 32 30 31 31 27 23 18 15 12 12 12 12 13 13 13 23 23 24 22 23 21 21 21 21 27 27 25 22 23 23 23
35 34 30 27 30 33 34 32 31 29 25 20 17 16 14 14 13 12 12 13 13 13 13 13 12 13 14 14 20 22 23 23 22 22 24 27 25 22 19 21 22 22 17
29 28 23 19 17 17 18 18 16 15 15 14 14 14 14 13 13 14 14 14 14 13 12 12 12 12 14 15 17 20 21 24 22 24 23 20 18 18 18 17 16 16 16
21 21 19 18 16 16 15 15 14 15 15 16 16 14 14 13 13 14 12 11 9 10 11 14 13 13 13 15 20 21 21 22 23 23 14 13 13 14 14 14 15 16 16
20 20 20 18 16 15 15 14 15 16 15 14 14 15 14 15 15 17 17 22 21 21 20 21 17 15 18 18 20 22 23 23 22 15 12 12 14 14 13 14 14 15 17

GFSMW_sfc_dewp_030.txt.gz
Dewpoint
33 34 34 36 37 38 38 40 49 60 66 66 65 64 63 63 62 62 61 59 57 56 55 52 46 36 32 31 28 26 24 24 27 30 29 28 29 27 28 28 28 25 23
30 31 32 33 35 36 37 38 41 53 63 65 65 64 64 64 63 63 62 60 58 57 54 49 44 38 34 30 28 28 27 25 26 26 28 24 25 26 24 26 25 22 22
30 30 30 31 32 33 35 36 38 46 60 64 64 60 59 58 59 59 61 60 58 56 52 48 44 38 36 33 29 29 28 26 24 25 28 24 24 25 22 23 22 21 23
24 28 29 30 31 31 33 34 36 39 50 62 63 62 61 61 61 61 61 58 58 56 52 49 48 39 36 34 31 30 31 28 24 24 21 21 25 21 16 21 22 22 20
22 25 26 28 30 31 31 32 33 36 40 55 63 62 61 61 60 60 60 58 56 55 54 50 49 42 42 36 34 33 31 30 28 27 24 23 23 20 18 16 20 22 23
29 31 33 33 33 34 37 35 32 33 37 46 61 62 61 60 56 55 58 56 55 54 52 49 46 44 42 41 37 34 33 31 30 28 26 27 24 22 20 18 19 19 20
30 32 33 34 35 35 35 39 39 38 38 41 55 62 61 60 56 56 57 55 53 50 48 48 45 43 43 42 41 39 36 32 30 26 27 26 25 25 23 21 20 19 21
29 33 35 35 36 36 38 39 38 37 38 42 46 57 61 59 57 56 57 55 54 52 50 45 45 43 42 40 39 39 36 32 33 26 26 27 26 26 25 24 22 19 20
29 33 37 37 36 36 36 38 39 39 39 41 44 50 56 56 55 54 55 55 54 52 46 46 45 43 41 38 37 34 32 32 32 29 26 27 28 27 27 26 24 20 16
34 40 41 40 36 36 36 37 39 39 41 43 45 48 53 57 54 51 52 52 50 47 46 44 42 42 39 35 33 29 28 28 29 29 26 25 26 27 27 27 25 23 21
40 41 41 40 38 40 42 43 44 45 46 46 46 48 52 55 51 50 49 47 45 44 43 42 41 39 37 33 30 28 27 26 27 27 27 25 25 27 26 25 24 24 23
41 40 40 40 40 40 42 44 43 44 44 45 47 49 52 48 49 49 45 44 42 41 41 39 38 35 32 29 28 27 30 31 30 29 30 28 23 25 25 26 23 21 21
40 39 40 40 41 41 42 42 42 43 43 44 45 47 49 48 47 46 43 42 41 40 40 38 34 32 31 30 29 30 31 31 32 32 30 26 24 23 24 23 23 22 21
35 35 38 41 41 42 40 40 41 42 42 44 44 44 46 46 45 43 40 39 39 37 35 33 32 32 32 32 33 32 32 31 30 30 29 27 25 25 24 22 21 21 21
33 32 33 38 39 39 38 38 36 36 40 40 40 41 42 43 40 38 36 35 34 32 32 33 33 34 34 34 34 33 32 32 29 28 26 25 25 27 26 23 24 23 23
33 31 31 35 37 38 38 37 36 35 34 34 35 35 35 35 36 35 34 34 33 34 35 35 35 35 35 37 35 31 29 29 28 29 27 24 24 25 26 26 27 26 24
32 32 32 34 37 37 37 37 37 36 34 33 33 32 32 32 33 34 34 35 34 35 35 36 35 36 36 37 36 34 31 30 29 27 23 21 21 25 22 25 27 27 28
32 33 33 35 36 36 36 37 37 35 35 35 34 35 35 35 35 35 34 34 34 34 34 34 34 35 37 38 37 35 30 29 28 25 23 23 22 24 24 24 25 25 25
34 34 34 35 36 36 37 36 36 36 35 36 37 36 36 35 34 34 33 33 33 33 33 33 33 32 33 37 33 29 24 21 21 21 22 23 23 25 26 25 23 24 23
36 36 36 36 36 36 36 35 35 35 35 35 35 35 35 34 33 33 32 33 33 32 32 32 32 35 33 35 33 24 20 19 19 21 21 24 22 25 26 25 23 20 20
36 35 35 36 36 37 36 35 35 32 35 36 36 35 35 34 33 33 33 32 31 30 30 28 23 23 18 19 22 27 20 19 21 21 20 21 24 26 27 27 20 20 21
35 33 33 33 36 36 35 34 34 35 35 33 33 33 33 34 33 30 29 27 19 14 13 13 13 14 16 26 26 24 22 24 21 21 21 22 27 26 25 22 23 23 22
34 31 30 30 31 33 33 31 29 25 22 19 17 17 15 14 13 12 12 13 13 13 13 13 12 12 13 14 21 22 23 23 22 22 24 27 23 21 19 20 21 20 17
31 27 24 21 19 17 16 16 16 17 15 14 14 14 13 13 13 14 14 13 13 13 12 11 10 12 14 14 17 19 21 23 23 24 22 19 17 17 17 15 15 16 16
24 22 21 20 17 16 15 15 15 15 16 15 14 13 13 13 13 12 9 9 9 10 11 12 11 12 13 15 20 21 21 22 22 20 14 12 13 14 13 13 14 15 15
22 21 20 18 16 15 15 15 16 16 14 13 13 14 15 16 17 18 19 23 23 22 21 20 17 15 17 19 20 22 22 22 20 14 11 12 14 13 13 13 14 15 16

GFSMW_sfc_dewp_033.txt.gz
Dewpoint
33 36 37 37 38 39 40 41 42 54 65 66 65 65 64 64 64 64 63 61 61 60 60 60 58 53 49 43 35 32 30 29 31 33 32 33 31 35 36 36 32 32 28
31 31 32 34 34 36 39 40 40 44 57 65 64 64 64 64 64 64 63 61 60 59 59 58 56 51 47 40 34 34 31 29 32 31 32 30 30 29 29 31 30 29 26
25 28 29 31 34 34 36 37 39 41 49 61 65 64 63 62 63 63 63 62 61 59 58 57 56 54 48 41 35 33 32 31 30 31 33 29 30 30 27 28 27 27 25
29 31 32 34 35 36 37 36 38 39 43 59 63 62 60 60 61 62 63 63 61 59 59 57 55 54 50 45 39 35 34 35 31 28 25 27 30 29 25 25 25 24 23
30 32 35 36 36 38 40 39 35 36 40 48 62 63 62 62 62 63 63 62 61 60 59 56 54 53 51 48 45 37 36 33 33 33 27 25 25 23 25 24 24 24 24
30 34 37 39 40 42 42 42 40 36 36 39 47 62 62 62 62 61 62 61 60 60 58 56 54 53 51 48 46 43 40 38 36 32 30 30 28 25 25 24 22 24 24
30 34 39 40 41 41 42 41 40 40 39 41 42 48 60 62 61 61 61 60 58 57 57 56 54 53 50 49 47 45 43 40 38 33 31 30 29 27 27 27 23 22 22
30 35 40 41 41 40 41 40 39 40 40 41 42 46 49 60 61 60 59 59 58 57 57 55 54 52 49 48 46 45 44 41 39 37 34 33 30 29 27 27 26 22 21
33 38 42 42 41 39 39 39 39 39 40 42 44 44 47 53 57 58 58 59 58 57 56 54 52 50 48 46 45 44 41 39 37 37 35 32 30 29 29 28 26 25 20
35 41 41 41 41 40 41 44 44 44 45 47 47 47 49 50 55 56 57 57 56 54 51 50 49 48 46 45 44 42 38 35 35 33 30 29 29 29 29 29 27 26 23
41 41 39 40 41 41 41 42 44 44 45 45 45 48 50 52 54 53 54 54 52 50 48 47 46 45 43 42 42 40 36 32 29 29 28 28 28 29 29 29 27 26 25
41 37 37 39 41 41 42 43 42 43 44 44 45 47 50 51 50 51 50 48 47 45 45 44 43 41 40 39 37 34 32 30 30 32 33 32 31 32 31 30 28 27 25
36 34 33 38 41 40 39 39 39 38 41 43 45 46 48 49 48 48 45 45 43 43 42 41 39 37 35 32 30 30 32 33 33 34 33 31 31 30 30 30 29 28 27
34 33 32 35 38 39 39 38 37 35 37 40 43 45 46 47 46 44 42 42 42 41 40 37 34 33 31 31 32 34 34 33 33 33 32 32 31 30 30 31 31 30 27
34 33 31 34 37 37 38 38 37 35 35 36 36 38 41 41 39 38 38 37 37 35 35 34 34 35 35 35 34 34 33 33 33 32 32 32 31 32 32 30 29 28 28
33 33 32 35 36 37 37 37 37 36 35 34 33 34 34 35 36 35 36 36 35 35 35 35 36 37 38 39 38 34 31 30 30 30 31 31 33 33 34 33 32 31 30
33 33 33 35 36 36 36 37 36 36 35 34 34 34 34 35 35 35 35 35 36 37 37 37 38 37 37 38 38 35 32 32 31 31 30 30 30 31 29 29 29 27 28
33 33 34 35 36 37 37 37 37 36 36 36 36 35 35 35 35 35 35 35 35 35 35 36 36 36 38 39 38 36 32 31 30 30 29 29 29 28 26 25 27 27 26
35 35 35 35 36 36 36 37 36 36 35 35 35 35 35 34 34 34 34 34 34 33 33 33 33 33 34 37 36 31 29 28 27 28 25 23 22 23 24 25 28 25 24
36 36 35 35 36 36 34 35 35 36 35 35 36 35 35 34 33 33 32 33 33 32 33 32 32 35 33 33 32 28 20 21 20 21 21 23 22 24 25 26 27 22 20
35 35 36 37 36 36 36 35 35 33 35 36 35 35 35 34 33 32 32 32 32 31 30 30 30 30 30 32 30 25 20 19 21 21 20 20 24 26 28 26 20 20 21
34 33 34 35 36 35 35 34 34 34 34 34 34 34 34 35 33 31 30 28 25 19 16 15 16 16 19 28 27 25 25 25 21 21 21 22 27 26 24 21 21 22 22
33 31 31 32 33 33 32 29 25 22 22 20 17 15 14 13 13 13 13 13 13 14 13 12 12 11 12 16 23 23 23 22 22 22 24 25 22 20 18 19 19 19 15
31 26 26 24 21 19 19 19 19 17 14 13 14 13 13 13 13 13 13 13 14 13 11 10 9 11 13 15 18 20 21 23 23 25 21 19 17 17 16 14 13 14 15
28 25 24 23 19 17 16 17 16 16 15 14 12 12 12 11 11 10 8 9 9 10 9 10 10 11 13 17 20 21 21 22 22 21 14 11 11 12 12 13 14 15 16
25 24 22 20 18 16 15 15 16 15 13 12 13 15 16 17 19 19 20 24 23 23 22 20 16 15 18 19 20 22 21 21 19 13 10 11 12 13 13 14 15 15 17

GFSMW_sfc_dewp_036.txt.gz
Dewpoint
33 34 34 34 35 37 39 41 41 43 49 59 65 65 64 65 65 66 66 64 63 62 61 59 59 59 59 57 52 47 41 37 35 34 33 33 32 35 38 37 34 34 33
28 28 31 33 32 34 36 38 39 41 42 49 59 63 64 64 64 65 65 65 64 63 62 61 60 59 58 57 53 47 41 38 35 36 36 33 31 31 35 37 34 33 31
30 33 35 37 39 37 37 36 37 38 41 44 54 61 63 64 64 64 64 64 64 63 62 62 61 59 57 57 54 48 44 38 35 36 37 34 34 32 32 34 34 32 31
34 37 39 40 41 42 43 41 38 37 38 42 47 55 59 59 59 59 62 64 64 63 63 62 61 60 57 55 53 50 45 44 38 35 32 33 36 33 30 30 31 30 28
35 37 40 42 42 44 46 44 42 38 37 39 46 53 57 56 56 58 61 62 63 63 63 62 61 60 57 56 54 50 46 44 43 39 33 31 30 29 32 31 29 29 28
34 38 42 43 42 45 46 46 42 41 42 39 40 47 55 57 56 59 61 61 62 62 61 61 61 60 58 57 56 53 50 46 44 42 37 34 32 30 30 30 30 29 28
35 38 42 42 43 44 45 43 42 41 41 41 42 41 44 53 57 58 59 60 60 61 60 61 60 59 59 58 57 54 49 48 45 42 39 35 36 31 31 31 29 27 25
36 41 42 43 42 43 43 43 43 42 41 41 42 42 44 45 49 57 58 58 57 59 60 59 59 59 58 57 56 54 52 49 47 44 41 38 35 31 31 31 30 27 26
38 41 41 41 42 42 42 43 43 43 45 46 46 46 46 46 47 51 55 57 57 58 59 59 58 59 57 56 55 54 52 51 49 46 42 36 34 33 31 30 31 33 29
40 41 39 40 42 43 42 43 43 43 44 45 45 45 48 48 50 51 53 56 56 57 57 58 57 57 55 53 52 51 50 48 47 44 38 34 31 31 31 32 30 31 28
40 38 37 39 42 43 43 42 42 43 44 44 44 45 48 50 51 52 52 52 54 55 55 54 54 53 51 49 49 48 45 43 40 38 37 35 34 32 32 31 31 31 32
38 37 36 38 40 41 41 41 41 41 41 42 44 45 48 49 51 51 51 51 51 51 51 49 49 49 48 46 45 45 43 39 37 37 35 31 31 33 33 34 33 32 31
37 36 35 36 39 39 40 40 40 38 39 41 43 45 47 48 49 49 48 47 47 46 45 45 45 45 44 43 42 39 38 34 34 34 34 34 34 33 33 32 32 32 32
36 35 35 35 38 38 39 39 39 37 38 38 40 41 44 46 45 44 44 44 44 43 42 41 40 38 38 35 33 35 36 36 36 35 35 36 33 33 33 33 33 33 33
35 35 34 35 37 37 38 38 38 37 36 36 36 38 39 40 40 39 39 38 37 37 36 36 35 35 35 34 35 35 35 35 35 34 33 34 34 36 35 34 33 33 31
34 34 34 35 35 35 36 37 37 36 36 35 35 36 37 37 37 37 37 37 37 37 37 37 37 38 37 38 38 35 35 34 33 32 32 33 34 35 36 37 35 33 32
34 34 34 34 36 36 37 37 37 36 36 36 35 36 36 36 36 36 36 37 37 38 38 38 38 38 39 40 39 37 34 33 32 32 32 33 34 33 31 32 33 33 34
34 34 34 35 36 36 37 37 37 36 36 36 35 35 36 35 35 35 35 35 35 36 36 36 37 38 38 39 38 36 32 32 32 32 31 30 30 30 29 27 27 27 26
35 35 35 35 34 33 37 36 37 36 36 36 35 35 35 35 35 34 34 34 34 33 33 34 34 33 34 37 36 33 31 29 28 28 28 25 23 22 25 25 28 24 24
36 36 35 36 34 35 35 36 36 36 35 35 35 36 36 35 33 33 33 34 33 33 33 32 32 35 33 33 31 26 26 25 22 21 21 23 21 22 25 25 25 24 23
36 36 37 36 36 37 36 35 35 34 36 36 36 36 35 35 34 34 34 34 34 33 32 32 32 32 33 31 27 23 20 19 20 19 17 18 24 26 28 26 24 22 21
36 36 37 36 37 37 36 35 34 34 34 35 34 34 34 34 34 33 33 32 28 24 20 19 19 21 25 27 26 26 25 23 18 19 19 21 26 26 24 23 21 22 22
35 35 36 35 35 35 35 32 29 29 27 27 24 22 19 17 15 14 15 14 14 14 13 13 13 12 12 20 24 24 23 23 22 22 24 24 22 21 19 17 20 21 15
34 34 33 34 32 30 30 30 27 26 19 15 14 14 13 12 12 13 13 13 13 12 10 9 8 9 11 16 19 20 21 21 22 24 23 20 18 17 16 15 13 13 14
33 31 32 31 29 26 26 25 22 16 15 14 13 13 12 9 8 10 10 8 9 10 7 9 9 10 12 18 21 21 20 21 21 23 16 10 9 11 11 12 14 16 16
32 29 31 28 25 25 24 19 16 16 13 12 13 14 15 17 19 20 20 24 23 23 21 19 17 14 18 20 20 21 22 21 19 15 8 9 11 12 12 14 16 18 20

GFSMW_sfc_dewp_039.txt.gz
Dewpoint
28 33 35 35 36 37 38 39 40 41 43 51 56 65 65 65 66 66 66 64 63 62 62 61 59 59 59 60 58 54 50 48 46 40 38 39 36 37 41 40 38 38 38
29 30 31 34 33 33 35 38 39 41 42 44 48 59 64 64 64 66 65 66 65 64 63 62 61 59 59 59 58 55 50 47 43 41 43 39 36 34 35 39 37 36 36
26 31 34 37 40 40 40 38 37 38 40 42 44 49 59 63 64 64 65 65 65 65 63 63 62 61 60 59 59 56 51 47 43 44 45 44 41 36 35 38 38 36 36
33 36 37 39 41 43 46 43 42 39 38 39 41 45 51 57 60 60 63 63 63 64 64 63 63 62 61 60 59 56 52 49 45 43 40 43 43 39 35 36 36 36 33
35 37 40 42 42 45 48 48 44 41 41 39 40 42 46 51 57 58 58 58 62 63 63 63 63 62 62 61 59 57 52 52 50 46 42 40 38 38 38 33 32 34 33
35 38 41 43 42 46 47 47 44 42 42 42 40 41 46 50 54 56 56 56 59 62 62 61 62 62 62 61 59 58 55 53 52 48 42 40 38 33 35 36 33 31 31
35 38 41 42 43 44 45 44 43 42 42 41 42 42 42 43 48 53 55 56 57 60 61 62 62 61 61 60 59 59 56 55 53 49 45 41 41 38 35 37 34 34 31
36 40 42 42 42 43 44 43 43 43 44 44 43 43 43 44 44 44 48 54 55 55 58 61 60 61 61 60 59 58 58 56 54 52 49 45 43 43 42 41 34 30 28
37 41 41 40 41 42 42 43 42 42 43 44 44 44 44 46 47 47 47 49 53 55 55 58 59 59 60 59 59 58 57 54 53 51 50 48 46 42 37 38 38 38 31
39 40 39 39 41 42 43 43 43 42 43 44 44 43 45 47 48 49 49 51 53 54 55 57 58 58 58 58 57 56 55 53 52 51 50 46 40 38 36 35 34 36 35
40 39 38 38 41 42 42 42 41 42 42 42 42 43 45 46 49 50 51 51 51 52 54 54 55 55 56 55 54 53 52 52 50 47 44 40 39 38 38 37 37 35 36
39 38 37 37 39 39 40 40 41 40 40 41 42 44 45 47 48 49 49 49 50 50 50 49 50 50 51 50 50 49 47 48 43 42 40 38 37 35 36 36 34 33 34
38 37 36 36 38 39 39 40 40 39 38 40 41 42 44 46 46 45 46 46 47 47 46 46 45 45 45 45 46 44 43 43 41 39 37 35 35 35 34 34 33 33 34
37 36 36 36 37 38 38 38 39 38 38 38 38 40 41 42 42 41 41 41 42 42 40 39 37 38 36 36 37 37 37 37 37 37 36 36 35 35 34 34 33 33 32
36 35 35 36 36 36 37 37 37 37 37 37 37 38 39 39 39 39 39 39 39 38 38 37 36 35 36 36 36 36 36 35 35 35 35 35 35 36 35 34 33 33 32
35 35 35 35 35 35 36 37 37 36 37 36 36 37 37 38 38 38 38 38 38 38 38 37 37 37 37 38 38 37 36 35 34 33 34 35 36 37 37 36 36 35 33
35 35 34 35 35 35 36 36 37 36 36 35 36 36 36 36 37 37 37 37 38 38 38 39 39 39 39 40 39 37 34 34 33 32 32 33 34 34 33 35 35 35 34
35 35 34 34 34 34 36 37 37 36 35 35 35 35 35 35 36 36 36 36 35 35 35 34 35 36 38 39 38 36 32 32 32 32 32 32 32 31 29 27 29 29 28
36 35 35 34 34 34 36 37 37 37 36 35 35 35 35 35 35 35 35 35 34 33 33 33 33 33 34 37 36 33 32 31 31 31 30 27 24 26 26 26 30 26 25
37 35 35 35 34 35 36 37 36 36 35 36 36 36 34 35 34 34 33 35 34 33 33 32 32 33 33 34 32 30 27 26 22 22 23 22 23 23 24 26 26 26 24
37 37 36 36 36 36 37 36 36 34 36 37 36 36 35 35 35 34 34 34 33 32 32 32 32 33 32 29 27 24 21 20 19 18 17 20 24 26 27 27 25 24 23
37 38 37 37 37 37 36 36 35 35 35 35 35 35 35 35 35 34 34 34 29 22 19 19 20 24 24 27 26 27 26 24 19 20 20 23 26 26 25 24 23 23 22
37 37 38 37 37 37 36 34 33 32 32 30 29 26 21 19 17 16 15 16 15 15 14 15 14 13 14 19 24 25 24 24 23 23 25 24 23 22 20 16 19 21 18
37 37 37 36 36 35 34 33 32 31 25 18 15 14 13 13 13 16 16 15 14 13 11 10 10 11 12 17 20 21 22 21 22 22 25 21 21 17 16 16 13 14 14
36 36 36 36 35 33 32 31 28 19 17 15 15 14 13 9 11 16 15 13 14 15 10 13 12 12 14 19 22 22 22 22 22 22 20 14 9 12 12 12 14 16 17
36 34 35 34 32 30 30 28 21 18 15 13 15 16 17 18 20 20 20 25 24 23 22 21 20 16 18 21 22 22 23 23 22 17 11 9 12 13 12 14 16 19 21

GFSMW_sfc_dewp_042.txt.gz
Dewpoint
28 32 34 33 33 34 37 38 40 42 44 47 57 65 65 65 66 66 65 66 63 62 61 60 59 60 61 61 59 56 52 49 46 39 36 37 35 35 41 41 40 39 39
28 30 32 36 37 36 37 38 39 40 42 44 46 54 64 65 65 65 65 65 65 64 63 62 61 59 59 59 59 56 52 49 46 38 39 36 36 35 34 41 38 37 38
26 31 34 39 40 42 42 41 40 40 39 41 44 46 49 63 63 62 64 64 65 65 64 63 62 61 59 59 59 58 53 49 45 42 43 41 39 34 35 35 40 36 36
34 36 38 40 41 45 47 47 44 41 40 39 40 41 44 47 59 63 64 64 64 64 64 64 63 63 61 60 60 59 56 50 45 43 43 44 41 36 32 35 38 37 34
35 37 41 43 43 46 47 48 47 44 41 42 40 40 42 45 47 56 59 62 63 64 64 64 64 63 63 62 59 59 57 52 48 46 46 45 39 38 37 32 33 36 36
36 38 41 43 43 46 46 46 44 43 44 43 42 40 41 43 45 51 56 57 57 61 62 62 62 62 63 62 61 60 58 54 51 48 49 46 43 39 38 38 33 32 33
36 38 42 42 43 44 44 44 43 43 43 44 43 43 43 43 42 43 47 52 56 58 60 61 61 61 62 62 62 60 59 55 53 52 49 47 48 45 42 42 36 33 32
37 40 42 41 41 43 43 43 43 43 43 44 44 45 45 46 45 46 46 47 50 54 56 60 60 60 60 61 61 60 59 57 55 54 51 48 47 47 46 47 44 39 34
38 40 40 40 41 42 43 43 43 42 43 44 45 44 44 46 47 47 48 48 50 54 54 55 59 58 60 60 60 60 59 58 56 55 53 49 49 48 47 46 46 44 36
39 40 39 38 40 42 42 42 42 42 42 42 42 43 44 46 48 49 50 51 51 52 52 54 54 55 58 59 58 57 57 55 54 52 51 50 45 43 43 42 41 43 41
40 39 38 38 40 40 40 41 41 41 40 41 41 43 44 46 48 50 49 49 49 50 50 51 51 52 53 54 54 53 52 52 51 49 48 43 41 40 39 39 39 38 39
39 38 37 36 39 39 39 40 40 40 39 39 40 42 44 46 46 46 46 48 47 48 47 47 47 47 48 49 49 49 48 49 46 43 42 40 39 39 38 37 36 36 37
38 37 37 36 38 38 39 39 39 38 38 38 39 40 41 42 42 42 41 42 43 43 41 40 40 40 41 43 42 42 43 42 42 41 39 39 37 36 36 36 36 36 36
37 36 36 36 37 38 38 38 38 37 38 38 38 38 40 40 40 40 40 40 39 38 37 36 36 36 36 37 38 38 37 37 37 37 37 37 36 35 35 36 34 34 33
36 36 35 35 35 36 36 37 37 37 37 37 38 38 39 38 38 38 39 39 39 38 38 37 37 37 37 37 37 36 36 36 35 36 36 36 37 36 36 34 33 33 32
35 35 35 35 35 35 35 35 37 36 37 36 37 37 37 37 38 38 38 38 38 39 39 38 38 38 38 39 38 36 35 34 34 33 33 34 37 38 38 38 37 34 33
35 34 34 35 34 35 36 36 37 36 36 35 36 36 36 35 36 36 36 36 36 36 36 37 38 38 38 39 38 37 33 33 32 32 32 33 34 34 33 37 37 36 35
35 35 34 34 34 35 36 37 37 36 36 35 35 35 35 35 35 36 35 35 35 34 34 34 35 36 37 38 37 35 31 31 32 32 32 31 31 32 31 31 31 30 29
35 34 35 34 34 33 36 36 37 37 36 35 34 34 34 35 35 35 34 34 33 33 33 33 33 33 34 36 35 31 28 29 30 31 31 31 31 31 28 26 27 26 25
35 35 35 34 34 35 37 36 36 36 35 35 35 35 36 35 34 34 33 34 32 32 32 32 32 32 28 31 28 29 29 28 27 25 24 22 22 24 25 26 25 25 22
36 36 36 35 35 37 37 36 36 34 36 36 36 35 35 35 34 34 33 33 31 29 23 28 31 31 27 27 29 26 23 20 19 18 18 23 25 27 27 27 24 23 24
37 37 37 36 36 38 37 36 35 36 35 35 35 35 35 35 34 33 32 27 27 21 19 19 19 21 24 27 27 27 25 25 21 20 22 26 27 25 25 24 23 23 22
37 38 38 37 36 37 36 35 34 34 32 31 30 29 27 27 27 21 17 16 15 15 14 14 14 11 12 18 22 23 24 24 23 23 24 24 23 22 19 19 19 20 17
37 37 38 37 36 36 35 34 32 31 31 19 15 14 14 14 14 15 14 14 13 12 10 9 10 10 12 17 21 22 22 25 24 24 23 21 19 14 14 14 13 14 14
37 37 37 36 36 35 34 32 32 27 17 15 15 15 14 11 17 23 24 16 18 19 11 15 13 13 16 21 22 22 22 22 23 22 19 16 10 12 12 13 14 15 16
37 37 37 37 36 33 33 31 25 18 16 14 15 15 16 18 20 21 21 24 24 22 22 21 19 19 19 21 22 23 23 24 23 18 15 11 14 15 14 15 17 20 21

GFSMW_sfc_dewp_045.txt.gz
Dewpoint
29 33 32 33 34 35 36 37 38 39 43 50 62 64 64 64 63 65 65 65 65 63 60 60 59 62 62 61 61 59 53 48 46 41 38 37 36 37 41 42 42 45 46
29 32 36 38 39 40 41 40 39 39 39 43 45 57 64 64 65 65 65 65 65 65 64 62 60 60 61 61 61 59 53 51 46 43 37 34 36 36 34 41 40 40 41
27 33 38 40 42 43 44 45 43 41 41 39 40 42 47 60 62 62 62 63 64 64 64 63 62 61 60 60 61 60 57 53 50 46 43 39 37 36 35 34 41 40 39
33 38 40 41 43 45 46 47 47 45 41 40 39 38 40 43 55 61 63 63 64 64 64 64 63 62 61 60 59 60 58 55 51 49 43 47 42 37 35 38 38 41 37
36 39 41 42 45 46 47 46 45 44 43 42 42 39 39 41 45 47 54 61 63 64 63 63 63 62 62 62 60 59 57 55 54 50 48 46 43 39 37 36 40 43 41
36 40 42 42 44 45 45 45 44 43 44 44 43 43 42 41 41 42 44 48 56 60 63 63 63 62 61 62 61 60 59 57 54 50 49 47 46 44 41 42 42 43 42
36 39 42 42 43 43 43 43 43 43 43 44 44 44 44 44 44 44 44 45 47 54 58 61 61 60 60 60 60 60 60 59 56 52 50 49 49 48 46 44 41 40 41
37 41 41 41 41 42 43 43 43 42 43 43 44 44 44 46 47 47 47 48 50 53 55 56 59 59 59 59 61 59 58 57 56 55 52 51 50 50 47 47 44 41 39
40 41 40 40 41 42 42 42 42 42 42 42 42 42 43 45 47 49 50 51 51 51 52 53 54 57 58 58 58 59 59 57 55 55 54 52 51 50 48 49 48 45 42
40 39 38 39 41 41 41 41 41 40 40 40 41 42 44 46 49 49 48 49 49 50 50 50 51 52 53 55 56 57 55 56 55 54 53 50 48 48 47 46 45 46 44
39 38 37 39 39 39 40 40 40 39 38 39 40 42 44 46 46 46 47 47 48 47 47 48 48 48 49 50 50 51 52 52 51 50 50 46 45 43 41 41 42 42 43
39 38 37 38 39 39 39 39 39 39 38 38 39 40 41 41 41 41 41 43 42 40 39 39 40 40 43 44 47 47 47 47 45 45 43 41 40 39 39 39 38 39 39
38 37 36 38 38 38 38 38 38 37 37 38 38 39 39 39 39 40 40 39 39 37 37 36 36 36 38 39 40 40 40 41 41 41 40 39 38 37 37 37 37 37 38
37 36 36 37 37 37 37 38 38 37 37 38 38 38 38 38 38 39 39 39 38 37 37 36 36 37 37 37 37 37 37 37 37 37 37 37 37 36 36 36 35 34 34
36 36 35 35 35 35 36 37 37 37 37 37 37 38 38 38 38 38 38 38 39 38 38 38 38 38 38 37 35 35 35 35 36 36 36 37 37 37 36 35 34 34 33
35 35 35 35 35 35 35 36 37 36 37 36 37 37 37 36 37 37 37 38 38 38 38 38 38 37 37 38 38 35 34 34 34 33 34 35 36 38 39 38 36 35 34
35 34 34 34 34 35 36 37 37 37 37 36 36 35 36 36 36 36 36 36 36 36 35 36 37 37 37 38 38 37 33 33 32 33 33 33 34 33 32 36 37 36 37
35 34 34 34 34 36 37 37 37 36 35 35 35 35 36 36 36 36 36 35 35 34 34 34 35 36 37 38 36 35 28 29 30 31 29 31 30 32 31 31 31 30 28
35 34 34 33 34 35 37 37 36 36 36 35 35 35 36 35 35 35 34 34 33 32 32 33 33 33 34 34 33 29 24 25 26 28 29 28 29 29 25 27 27 26 25
35 34 34 34 34 36 37 36 36 35 35 35 35 36 36 35 34 34 33 33 33 32 32 31 26 30 23 28 28 28 27 24 25 25 22 24 24 26 27 26 23 23 22
35 35 34 34 35 36 36 36 36 34 36 36 35 35 35 34 34 33 33 32 26 23 27 29 30 26 25 27 29 26 22 19 18 18 20 24 26 27 27 26 23 23 24
36 36 35 36 37 37 36 35 35 36 36 36 36 35 34 34 33 32 30 26 24 20 20 20 19 20 22 25 26 25 25 25 21 21 24 25 26 24 24 22 22 21 22
36 37 36 36 36 37 36 35 35 35 34 33 32 32 32 32 31 29 27 20 17 15 14 15 13 10 12 17 24 25 24 25 22 23 25 24 23 22 19 19 19 18 15
37 38 37 36 35 36 36 35 34 34 32 30 24 15 14 14 14 14 15 14 13 12 10 9 10 11 14 20 22 22 22 24 23 23 22 22 21 16 14 14 14 14 14
38 38 37 37 36 36 35 34 33 32 30 17 14 15 15 13 21 23 15 16 18 16 11 15 13 12 16 20 22 22 22 22 23 22 17 15 11 13 13 13 15 17 18
38 37 38 37 37 36 35 33 33 29 18 15 16 15 14 14 20 22 21 24 24 22 22 23 19 19 20 22 22 23 24 24 24 19 15 13 15 15 14 15 17 19 20

GFSMW_sfc_dewp_048.txt.gz
Dewpoint
32 33 33 33 37 38 37 38 38 39 52 62 63 63 64 64 63 64 65 65 65 64 60 60 60 61 61 61 61 60 57 52 47 43 41 39 38 38 42 43 50 51 50
30 34 37 39 40 41 42 41 40 40 39 42 45 58 63 63 64 64 64 64 64 64 64 61 60 60 61 61 60 60 57 56 50 48 39 40 39 37 36 40 42 45 49
30 35 39 41 42 44 45 46 46 44 41 39 40 42 44 57 61 61 62 63 64 64 63 63 62 60 60 61 61 60 58 57 52 50 48 38 40 38 37 35 39 41 42
30 38 40 41 43 45 46 46 46 44 43 42 40 38 39 40 48 58 61 62 62 63 63 63 63 62 61 60 60 61 60 57 54 50 49 49 43 39 41 38 36 40 39
37 39 41 42 45 46 45 45 44 44 44 43 43 42 41 41 42 44 45 49 55 61 63 63 63 62 61 61 60 58 58 58 58 50 49 48 46 43 41 40 40 45 43
38 41 42 45 44 44 44 43 43 43 44 45 45 44 44 44 44 43 43 44 47 53 57 61 62 62 61 60 60 59 57 58 57 56 53 49 47 47 43 40 42 41 45
38 41 42 42 43 43 43 43 43 43 43 43 44 44 44 45 46 45 46 47 48 52 53 55 57 59 59 60 59 58 58 57 57 56 54 53 50 50 48 48 46 43 44
37 41 41 41 42 42 43 42 42 42 42 42 42 43 43 44 47 48 49 50 50 51 52 53 54 56 57 57 58 58 57 58 57 57 54 53 52 51 50 48 46 43 41
39 41 40 41 42 42 41 41 41 40 40 40 41 42 44 45 48 48 48 49 49 50 50 50 51 52 53 55 56 58 57 55 55 54 55 53 52 51 51 50 49 48 44
41 39 39 41 41 40 41 41 40 39 39 39 40 43 44 48 48 47 46 47 47 47 47 47 48 48 50 51 52 54 54 53 54 54 54 53 50 49 48 48 47 47 47
40 38 39 40 39 40 40 39 39 38 38 38 39 41 42 43 43 42 43 44 41 40 40 42 43 44 45 46 47 47 47 48 49 48 49 47 46 45 44 44 43 43 43
39 38 38 39 39 39 38 38 38 38 37 38 39 40 40 40 40 40 39 39 38 37 37 37 37 38 40 40 42 43 43 44 44 43 43 41 41 40 39 40 39 40 40
38 37 38 38 38 38 38 37 37 37 37 38 38 39 38 39 38 39 39 38 37 37 36 37 37 37 37 37 38 39 39 39 39 39 40 39 39 38 38 38 37 37 38
37 36 37 37 37 37 37 37 37 37 37 37 38 37 37 38 38 38 38 39 38 37 37 37 38 38 36 36 36 36 35 36 37 37 37 37 37 36 36 36 35 35 35
36 36 36 36 35 35 36 36 37 37 38 37 38 38 38 38 38 38 38 38 38 38 38 37 37 37 37 36 34 34 34 34 35 36 37 38 38 38 37 35 34 34 33
36 36 35 35 35 35 35 37 37 36 37 36 37 37 37 37 37 37 37 37 37 37 37 37 36 37 36 38 38 35 34 34 34 33 33 35 36 37 40 39 38 37 34
35 35 35 35 35 35 36 37 37 37 36 36 36 36 36 36 37 37 37 36 36 36 36 36 37 37 37 38 37 36 33 33 32 31 29 31 32 32 33 35 36 36 37
35 35 34 34 35 36 37 37 37 36 35 35 35 36 36 36 36 36 35 35 34 34 34 34 35 36 36 37 36 34 26 24 22 23 22 22 26 31 31 28 27 27 27
35 35 34 34 35 36 37 37 36 36 35 35 35 35 36 36 35 34 34 33 32 32 33 33 33 33 28 31 31 27 19 22 22 25 26 25 25 25 27 25 25 24 23
35 34 33 34 34 36 37 36 36 35 35 35 35 36 36 35 34 33 33 33 32 32 29 24 21 29 20 29 29 26 24 22 22 20 19 27 26 28 29 25 23 22 22
34 34 34 33 35 36 36 35 36 35 36 35 36 36 35 34 33 33 32 29 28 29 29 29 30 23 24 26 27 26 22 19 19 19 21 24 28 27 26 25 22 23 24
35 34 34 35 36 36 35 35 34 36 36 36 35 35 33 33 32 31 30 26 22 21 22 22 19 18 19 25 24 25 25 25 21 22 24 24 26 24 24 21 21 20 21
35 35 35 35 36 36 35 34 35 35 35 34 34 32 31 32 30 27 26 26 23 17 16 16 13 10 11 17 26 26 26 27 23 23 25 26 25 23 19 19 18 18 14
36 36 36 35 36 36 36 34 34 34 33 31 30 29 28 26 24 20 17 16 15 13 11 9 10 11 13 20 21 22 21 24 23 23 21 19 20 16 15 14 14 14 14
38 37 36 36 36 36 36 34 34 34 31 29 25 16 15 16 14 15 12 13 15 12 10 12 12 12 15 18 22 22 22 22 24 22 17 13 10 14 13 14 16 18 20
39 38 37 37 37 36 36 35 34 33 31 24 16 16 16 14 20 23 23 24 24 23 22 23 18 18 21 22 22 23 23 24 24 20 15 12 14 15 14 15 15 17 19

GFSMW_sfc_dewp_051.txt.gz
Dewpoint
31 33 34 34 37 37 38 39 44 40 60 62 62 62 63 63 63 64 64 65 65 62 60 60 60 61 61 60 60 59 58 57 50 46 44 41 40 39 40 42 48 53 53
31 35 36 37 38 40 40 40 40 40 39 45 49 60 62 63 63 63 64 64 64 64 63 61 60 60 60 60 60 59 57 56 52 51 45 46 45 39 38 39 42 45 53
30 35 38 40 42 43 44 45 44 43 41 39 40 41 42 52 60 61 62 63 64 64 63 63 62 60 59 60 60 59 58 58 52 51 54 44 43 41 40 36 38 41 46
31 36 39 41 43 45 46 45 44 43 43 42 40 38 38 39 43 49 53 51 59 61 62 62 62 62 60 59 60 60 60 57 56 49 51 50 45 45 44 41 37 37 41
31 37 40 42 45 46 44 43 44 44 44 44 43 42 42 42 43 43 43 44 46 50 57 60 61 61 60 60 59 58 58 58 59 54 49 50 48 45 46 49 47 44 46
35 40 41 45 44 44 43 43 43 43 44 45 44 44 44 44 44 44 44 46 47 52 53 55 58 60 60 59 59 58 57 58 58 58 55 52 49 49 46 45 47 45 46
39 41 43 43 43 42 43 43 43 42 42 42 42 43 43 44 45 46 46 47 50 51 51 52 53 56 60 60 59 57 57 57 57 56 56 54 54 53 50 49 48 46 46
40 41 42 42 42 42 42 42 42 41 41 41 41 42 44 45 47 48 49 49 49 50 50 50 51 52 54 56 56 56 56 56 57 56 54 53 54 52 51 50 48 45 43
39 41 41 42 42 41 41 41 40 40 40 40 41 43 45 46 47 46 47 47 47 48 48 48 48 49 51 52 56 58 57 56 55 56 55 53 51 50 51 51 50 48 44
40 40 40 41 41 41 41 39 39 38 38 39 41 42 43 45 45 45 45 44 43 42 43 45 45 46 46 48 49 50 51 52 51 51 52 52 50 49 49 48 48 48 47
40 39 40 40 40 40 39 39 38 37 37 38 40 40 41 41 40 41 41 39 38 38 38 39 40 41 41 42 44 44 45 46 46 45 45 43 44 43 43 43 43 43 43
39 38 40 39 39 38 38 38 38 37 37 38 39 39 39 39 39 39 38 38 37 37 37 37 37 38 38 39 39 40 40 40 40 42 42 40 41 40 40 40 39 39 40
38 37 39 38 38 38 37 37 37 36 37 38 38 38 38 38 38 38 38 37 37 37 37 37 37 36 36 36 36 37 37 38 38 37 37 37 38 37 38 37 37 37 37
38 37 38 38 38 37 37 37 37 36 37 38 37 37 37 37 37 38 38 38 38 37 37 37 37 37 35 35 35 35 34 35 36 37 37 36 36 36 36 35 35 35 35
37 36 37 37 37 36 37 36 37 37 38 38 37 37 38 38 38 37 38 38 37 37 36 36 36 36 36 37 34 34 35 35 36 36 36 38 40 39 38 35 34 34 34
37 36 36 36 35 35 35 36 37 36 37 37 37 37 37 37 37 37 37 37 36 37 37 37 35 36 35 38 37 36 35 34 34 33 33 34 35 36 39 39 38 37 33
37 36 35 35 35 35 35 36 37 37 37 36 36 36 36 37 37 37 36 35 35 36 36 36 37 37 36 37 37 35 33 32 28 26 25 30 31 31 28 31 32 31 32
36 35 35 35 35 36 37 37 37 36 36 36 36 36 36 36 37 36 35 34 34 34 34 34 34 33 34 35 35 33 23 23 25 24 18 19 21 25 27 25 25 26 24
36 35 35 35 35 36 36 36 36 36 36 35 35 36 36 36 36 34 33 33 33 33 33 32 29 24 25 31 30 26 18 21 21 23 22 22 24 28 30 25 24 24 23
35 35 34 34 35 36 36 36 36 36 35 35 36 36 37 36 34 33 33 33 32 31 27 23 20 28 19 29 27 24 21 18 18 18 20 27 27 28 28 24 23 22 22
34 34 34 34 35 36 36 36 36 35 36 36 36 36 35 34 33 33 32 31 29 29 27 25 22 21 24 25 27 28 22 19 19 20 22 24 27 27 26 25 21 22 23
35 34 34 34 35 36 36 35 35 36 35 36 35 35 34 33 32 31 29 25 23 23 23 22 20 17 17 25 25 25 25 25 21 22 22 24 27 25 24 20 21 22 21
35 34 34 35 35 36 35 35 34 35 35 35 34 32 32 32 31 28 26 24 22 18 18 17 15 10 11 16 26 26 26 25 23 23 24 24 23 25 21 19 19 18 14
35 35 35 35 35 35 35 34 35 35 35 34 32 31 30 30 28 28 26 23 19 15 13 11 10 10 11 17 21 22 21 24 23 23 21 20 17 16 16 15 14 15 15
38 36 35 35 35 36 35 34 34 34 32 31 30 29 28 29 20 17 16 15 13 13 11 11 10 11 12 17 22 23 22 22 24 23 19 13 10 14 12 14 15 17 19
39 38 38 38 37 36 36 35 34 34 31 30 29 23 17 18 16 19 21 22 22 27 25 20 17 15 20 22 23 23 23 24 25 21 17 14 14 14 11 13 14 16 18

GFSMW_sfc_dewp_054.txt.gz
Dewpoint
35 33 33 34 37 39 46 54 60 58 62 62 62 61 62 62 62 63 64 64 62 60 60 60 60 60 60 60 59 58 58 56 53 51 51 47 45 43 42 41 45 49 54
31 33 34 36 37 38 39 39 40 39 48 56 58 61 61 61 62 62 63 63 63 64 63 60 60 60 60 59 59 58 56 56 52 54 48 51 50 43 41 40 41 42 51
31 33 36 37 40 41 42 42 42 41 41 39 40 41 42 48 57 60 61 62 63 63 63 63 62 60 59 59 59 58 58 58 52 51 56 48 48 45 45 39 39 39 44
30 33 37 40 42 44 45 44 43 43 42 42 40 38 38 38 41 44 46 45 49 54 60 61 62 62 60 59 59 59 59 57 58 51 52 52 48 49 49 45 39 37 38
31 33 37 40 43 45 44 43 44 44 45 44 43 42 42 43 43 43 44 44 46 49 53 55 57 59 60 61 59 58 57 57 58 56 52 52 49 47 48 50 51 46 45
30 33 39 44 45 44 43 43 43 44 44 44 44 44 44 44 45 45 45 46 48 52 51 52 53 57 58 59 60 59 58 57 58 58 55 52 51 49 47 47 47 49 47
30 38 42 44 43 42 43 43 43 42 42 42 42 43 43 44 45 46 46 47 49 50 50 50 51 52 54 58 60 59 59 57 57 57 57 55 55 53 51 50 49 48 47
36 39 43 43 42 42 42 42 41 40 40 41 42 43 44 45 47 48 48 48 48 49 49 48 49 49 51 53 57 58 58 57 57 57 56 55 52 53 50 50 47 47 45
40 42 42 42 42 42 41 41 40 39 39 40 42 43 45 45 46 46 46 46 45 46 45 46 46 47 48 49 54 55 55 56 55 55 55 54 53 51 51 51 50 49 44
41 41 41 41 41 41 40 39 39 38 38 39 41 41 42 43 43 44 43 41 40 40 40 41 42 42 43 45 47 49 50 50 49 50 48 47 47 47 46 47 47 47 46
41 40 41 40 40 40 39 38 38 37 37 38 39 40 40 40 40 40 39 38 37 38 38 39 39 39 39 40 42 42 43 45 44 43 43 42 43 42 42 43 43 43 43
40 39 40 39 39 38 38 37 37 37 37 38 38 39 39 39 38 38 38 37 37 37 37 37 37 37 37 37 38 38 39 39 38 39 40 39 40 40 40 40 39 39 40
39 39 39 39 38 38 37 37 37 36 37 38 37 37 37 37 37 37 37 37 37 37 37 37 36 35 35 35 35 35 36 36 36 35 35 35 35 34 36 37 37 37 37
38 38 38 38 38 38 37 37 36 36 37 38 37 36 36 37 36 37 37 37 37 36 36 36 37 36 35 35 35 35 35 36 36 37 38 37 35 33 33 34 35 34 35
38 37 37 38 37 36 37 37 37 37 37 38 37 37 37 37 37 38 38 37 37 36 36 36 37 36 37 36 35 35 36 36 35 35 36 37 39 39 38 36 35 35 34
38 37 37 37 36 35 36 36 36 37 38 38 38 38 37 38 37 37 37 37 36 37 37 37 36 36 36 38 37 36 34 33 32 32 32 33 33 33 37 36 37 36 32
38 37 37 37 36 35 35 36 36 37 37 37 37 37 37 37 37 36 36 35 36 36 36 37 36 35 36 37 36 35 31 25 23 24 24 28 30 28 25 29 30 30 31
38 37 36 36 35 35 36 36 36 36 36 36 36 37 37 37 37 36 35 34 35 35 34 33 30 31 33 35 34 31 20 24 25 19 16 17 19 25 26 25 25 25 23
38 37 36 35 35 35 36 36 36 36 36 35 36 36 37 36 36 34 34 34 33 33 32 30 25 23 24 30 30 25 17 21 20 21 23 24 25 29 30 25 24 22 23
36 35 35 35 35 35 36 35 35 36 35 35 36 37 37 36 34 34 33 33 33 32 28 24 22 27 19 28 26 23 20 17 17 19 21 27 27 27 27 24 22 20 21
35 34 35 35 35 36 36 35 35 35 36 36 36 37 36 35 33 33 33 32 29 24 20 21 20 20 23 24 27 28 21 19 19 20 22 23 27 26 25 25 19 21 22
35 34 34 35 36 36 36 35 35 36 36 36 36 35 34 34 32 32 30 29 27 26 26 23 21 18 16 23 26 25 26 26 21 21 22 24 26 26 25 20 20 21 17
34 34 34 34 35 36 36 35 35 35 35 35 34 34 33 32 31 29 27 25 23 22 21 19 16 12 10 14 25 26 25 25 23 23 24 25 22 22 19 18 19 18 14
34 34 34 34 35 35 35 35 35 35 34 34 33 32 32 31 30 27 25 25 23 19 15 14 13 11 10 13 19 21 21 23 23 23 22 22 17 16 16 14 15 16 17
36 35 35 35 35 35 35 34 35 35 33 33 32 31 32 32 28 27 25 24 19 17 13 12 10 10 10 14 20 22 22 22 23 24 20 16 11 13 11 13 15 16 17
38 37 37 38 37 36 36 35 34 34 33 31 30 30 29 27 25 20 16 23 23 23 24 22 15 13 17 21 23 23 23 23 25 22 19 16 14 13 10 11 12 14 16

GFSMW_sfc_dewp_057.txt.gz
Dewpoint
40 37 36 35 36 44 54 62 62 63 64 64 63 63 62 63 64 63 63 63 62 62 63 63 63 63 62 61 61 61 60 60 59 58 58 57 55 55 54 53 51 50 49
35 34 35 36 37 39 44 48 58 58 62 63 63 64 64 64 64 65 64 64 64 65 64 63 62 61 61 61 61 61 60 60 58 59 55 55 54 51 50 49 47 46 45
36 33 34 36 40 41 42 42 43 42 44 49 47 47 48 51 59 62 63 61 59 64 65 65 65 64 62 61 62 61 60 60 58 58 59 53 51 50 50 46 44 43 43
34 34 35 37 41 43 46 45 44 43 43 43 41 41 43 43 43 45 46 45 46 48 54 61 63 64 63 62 62 61 61 60 59 56 55 56 52 52 51 51 46 40 40
36 33 35 39 42 46 46 45 45 45 45 45 44 43 43 44 45 45 45 47 49 53 54 55 56 58 58 59 60 60 60 60 60 58 56 56 53 50 51 51 53 51 50
36 35 36 42 45 46 45 46 45 45 45 45 45 45 45 45 46 46 47 47 49 53 52 52 53 55 57 57 58 58 60 60 60 60 58 55 53 53 49 49 49 50 51
34 33 38 43 45 44 45 45 44 43 43 43 43 44 44 45 45 46 47 48 50 51 51 51 51 52 53 55 58 60 60 59 58 59 58 57 56 54 52 52 52 50 50
30 34 39 43 44 44 44 43 42 41 42 42 43 44 45 45 47 49 50 49 49 49 48 49 49 49 50 52 56 58 59 58 58 58 58 57 56 54 53 53 51 48 47
32 36 42 43 43 43 43 42 41 40 41 42 43 44 47 47 48 47 48 47 45 44 44 45 46 46 47 50 53 54 55 53 53 54 54 54 52 52 52 52 52 50 46
38 42 42 42 42 42 42 41 40 40 40 41 42 43 44 45 45 46 43 41 40 40 41 42 42 42 44 46 49 50 50 49 49 49 49 48 48 47 47 48 48 49 48
40 42 42 41 41 41 40 39 39 38 38 40 41 42 41 41 41 40 39 39 38 39 39 39 40 40 40 42 44 45 45 44 44 44 44 43 43 43 43 44 44 45 45
41 41 41 40 40 39 39 38 38 38 38 39 40 40 40 40 39 38 38 38 38 38 38 37 37 38 38 38 40 40 40 40 39 40 40 40 40 40 40 41 41 40 40
40 40 40 39 39 39 38 38 38 37 37 39 39 38 38 38 38 38 38 38 38 38 38 37 36 36 36 36 37 38 38 38 37 37 37 37 37 37 38 38 38 38 38
39 40 39 39 39 38 38 38 37 37 38 38 38 38 38 38 38 38 38 38 37 37 37 37 37 36 36 36 36 37 37 37 38 39 39 37 36 36 37 37 37 37 37
38 39 39 39 38 38 38 38 37 37 38 38 38 37 38 38 38 38 38 37 37 37 36 36 37 37 37 36 36 36 36 36 35 35 36 36 39 39 38 36 36 36 36
38 38 39 38 38 38 37 37 37 37 38 38 38 38 38 38 38 38 37 37 37 37 37 36 36 36 36 37 38 35 34 33 34 34 33 32 31 33 35 36 36 35 33
37 38 38 38 38 37 37 37 37 37 38 38 38 37 37 37 38 37 36 36 37 37 37 36 35 36 36 37 36 34 29 29 30 31 32 31 29 28 28 29 29 30 31
37 38 38 38 37 36 36 37 37 37 37 37 37 37 37 37 37 36 36 36 36 35 34 33 33 34 35 35 33 30 28 27 27 27 26 29 29 31 27 27 26 25 28
36 38 38 37 36 36 36 37 36 37 36 36 36 37 37 37 36 35 35 35 35 34 32 30 30 30 32 31 30 27 26 25 24 24 26 27 27 29 28 25 24 20 23
38 37 36 36 35 36 36 36 36 36 36 36 37 37 37 36 35 34 34 34 33 33 30 29 27 30 28 28 27 24 18 17 17 20 22 27 27 26 28 24 20 20 22
36 35 36 36 36 36 36 36 35 36 36 36 37 37 37 36 34 34 33 33 32 29 28 28 25 25 27 26 30 27 19 19 19 20 21 23 27 25 24 25 18 20 23
35 35 35 35 36 36 36 36 35 36 36 36 36 36 35 35 33 33 32 31 29 27 26 25 23 21 18 23 27 27 28 27 21 20 22 24 24 23 25 21 19 23 16
34 34 35 35 36 36 36 36 36 36 35 35 35 34 34 33 32 30 29 28 26 25 24 22 18 14 11 13 24 27 26 26 24 22 24 24 21 19 17 18 19 17 14
34 34 34 34 35 36 36 35 35 35 35 35 34 33 32 31 30 29 28 26 24 21 18 17 16 15 10 11 16 20 22 23 23 23 24 23 19 16 16 13 14 15 16
35 35 34 34 34 35 35 35 35 35 34 34 33 32 32 32 30 29 26 25 24 21 17 16 13 12 11 11 16 21 21 23 23 25 22 20 16 13 10 11 13 15 15
37 37 37 37 37 36 36 36 36 35 34 33 33 32 32 32 31 28 26 30 29 27 27 23 16 12 15 18 24 27 26 24 24 23 21 20 16 14 11 10 10 12 15

GFSMW_sfc_dewp_060.txt.gz
Dewpoint
42 42 41 38 37 41 60 62 64 64 64 65 64 63 63 64 64 64 64 64 63 63 63 63 63 64 63 63 62 62 62 61 61 60 59 60 59 59 58 57 57 56 55
41 42 39 38 37 38 46 59 61 63 64 64 64 64 64 64 63 65 64 64 64 64 64 64 64 64 64 63 63 63 62 62 62 60 60 57 53 54 55 55 54 53 52
40 41 37 37 40 40 41 46 53 60 62 64 63 62 61 61 63 64 65 65 62 65 65 65 65 66 65 64 64 64 63 62 63 61 60 57 50 53 53 54 51 50 49
40 39 37 37 39 42 45 45 46 47 49 54 58 59 60 60 55 53 50 49 47 48 50 57 62 64 64 63 63 63 63 62 60 60 59 60 57 55 53 54 53 48 47
40 39 38 39 39 45 48 47 45 44 44 44 44 45 44 44 45 45 46 47 49 52 53 53 54 55 57 58 59 59 59 61 61 60 58 58 58 56 55 52 54 55 52
38 38 39 39 41 47 48 48 45 45 46 46 45 45 46 45 45 46 46 47 48 52 52 52 53 55 56 57 57 57 58 58 58 60 60 57 55 55 54 53 53 52 53
35 36 38 39 41 46 47 47 45 45 45 45 45 46 46 46 46 46 46 47 48 50 52 51 52 52 53 54 56 57 57 58 59 58 59 59 58 56 53 53 52 52 52
28 33 37 39 42 46 46 45 44 43 44 44 44 45 45 46 46 48 48 49 49 49 49 49 49 50 50 51 54 55 58 59 60 59 59 58 58 56 55 54 53 51 50
29 31 35 38 42 45 45 44 43 43 43 43 44 44 46 46 47 49 49 49 47 44 45 46 46 47 48 50 52 54 55 55 55 54 54 53 51 53 54 54 53 52 48
30 32 34 40 42 44 44 44 43 42 42 43 43 44 45 47 48 48 47 45 43 43 43 44 44 44 46 48 50 51 50 51 51 51 50 49 49 49 50 51 51 50 50
33 37 39 41 43 43 43 42 41 41 41 41 42 43 43 44 45 45 44 42 41 41 41 42 42 42 43 45 47 47 46 46 46 46 46 45 46 46 46 48 47 47 48
38 40 41 42 42 41 41 41 41 40 40 40 41 41 42 42 42 42 41 40 40 40 40 39 40 40 41 42 43 43 43 43 43 42 43 42 42 43 43 44 44 44 44
40 41 42 42 41 41 40 40 40 40 39 40 40 40 40 41 41 40 40 40 40 40 39 38 38 38 39 40 40 40 40 40 39 39 39 39 40 40 41 41 41 41 40
40 41 41 41 41 41 41 40 40 39 39 39 39 39 39 40 40 40 39 39 39 39 39 39 38 37 37 38 39 39 39 39 39 39 39 38 38 38 39 39 39 39 40
37 40 41 41 41 41 41 40 40 39 39 39 39 39 39 39 39 39 39 38 38 38 38 37 38 37 37 37 38 38 38 37 37 37 37 38 39 38 38 37 38 38 38
33 37 40 41 41 40 41 40 40 39 39 38 38 39 39 39 39 39 38 38 38 37 37 37 37 36 37 39 38 37 36 36 35 35 35 34 34 35 36 35 35 33 35
34 34 37 40 41 40 40 40 40 39 38 38 38 38 38 38 39 38 37 37 38 38 37 37 37 36 37 37 37 35 34 35 35 35 35 31 28 30 30 29 29 31 31
34 34 36 39 40 40 40 40 40 38 38 38 38 38 38 38 38 37 37 37 37 37 36 36 37 36 35 36 33 31 33 33 32 32 33 34 33 31 27 26 26 26 27
34 33 35 38 40 39 40 39 39 38 38 37 38 38 38 38 37 36 36 36 36 35 35 34 34 36 35 32 29 31 33 30 29 28 27 26 28 30 27 24 24 19 23
34 36 38 38 39 38 38 38 38 38 37 37 38 38 38 37 37 36 35 36 35 34 33 34 34 32 35 30 28 25 19 19 16 19 23 27 27 27 29 24 19 17 20
37 37 38 38 39 38 38 38 38 38 38 37 38 38 38 37 36 35 35 35 34 33 33 33 32 31 30 27 27 24 17 16 16 17 18 21 27 26 25 27 17 21 22
37 37 38 38 38 38 38 38 37 37 37 37 37 37 37 36 35 34 34 33 32 30 28 26 25 25 24 27 29 30 27 24 19 18 19 21 26 23 25 25 20 23 19
36 36 37 37 37 37 37 36 36 36 36 36 36 36 36 34 34 32 31 30 30 30 26 24 22 20 17 17 28 29 30 30 22 20 20 25 23 19 19 19 19 21 13
35 35 36 36 36 36 36 36 36 36 36 35 35 35 34 33 32 31 30 31 28 26 22 22 19 16 12 11 14 24 26 26 24 25 25 24 22 18 16 16 15 13 13
36 36 36 35 35 36 36 36 36 36 36 35 35 34 33 33 31 31 31 30 25 23 20 18 16 15 13 12 15 18 19 20 22 24 24 23 20 17 12 11 11 12 12
37 36 37 37 37 37 36 36 36 35 35 34 34 34 33 33 31 31 31 31 28 28 28 25 20 15 17 17 22 24 24 28 28 25 23 21 20 15 11 9 9 10 14

GFSMW_sfc_dewp_063.txt.gz
Dewpoint
38 43 43 42 40 53 60 62 64 64 64 65 64 64 64 64 63 63 63 63 62 62 63 63 63 63 62 62 61 61 61 62 63 62 61 61 60 60 59 58 57 57 58
37 43 42 41 39 39 52 60 62 64 64 65 65 65 64 64 63 65 64 64 63 63 63 63 63 64 64 62 62 62 62 62 63 61 61 58 57 55 57 57 56 56 56
36 40 41 41 42 41 41 52 60 62 63 64 65 65 65 65 64 64 64 64 64 64 65 66 66 66 66 65 65 65 64 62 62 62 61 57 53 54 56 56 56 54 54
37 41 41 39 41 42 45 44 49 57 61 63 63 62 61 61 61 61 62 60 53 53 54 58 62 64 65 64 64 64 64 63 61 61 61 61 59 56 53 55 56 55 51
38 41 41 41 40 45 49 48 46 48 50 53 58 60 60 59 52 49 47 46 48 50 52 51 53 55 56 57 58 59 59 60 60 60 59 59 59 58 56 53 54 56 55
38 40 41 41 41 48 50 50 46 45 46 47 47 49 50 46 47 48 48 47 47 50 52 52 52 53 54 55 57 58 58 57 56 57 57 57 56 55 54 54 54 54 54
33 36 38 40 41 47 49 49 46 46 45 46 46 45 47 46 46 47 48 46 46 49 51 52 51 51 52 53 54 56 57 55 56 56 57 57 57 57 55 53 52 52 53
28 30 34 40 42 47 48 46 45 45 45 45 44 45 46 46 46 47 47 47 47 48 50 49 49 49 49 50 51 54 56 57 58 59 59 59 58 58 55 54 53 50 51
26 29 32 34 38 43 46 46 44 44 45 44 44 44 45 46 46 47 48 48 48 47 45 46 47 47 47 48 49 52 53 55 55 54 53 52 51 51 53 54 54 52 48
31 30 31 33 37 42 45 45 43 43 43 44 44 44 45 46 47 47 47 47 45 44 44 44 45 45 46 47 49 50 51 51 51 52 51 50 50 50 51 51 51 51 51
33 35 36 37 40 43 44 44 43 42 43 43 43 43 44 44 45 45 45 45 43 42 42 42 43 43 43 44 47 48 47 47 47 47 47 46 47 48 48 49 49 49 49
36 38 39 40 41 42 43 43 42 42 42 42 42 42 43 43 43 43 43 42 42 41 41 40 40 41 41 42 43 44 45 45 44 44 45 44 43 44 45 46 45 45 45
34 38 40 40 41 42 42 41 41 42 41 41 41 41 41 42 41 41 41 41 41 41 40 39 39 39 39 40 41 41 41 41 41 41 40 40 41 42 42 43 43 42 41
31 37 40 40 41 42 41 41 41 41 40 40 40 40 40 40 40 40 40 40 40 40 40 39 38 38 38 39 40 40 40 40 40 39 39 38 39 39 40 40 40 40 40
32 33 40 40 41 41 42 41 41 40 40 40 40 40 39 40 40 40 40 39 39 39 39 38 38 38 38 38 39 39 39 39 38 37 37 39 39 39 38 38 38 37 38
31 33 35 40 41 41 42 42 41 40 40 39 40 40 39 39 40 39 39 39 38 38 38 38 37 37 37 39 39 38 38 37 36 35 35 35 36 35 35 35 35 33 34
34 32 34 37 41 41 42 42 42 41 40 39 39 39 39 39 39 39 39 38 38 38 38 37 37 37 36 39 38 37 37 36 36 35 36 32 28 31 30 29 28 32 31
34 35 33 35 37 40 42 43 43 40 39 39 39 39 39 38 38 39 38 38 38 38 38 38 38 37 36 36 35 34 35 33 33 33 33 34 34 31 28 27 27 27 28
35 35 34 34 37 39 42 42 42 41 40 39 39 39 38 38 38 38 38 37 37 36 36 37 37 37 36 33 30 31 33 31 30 30 28 27 29 30 27 26 26 21 25
37 37 37 36 36 39 41 41 40 40 39 39 39 38 38 38 38 38 36 36 36 35 35 34 35 34 36 30 28 28 24 24 20 22 25 27 28 27 29 27 21 19 21
38 38 38 38 38 40 40 40 40 41 40 39 38 38 38 38 38 37 36 36 34 34 34 34 33 33 32 29 29 25 18 17 17 18 20 22 27 26 25 27 22 23 24
37 37 38 39 40 40 40 40 39 39 39 38 38 38 38 37 37 36 35 34 33 32 31 29 27 27 26 29 30 29 26 22 20 19 20 22 26 24 25 27 25 22 24
37 37 38 38 38 39 39 39 38 37 37 37 37 37 36 36 35 34 33 32 32 31 31 27 24 24 24 23 30 30 31 31 26 21 20 23 25 22 22 23 23 23 20
37 36 37 37 37 37 37 37 37 37 36 36 36 36 36 35 34 33 32 31 31 31 30 25 23 22 19 16 19 27 28 30 28 25 27 26 25 23 20 17 19 19 14
38 37 37 37 36 36 36 36 36 36 36 36 36 35 35 35 33 32 31 31 32 32 28 24 23 20 18 17 17 18 23 24 24 24 24 24 23 21 18 16 14 14 14
39 38 38 38 38 36 37 37 37 37 37 36 35 35 34 35 32 31 31 34 34 31 30 27 22 19 21 17 22 22 23 24 24 25 24 23 23 21 17 13 12 13 16

GFSMW_sfc_dewp_066.txt.gz
Dewpoint
38 43 43 40 42 58 61 63 64 64 64 64 64 64 63 63 63 63 62 63 62 62 62 63 63 61 62 61 61 60 60 61 61 62 60 61 61 60 60 60 58 56 56
37 43 43 42 39 42 59 62 63 64 64 64 65 64 64 64 64 64 64 64 64 64 63 63 63 63 63 63 62 63 62 61 62 60 60 57 56 57 57 58 55 54 53
36 42 42 42 42 40 44 59 62 64 64 64 65 65 64 64 64 64 64 64 63 64 65 65 65 65 66 65 65 64 63 62 62 62 60 56 53 54 54 54 54 53 52
38 41 41 42 42 42 43 43 53 62 64 64 64 63 62 62 63 63 63 59 53 53 53 55 60 64 64 64 62 62 62 62 61 61 61 60 59 55 52 53 54 53 50
39 40 41 41 42 45 45 45 45 49 56 61 63 62 61 61 52 50 49 47 48 50 52 51 52 53 54 55 56 57 57 58 57 57 57 56 58 58 56 52 52 55 53
38 39 42 41 42 48 49 48 46 47 48 50 54 57 58 48 47 47 46 47 48 52 52 52 52 53 53 54 55 56 56 56 55 55 55 55 55 55 54 53 52 51 53
35 38 41 42 43 47 49 49 46 45 46 46 46 46 47 45 46 47 47 46 46 49 52 52 51 51 51 52 52 53 55 55 54 55 55 56 55 56 55 54 52 51 53
28 30 32 39 43 47 49 47 46 45 45 46 45 46 47 47 46 47 47 47 48 49 49 49 49 48 48 49 50 52 53 54 55 54 54 56 56 55 54 53 52 50 50
28 27 33 34 36 47 48 47 45 45 45 45 45 45 46 46 46 48 48 48 48 45 44 46 46 46 46 47 48 50 51 53 53 53 53 52 51 52 53 54 54 52 48
33 32 31 34 36 42 47 46 45 44 45 45 44 45 46 47 47 47 47 47 45 44 44 44 44 44 45 46 47 49 50 50 50 51 50 50 50 50 51 51 51 51 50
35 36 37 36 38 43 45 45 44 44 44 44 44 45 45 46 46 46 46 45 43 42 42 42 42 42 42 43 45 47 47 48 47 47 47 46 47 48 47 47 47 46 48
36 38 38 39 41 43 44 43 43 43 43 43 43 44 44 43 44 44 43 43 42 41 41 40 40 40 41 41 42 43 43 45 45 45 45 44 45 44 44 44 42 42 41
32 37 39 39 41 42 43 42 42 42 42 42 41 42 42 42 42 42 42 41 41 41 40 39 39 39 39 40 40 40 41 40 40 40 39 39 41 39 40 40 41 39 41
32 33 39 40 40 41 42 42 41 41 40 41 41 41 41 41 40 41 40 40 40 40 40 39 39 38 38 39 39 40 39 39 39 39 38 38 38 40 39 40 39 39 39
31 31 35 40 41 42 42 42 41 41 40 40 40 40 40 40 40 40 40 40 39 39 39 38 39 39 38 38 39 40 40 39 38 38 38 39 39 39 39 38 37 37 36
34 34 33 39 41 41 42 42 41 41 41 40 40 40 40 39 39 39 39 38 38 38 38 38 38 38 37 39 40 39 38 38 36 35 34 35 35 35 36 36 34 34 34
33 34 34 35 40 41 42 42 42 41 40 40 40 40 39 39 39 39 39 37 37 38 38 38 38 37 38 40 39 39 37 36 35 34 31 30 30 30 28 28 31 31 30
34 35 35 35 36 41 43 43 43 41 40 40 39 39 39 39 39 39 38 37 39 38 38 38 37 37 37 38 37 37 34 33 32 32 31 29 28 28 27 26 26 26 29
36 37 37 36 35 38 43 43 42 41 40 40 39 39 39 38 38 38 37 37 38 37 37 37 37 36 36 35 34 31 29 29 29 29 29 30 31 30 27 26 23 20 26
37 38 38 38 37 37 42 42 41 40 39 40 39 39 39 38 38 37 36 37 37 35 35 34 34 36 33 33 30 29 28 27 25 24 27 27 29 28 29 27 19 18 20
37 38 38 38 39 40 41 41 40 39 40 40 39 39 38 38 38 35 36 36 35 34 33 33 33 31 32 30 30 27 18 18 17 19 20 24 27 26 26 26 24 23 23
38 37 38 39 39 40 40 40 39 40 40 39 39 38 37 38 37 36 35 35 33 32 32 31 29 30 29 31 30 28 24 22 19 19 20 22 27 26 25 27 27 22 24
37 37 37 38 38 38 39 39 39 39 38 37 37 37 37 37 36 35 34 33 33 32 31 30 26 26 26 26 31 33 31 29 26 19 21 23 27 24 22 23 26 23 23
31 37 36 37 37 38 38 38 38 37 37 36 36 37 36 36 35 34 34 33 32 31 31 28 25 24 23 21 23 28 29 31 30 27 25 25 27 26 22 19 19 21 19
33 38 37 37 37 37 37 37 37 36 36 36 35 36 36 36 34 33 32 32 32 32 31 28 25 24 21 19 21 23 26 27 28 26 24 24 24 23 21 19 17 17 15
34 37 39 38 38 37 37 36 36 36 36 36 36 35 35 35 33 32 32 34 34 35 35 33 27 23 24 25 25 24 24 27 27 24 23 23 24 23 21 17 14 14 16

GFSMW_sfc_dewp_069.txt.gz
Dewpoint
40 43 44 43 56 60 63 64 64 63 63 63 63 63 62 62 62 62 62 63 63 62 62 62 62 62 61 60 60 61 60 60 61 61 59 60 60 61 61 60 60 58 56
39 42 41 40 45 59 62 63 64 63 64 64 64 64 64 64 63 63 63 63 63 63 63 63 63 63 62 62 62 62 62 62 62 60 59 56 56 57 57 57 57 54 53
38 42 41 40 40 47 61 63 63 64 64 64 64 64 64 64 64 64 64 64 64 65 65 65 65 65 65 64 64 64 63 61 61 61 58 55 53 54 54 54 54 53 52
39 41 42 41 40 39 45 59 63 64 64 65 64 63 62 62 63 63 64 57 58 54 53 55 59 63 64 62 61 61 60 59 59 58 60 59 57 55 52 53 54 53 50
38 41 42 42 42 42 43 43 55 62 64 64 64 63 62 62 59 57 55 54 51 51 52 52 53 53 54 54 56 56 56 57 56 55 54 54 55 55 53 50 52 53 53
38 39 42 42 41 44 45 45 45 50 57 60 61 62 61 57 50 49 48 49 51 52 52 52 52 52 53 54 54 55 55 55 55 54 53 52 52 52 52 52 51 51 53
38 38 41 40 42 45 46 47 45 45 48 52 56 57 58 51 51 50 48 48 48 51 51 51 51 51 51 51 51 52 52 53 54 53 53 54 54 54 53 52 51 52 53
27 30 37 41 42 45 47 47 46 45 46 46 47 47 48 48 49 48 47 47 48 50 50 49 49 48 48 48 49 50 51 52 53 52 53 54 54 56 55 54 51 49 50
31 30 31 33 38 45 47 47 46 45 46 46 46 46 46 46 47 47 48 48 48 46 46 46 46 46 46 47 47 48 50 50 51 52 50 52 52 51 53 54 54 53 48
34 35 35 34 35 40 47 47 46 45 45 45 45 45 46 46 47 48 48 47 45 44 44 44 44 44 44 45 46 47 48 48 49 49 50 50 50 50 50 51 51 52 51
35 36 37 37 38 43 46 46 45 44 44 45 45 46 46 47 47 47 46 45 44 43 43 43 42 42 42 43 43 45 46 46 46 46 47 47 48 48 47 47 47 47 47
35 37 38 39 41 42 43 44 43 44 44 44 45 45 45 45 45 45 44 43 42 42 41 41 41 41 41 41 41 43 43 45 46 45 46 44 45 44 44 44 43 41 40
32 37 39 39 40 41 43 43 43 43 43 43 43 43 43 43 43 43 42 42 41 41 40 40 39 39 40 40 40 41 41 40 40 40 40 41 41 40 39 40 41 41 40
32 32 38 40 40 41 42 42 42 42 41 41 41 41 42 41 41 41 41 41 41 40 40 39 39 38 38 39 39 40 39 39 39 38 38 38 38 38 39 40 40 40 39
33 34 34 36 40 41 42 42 41 41 41 41 41 40 40 40 40 40 40 40 39 39 39 39 39 39 38 38 39 40 40 39 39 39 38 38 39 40 39 38 38 38 37
33 33 34 34 37 41 42 42 41 41 40 40 40 40 40 40 39 39 39 39 38 38 38 38 38 38 37 39 40 40 39 38 37 36 35 36 36 37 37 36 36 35 35
34 34 35 35 35 37 42 42 42 41 40 40 40 40 39 39 39 39 38 37 36 36 36 37 38 38 39 40 40 40 38 37 35 33 31 30 32 30 28 31 31 30 33
35 36 36 37 37 37 42 43 42 41 40 40 40 40 39 39 39 38 37 38 35 35 35 37 38 37 38 40 39 39 35 34 33 32 28 27 27 27 27 26 27 28 28
36 37 37 38 38 38 38 43 42 41 40 40 40 40 39 38 38 37 37 37 35 35 37 38 37 36 37 37 37 34 31 28 27 29 30 31 28 28 27 25 24 23 27
30 34 38 38 38 39 40 42 42 41 40 40 39 39 39 38 37 36 37 36 36 36 36 34 35 37 35 36 33 30 27 25 25 27 27 31 31 32 29 25 20 18 21
30 32 38 37 39 40 41 40 40 39 40 40 40 39 38 37 36 36 37 35 35 35 34 34 34 34 33 32 32 31 25 23 21 21 23 25 30 29 28 29 21 22 23
31 30 36 37 39 39 40 39 39 39 40 39 39 38 37 38 37 37 35 35 35 34 33 33 31 31 31 32 31 30 26 22 18 19 20 23 28 28 28 27 28 24 25
34 33 33 37 38 38 38 38 38 39 39 38 37 37 37 37 37 36 35 34 34 33 32 31 29 28 28 28 32 31 29 27 22 20 22 27 28 27 24 24 26 27 24
33 34 34 36 36 37 38 38 38 38 37 36 35 36 36 36 36 35 35 34 33 32 32 31 29 27 26 25 26 30 32 32 30 26 25 24 27 27 24 21 20 21 22
33 34 35 36 38 37 37 38 38 37 36 35 35 35 36 36 35 35 34 34 34 33 32 32 29 26 24 24 25 26 27 28 31 29 25 24 25 24 23 21 19 19 19
34 35 36 39 39 39 38 37 37 37 36 36 36 36 36 36 34 34 33 36 35 36 36 35 30 27 29 28 29 28 28 30 32 28 23 23 24 24 23 21 19 17 18

GFSMW_sfc_dewp_072.txt.gz
Dewpoint
40 43 46 57 63 63 63 64 64 64 64 64 64 64 63 63 63 62 61 62 62 62 61 62 62 62 62 61 61 60 60 61 61 60 59 59 60 60 60 60 60 60 58
39 41 44 44 58 62 63 63 63 64 64 64 63 63 63 63 62 63 62 63 63 63 62 62 62 62 62 61 61 62 61 61 61 58 57 54 55 56 57 56 57 56 54
40 40 43 42 42 58 62 63 63 64 64 64 64 64 64 64 63 63 63 63 63 64 63 63 63 64 65 63 64 63 63 61 60 60 58 54 52 53 55 54 54 53 52
38 39 41 42 40 47 60 63 64 64 64 64 64 63 63 62 63 63 63 61 62 63 64 64 64 64 64 62 61 61 60 59 57 58 58 57 56 55 52 53 54 53 50
39 40 42 41 40 41 47 58 62 64 64 64 64 63 61 62 61 62 61 58 59 57 56 55 53 54 55 55 55 55 55 56 56 56 54 53 53 54 53 51 51 52 53
39 40 42 42 41 43 44 44 52 59 61 62 63 63 62 61 58 57 57 56 55 56 57 56 55 54 54 53 54 54 53 53 54 54 53 52 51 50 50 50 50 50 51
39 38 40 41 41 43 44 44 44 48 56 59 60 61 62 60 57 56 56 53 53 54 55 53 51 51 52 52 52 51 51 51 52 52 52 52 52 52 52 51 49 49 51
28 34 39 41 41 43 44 45 44 44 46 50 55 55 58 55 54 54 53 53 52 53 53 51 50 49 49 49 49 49 50 50 51 51 51 52 53 53 53 52 52 50 50
33 32 33 33 35 43 44 46 46 45 45 46 46 47 51 51 52 52 50 50 50 49 49 49 48 47 47 46 47 48 48 49 50 51 51 52 50 50 52 53 53 53 48
34 35 35 35 34 35 42 47 46 45 45 45 45 46 46 46 47 47 47 48 46 45 45 45 45 45 45 45 46 46 47 47 48 49 48 47 48 48 50 51 52 52 52
34 35 37 38 39 41 44 45 46 45 45 45 45 46 46 47 47 47 47 46 44 44 44 44 43 43 43 43 43 44 46 46 46 45 45 46 47 48 47 48 48 47 47
34 36 37 38 39 40 42 43 44 44 44 45 46 46 46 46 46 46 46 44 43 42 42 42 41 41 41 41 41 42 45 44 44 45 44 44 45 44 44 45 44 42 42
33 33 37 39 39 40 41 43 42 43 44 44 45 44 44 44 44 44 43 43 42 41 40 40 40 40 40 40 40 40 41 40 40 41 42 41 43 41 41 42 42 41 40
33 34 34 34 38 40 41 42 42 43 43 43 43 43 42 42 42 42 41 41 41 40 40 39 39 39 39 39 39 39 38 38 38 38 38 39 40 40 40 40 40 40 40
33 33 34 34 35 38 41 42 42 42 41 41 42 42 42 41 41 41 40 40 40 40 39 39 38 38 38 38 38 39 39 39 39 39 38 38 39 40 40 39 38 39 38
35 35 35 36 36 36 38 41 42 41 41 41 41 41 40 40 40 39 39 38 38 38 38 37 38 38 38 40 40 40 40 39 38 37 36 37 37 38 38 37 37 36 36
33 35 36 36 37 37 37 39 42 42 41 40 40 40 40 39 39 39 38 37 36 36 36 36 37 37 38 40 41 41 39 38 37 35 34 33 33 31 28 33 32 33 35
30 31 32 35 38 38 38 39 42 42 41 40 40 40 39 39 38 38 37 35 35 35 34 35 36 36 38 41 40 40 36 34 34 33 31 26 26 28 27 27 28 27 28
29 30 30 34 38 38 38 39 41 41 40 40 40 40 39 38 38 37 36 35 35 34 34 35 35 37 37 40 40 37 34 33 33 31 28 27 26 29 28 26 26 25 27
32 32 31 33 37 38 39 40 40 40 40 40 40 40 39 38 37 36 35 35 37 35 36 34 35 37 36 38 38 35 31 29 27 29 29 34 30 31 29 25 21 20 23
33 34 33 32 35 38 39 39 39 39 41 40 40 39 39 38 37 35 35 34 37 36 35 34 34 35 35 35 36 33 26 24 24 25 26 27 33 32 31 27 20 20 23
33 34 34 34 34 37 38 38 38 39 39 40 39 38 37 38 37 35 34 36 36 35 34 34 33 33 33 36 36 32 29 26 21 20 22 25 30 30 29 28 27 26 25
32 33 34 34 34 36 37 37 37 38 38 37 37 36 36 37 36 35 35 35 35 34 33 33 32 31 31 30 34 33 31 27 20 19 22 25 29 29 27 27 29 29 24
33 33 33 33 34 36 37 37 38 38 37 36 35 35 35 35 34 36 36 35 34 34 33 32 31 30 28 28 28 30 30 30 28 25 25 26 28 28 25 24 22 23 23
34 36 35 35 36 38 39 38 38 38 36 35 34 34 35 36 35 35 35 35 35 35 33 33 32 30 28 27 28 28 29 30 31 28 25 24 24 26 25 23 21 19 21
32 33 35 35 35 36 38 39 38 38 37 37 36 36 36 37 35 35 34 37 37 37 38 36 34 31 33 31 32 31 31 33 34 30 25 23 24 24 24 23 21 19 20

GFSMW_sfc_dewp_075.txt.gz
Dewpoint
41 47 50 61 62 63 63 64 65 65 65 65 65 65 64 63 63 63 63 63 63 62 61 61 61 61 60 60 61 61 60 60 61 61 59 58 59 59 59 59 59 59 59
39 40 42 47 60 62 63 63 64 64 65 64 64 63 63 63 62 62 62 62 63 62 61 61 61 62 62 61 61 61 61 61 61 59 56 54 54 56 55 55 56 56 54
40 40 40 43 45 59 61 63 63 64 64 64 64 63 63 63 62 62 62 62 63 63 62 62 62 62 63 62 62 63 62 60 59 61 58 54 51 53 55 54 54 53 52
41 41 40 42 43 45 60 62 63 64 64 64 63 63 62 61 62 62 63 63 63 63 63 63 64 64 64 63 63 62 62 60 57 56 57 56 57 55 51 53 53 53 50
40 40 39 41 43 42 52 61 62 63 63 63 63 62 61 62 62 62 62 61 61 61 61 61 60 60 60 59 59 59 58 57 56 55 53 52 51 53 54 50 50 52 53
39 40 41 42 41 41 45 51 57 60 62 63 62 62 62 60 60 60 60 59 58 59 59 58 57 56 56 56 56 55 53 52 52 53 52 52 50 48 48 49 48 49 50
39 39 39 41 42 42 42 44 47 54 58 60 61 62 62 61 60 59 59 57 56 56 56 56 55 53 52 53 53 52 51 51 51 51 52 52 51 51 50 49 48 48 49
33 36 36 41 41 42 44 44 43 43 47 54 57 58 60 60 59 58 58 57 56 55 54 53 51 50 50 50 49 49 49 49 49 49 50 51 51 51 52 52 49 49 49
32 32 33 33 34 36 42 44 45 44 44 45 48 52 55 56 54 54 55 52 52 53 52 50 48 48 47 47 47 47 47 47 48 49 49 50 50 50 51 51 52 51 47
34 35 36 36 37 37 42 44 47 46 45 45 45 46 47 50 52 51 50 49 49 50 49 47 46 46 45 45 45 45 46 48 48 48 47 46 47 47 49 49 51 52 51
34 36 37 38 39 39 41 44 45 45 45 45 45 45 46 47 47 47 47 46 45 45 45 45 44 44 43 43 43 43 44 45 45 45 45 45 46 46 46 47 48 48 47
33 35 38 39 39 39 40 42 43 44 44 44 45 46 46 46 47 47 46 45 44 44 43 43 42 42 41 41 41 41 43 44 44 44 44 44 45 44 43 45 44 44 43
33 33 34 34 35 37 40 41 42 43 43 43 44 44 44 44 45 45 44 43 42 42 41 41 41 40 40 40 40 40 41 40 40 40 42 41 42 42 42 42 42 42 41
34 34 35 35 35 36 38 41 42 42 42 43 43 43 43 43 43 43 42 42 41 40 40 40 39 39 39 38 38 38 38 37 37 37 37 39 40 40 40 41 41 40 40
35 35 35 36 36 36 37 38 41 42 42 42 42 42 42 41 41 41 41 40 40 40 39 38 38 38 38 38 37 38 37 38 39 39 38 39 40 40 40 39 39 39 39
32 32 33 34 36 37 37 37 38 41 42 41 42 42 41 41 40 40 39 39 38 38 38 37 37 37 38 40 41 40 40 40 39 38 38 38 39 39 39 38 37 37 37
29 29 30 31 33 36 38 38 39 40 41 41 41 41 40 40 39 39 38 37 36 36 36 36 36 36 36 39 41 41 40 39 38 37 35 34 35 32 31 33 34 35 36
29 30 30 30 31 35 38 39 40 40 41 40 40 40 40 39 38 37 37 35 35 35 34 34 35 35 36 40 41 41 36 35 34 34 33 33 30 27 28 27 27 27 27
31 32 32 32 32 34 37 39 39 40 40 40 40 40 39 38 37 37 36 35 34 34 34 34 34 34 34 39 41 38 34 34 34 32 30 28 25 27 29 26 27 26 28
33 33 34 34 33 34 36 38 38 38 39 40 40 40 39 38 37 36 35 34 34 34 33 34 34 36 35 39 40 38 34 33 32 30 29 31 27 30 29 24 23 24 25
33 34 34 34 34 35 35 36 37 37 39 40 40 39 39 38 37 35 34 34 34 34 35 35 35 35 37 36 39 38 30 30 28 27 26 27 34 33 31 28 22 21 23
32 33 33 33 34 35 35 35 36 38 38 38 38 38 37 38 36 35 35 33 34 35 35 35 35 35 35 38 37 37 32 28 23 23 24 26 31 33 32 30 27 25 25
32 33 34 33 33 34 35 36 37 37 37 37 37 36 35 36 35 34 34 33 34 35 34 34 33 33 33 33 38 38 35 31 24 20 22 26 28 31 30 30 31 29 24
31 32 34 33 34 36 36 36 38 37 37 36 35 34 34 34 34 33 34 35 35 34 34 33 33 33 31 31 31 32 32 32 28 26 24 26 27 30 27 26 25 26 25
31 32 31 32 33 34 35 35 36 38 38 36 34 34 34 35 34 34 35 36 36 36 34 34 34 33 31 30 32 31 29 29 28 26 23 24 25 26 26 24 21 20 22
29 29 30 30 30 31 33 35 36 37 38 37 37 36 36 37 36 35 35 38 37 38 38 37 35 34 35 35 35 34 32 34 33 29 24 23 24 24 25 24 23 21 22

GFSMW_sfc_dewp_078.txt.gz
Dewpoint
48 52 57 62 62 63 63 64 63 65 65 65 64 65 65 65 65 65 64 63 63 61 60 61 60 60 60 60 59 59 59 60 61 61 58 56 57 58 58 58 58 58 59
42 46 50 54 61 62 62 63 63 64 64 64 63 63 63 64 64 64 64 64 64 63 62 61 61 61 60 60 61 61 61 61 61 59 56 53 54 55 55 54 55 54 54
42 42 41 46 52 59 61 63 64 63 63 64 64 63 63 63 63 63 63 63 63 63 63 62 62 62 62 62 62 62 61 60 60 60 56 52 50 52 55 53 54 53 52
42 42 41 41 42 45 59 62 63 63 64 64 64 64 62 61 62 62 62 63 63 63 63 63 63 63 64 63 62 62 62 61 59 57 57 57 57 54 50 53 53 53 50
41 40 41 41 41 43 48 59 61 62 63 63 63 63 62 62 62 62 61 60 61 61 61 62 62 62 61 60 60 59 58 58 57 56 54 52 51 53 53 48 48 51 51
41 40 40 42 42 41 45 55 59 59 61 61 61 62 62 61 60 60 60 60 60 60 60 60 61 61 59 58 57 57 56 55 54 53 52 52 49 47 47 49 48 47 49
38 39 39 41 42 42 42 44 49 53 56 59 60 61 61 60 60 59 59 59 58 57 58 58 58 57 54 54 53 53 52 52 52 52 51 51 51 51 49 49 48 47 48
36 35 37 38 40 42 43 44 44 43 43 50 55 58 59 59 59 59 59 59 59 58 57 56 54 52 51 51 50 50 50 49 49 49 49 50 50 50 50 52 50 47 49
32 32 34 34 35 37 40 43 45 45 45 44 45 49 53 56 56 56 57 57 57 56 55 53 50 50 49 48 48 47 47 47 47 47 48 49 50 50 49 50 51 49 45
35 36 37 38 39 40 41 43 45 45 46 45 45 45 46 50 54 53 53 53 52 52 50 49 48 47 47 46 46 45 46 46 47 48 48 47 47 47 47 49 50 50 48
35 37 38 38 38 39 40 41 43 44 45 45 45 45 46 47 49 50 49 48 48 50 48 47 45 45 44 44 44 44 44 44 45 44 44 45 45 45 46 48 47 47 48
33 34 34 35 36 37 38 40 42 43 43 44 44 44 45 46 46 46 46 46 46 45 45 44 43 43 42 42 41 41 41 43 43 43 43 43 45 43 43 43 43 44 44
35 35 36 36 36 36 37 38 40 42 42 43 43 44 44 44 44 45 45 44 43 43 43 42 41 41 41 40 39 39 39 39 39 39 40 41 41 40 41 42 43 42 41
35 34 34 35 36 37 37 38 38 40 41 42 42 42 43 43 43 43 43 42 42 41 40 40 40 39 39 38 38 38 37 37 37 37 37 38 41 41 41 41 41 41 40
30 30 30 31 33 35 37 38 38 39 41 41 41 42 41 41 41 41 41 41 40 40 39 38 38 38 37 38 37 37 37 37 38 39 38 39 40 41 41 40 40 40 39
28 29 30 30 30 32 35 37 38 39 39 40 41 41 41 41 40 40 39 39 38 38 37 37 37 37 38 40 41 40 37 38 40 39 38 40 40 40 40 39 38 38 38
29 30 30 31 31 31 33 36 38 39 39 40 40 41 41 40 39 39 38 37 37 36 36 36 36 36 36 40 41 41 38 37 38 37 36 36 36 33 33 35 35 36 36
31 31 32 32 33 33 34 36 38 39 39 40 40 40 40 39 39 38 37 36 35 35 35 35 35 35 36 40 41 40 37 34 34 35 35 34 32 31 30 27 27 26 28
32 33 33 33 34 33 34 35 36 38 38 39 39 40 40 39 37 37 36 35 34 34 34 34 34 34 34 40 40 39 34 34 34 33 33 32 30 31 31 26 26 26 27
33 33 33 34 34 34 35 35 36 37 37 38 39 40 39 39 38 37 35 34 34 34 33 34 34 35 32 38 40 39 35 34 34 33 30 34 26 27 31 24 24 24 25
32 33 33 33 33 34 35 35 36 36 38 38 39 39 39 39 38 36 34 34 34 33 33 34 35 36 35 34 40 40 34 33 32 31 30 29 34 31 32 29 22 22 25
32 32 33 33 34 35 34 35 35 37 38 37 37 37 37 38 37 35 34 33 34 35 35 36 35 36 36 38 39 40 36 33 29 28 27 26 31 34 34 32 27 25 27
31 31 31 33 32 33 35 34 34 35 38 37 36 36 35 35 35 34 36 34 34 35 35 34 34 34 35 35 39 39 38 34 25 22 24 27 30 33 33 32 32 28 23
30 31 31 30 30 31 32 33 35 35 36 37 37 35 34 34 34 36 36 36 35 35 35 34 34 34 33 33 33 36 37 37 31 28 25 26 27 29 30 29 28 28 25
28 29 29 29 29 29 30 31 32 35 35 37 38 36 35 35 33 32 35 36 37 37 35 35 35 34 33 33 34 34 32 31 30 26 23 24 24 26 26 24 23 21 24
27 27 27 27 28 28 29 30 32 33 34 34 36 38 37 37 36 35 35 38 38 39 39 38 36 35 36 36 36 36 36 35 34 27 23 22 24 25 25 25 24 22 22

GFSMW_sfc_dewp_081.txt.gz
Dewpoint
49 55 57 61 62 62 62 62 63 63 63 64 64 64 64 66 65 66 65 64 63 60 59 59 59 60 59 57 57 57 57 59 61 62 59 59 58 58 58 58 58 57 58
43 49 53 57 61 61 62 61 62 61 63 63 64 63 63 65 65 66 65 65 64 64 63 62 61 61 61 60 60 60 61 61 62 60 59 55 55 56 56 56 55 55 56
43 43 44 54 57 61 61 61 61 62 62 63 64 64 63 64 63 64 65 64 65 65 64 64 64 63 63 62 62 63 62 61 61 61 59 54 52 54 56 56 55 55 54
43 44 45 43 50 55 61 62 62 63 64 64 63 63 61 60 62 64 64 64 64 64 64 64 63 63 63 63 63 64 63 62 61 60 60 60 59 54 52 54 54 54 53
44 42 43 46 46 47 50 59 62 62 63 63 63 62 61 59 62 63 63 62 62 63 63 64 63 62 62 61 61 61 61 61 60 60 58 58 57 56 54 48 50 53 53
44 41 44 46 45 46 47 54 59 61 62 62 63 62 61 60 61 62 62 61 61 61 62 63 62 61 61 60 60 58 58 58 58 57 56 55 52 51 52 51 50 50 51
43 40 41 42 43 45 46 46 49 53 58 61 61 62 61 61 61 61 61 60 61 60 61 61 62 61 60 60 58 57 56 55 54 54 53 54 54 54 52 51 50 50 50
42 38 36 36 39 42 43 45 45 45 45 48 54 58 60 61 61 61 61 60 60 60 60 60 59 57 57 56 55 54 53 53 53 52 52 52 52 53 53 51 49 47 49
36 37 38 39 40 41 43 45 45 45 46 46 45 46 52 57 59 59 60 60 59 58 59 59 57 55 53 51 50 50 49 50 50 50 50 50 51 52 53 53 53 49 44
37 38 37 37 38 40 41 42 44 45 46 46 45 46 46 48 54 56 56 56 56 56 55 52 50 49 48 48 48 47 47 47 49 49 50 50 51 51 51 51 51 51 48
34 34 35 36 37 38 39 40 42 43 44 45 45 45 46 47 49 52 52 53 52 52 51 50 48 47 46 46 46 46 46 46 47 47 48 48 48 48 49 50 50 50 50
35 36 37 37 37 37 38 38 39 41 43 43 44 45 46 47 47 48 49 48 49 50 50 48 46 45 44 43 43 43 43 44 45 45 45 45 45 47 47 48 47 46 47
34 33 34 35 35 37 38 38 38 39 40 43 43 44 45 46 46 46 46 46 46 46 45 44 43 42 42 41 41 41 41 41 41 41 42 44 44 44 44 44 45 45 43
30 30 30 30 31 32 34 37 38 39 40 41 42 43 44 44 45 45 44 44 43 43 42 42 41 41 40 40 40 40 39 39 39 40 40 40 42 42 43 42 43 43 42
28 29 30 30 31 32 33 34 36 38 39 40 40 42 43 43 43 43 43 42 42 41 41 40 40 40 39 39 39 39 39 39 39 39 39 40 40 41 41 41 41 41 41
29 30 31 32 32 32 32 34 35 37 39 39 40 41 42 43 43 42 42 41 41 40 40 39 39 39 38 41 41 40 39 39 39 40 39 40 41 41 41 40 40 39 39
31 31 32 32 33 33 33 34 35 37 38 39 39 40 41 42 42 41 41 40 40 39 39 39 39 38 39 42 43 43 40 40 40 40 40 38 37 36 37 38 37 37 35
31 32 32 33 33 34 34 35 36 36 37 38 39 40 41 41 41 40 40 39 39 39 39 38 38 39 38 41 42 42 41 39 37 37 37 37 35 33 33 30 29 28 29
32 33 33 33 34 34 34 35 36 37 37 38 39 39 40 40 40 40 40 39 38 38 38 37 37 38 38 41 42 40 37 37 36 37 36 35 33 34 34 28 27 27 29
32 32 33 33 33 34 34 35 35 36 36 38 39 39 40 40 40 40 39 38 37 37 37 37 37 37 37 40 41 40 37 35 35 34 33 36 32 35 34 26 25 24 25
32 33 33 32 33 34 34 35 35 35 36 38 38 38 39 39 40 39 38 37 37 37 36 36 36 36 36 36 40 42 36 35 34 34 33 31 37 31 31 30 24 23 25
31 32 31 32 33 32 34 33 33 34 35 36 38 38 38 38 39 38 37 37 36 36 35 36 36 37 37 39 39 41 39 37 33 33 33 31 35 35 33 33 28 26 27
30 31 30 31 30 31 31 30 31 32 33 35 36 38 37 36 37 37 37 36 36 36 36 36 36 35 36 36 39 40 42 38 32 31 31 32 32 33 34 35 33 28 26
29 29 30 29 28 29 29 29 30 31 31 33 34 36 37 37 36 36 37 36 36 36 36 35 35 36 35 35 35 38 39 39 34 28 28 28 29 31 33 33 32 28 25
28 28 29 28 28 28 28 28 29 30 29 31 31 33 35 37 36 35 36 37 37 37 36 36 36 35 34 35 36 36 36 36 33 29 25 25 25 26 28 28 27 27 28
28 28 27 27 27 28 28 28 29 29 29 28 28 30 33 35 37 36 36 38 39 39 40 39 37 36 37 37 38 38 38 38 37 27 23 22 24 25 26 26 24 23 25

GFSMW_sfc_dewp_084.txt.gz
Dewpoint
52 58 57 59 60 59 57 57 57 60 65 66 65 64 64 64 64 65 64 63 62 61 62 59 60 60 59 59 58 57 56 57 59 60 59 56 57 57 56 56 55 55 55
49 56 56 58 57 59 60 58 61 63 61 63 64 64 64 65 65 66 66 65 64 63 63 62 61 60 60 61 59 58 58 59 61 59 59 53 53 54 54 55 55 55 55
47 51 54 55 58 60 61 61 61 62 63 64 64 63 64 63 62 63 64 65 65 65 65 65 65 64 64 64 63 61 61 62 62 62 57 53 50 53 53 55 54 54 54
45 47 50 52 56 59 61 61 62 62 62 63 62 61 61 60 62 61 64 64 64 65 65 65 65 64 64 63 63 64 64 63 60 62 61 59 56 52 48 52 53 53 50
48 46 46 50 52 58 61 60 61 62 62 62 63 62 60 61 62 61 63 63 63 64 64 64 64 64 64 63 62 62 61 61 60 59 59 59 59 59 56 44 45 50 50
48 47 45 46 47 48 50 52 57 60 62 62 62 62 61 61 60 60 61 61 63 63 63 64 64 63 62 61 60 60 59 60 59 60 60 59 54 51 52 50 46 47 48
43 42 43 44 45 47 47 48 55 55 60 62 61 62 61 62 60 60 61 62 61 62 62 63 63 62 62 61 60 60 59 59 59 58 57 56 53 52 52 51 48 48 47
43 41 39 41 42 44 45 45 46 45 45 50 57 61 62 62 61 61 62 62 61 62 62 62 62 62 62 60 59 59 59 58 57 56 55 54 54 54 53 50 48 47 47
43 42 40 39 40 42 43 44 44 45 46 46 46 46 53 59 61 62 62 62 62 62 62 62 62 61 59 58 58 56 53 53 53 53 53 51 51 52 53 52 51 49 45
37 39 38 37 38 39 41 42 43 44 45 46 46 46 46 48 53 57 59 60 60 60 60 60 60 58 57 55 54 51 50 50 50 50 50 50 51 51 52 52 52 51 49
36 36 37 37 38 38 38 39 39 41 43 44 45 46 46 47 48 51 54 56 57 57 58 57 55 53 52 50 49 48 48 47 48 48 49 49 49 50 50 51 50 50 50
36 36 35 34 35 36 38 39 39 39 40 42 44 45 46 47 47 48 50 51 53 54 54 53 51 49 48 47 46 46 45 45 46 46 47 47 46 47 48 48 47 48 49
30 29 30 30 30 31 32 35 38 39 40 40 41 43 45 46 46 47 47 48 49 51 51 50 49 47 45 44 44 43 44 44 44 44 44 45 45 46 46 47 47 47 46
29 30 30 30 30 31 32 32 33 35 38 40 40 40 42 45 46 46 46 46 46 47 47 47 45 44 43 43 42 42 42 42 42 42 42 43 44 45 45 45 45 45 45
29 30 31 31 31 32 33 33 34 35 35 37 40 40 41 43 45 45 45 45 45 44 44 44 43 42 42 41 42 41 41 41 41 41 41 42 43 43 44 43 44 43 43
30 31 31 31 31 32 33 34 35 35 36 35 38 40 40 42 44 45 45 44 44 43 43 42 42 42 40 42 43 42 41 40 40 40 40 40 41 42 43 42 41 41 41
31 31 31 31 32 32 33 35 36 37 37 37 38 40 40 41 42 43 44 44 44 43 42 42 41 41 40 43 43 42 41 41 41 42 42 41 40 40 41 40 40 39 38
31 31 31 32 33 33 35 36 36 36 37 38 39 40 40 40 42 43 43 44 44 43 43 42 41 41 41 44 44 43 42 42 40 40 41 41 40 38 38 34 33 33 32
31 31 32 32 33 34 34 34 36 37 37 36 37 39 40 40 41 42 43 44 43 43 43 42 41 42 41 43 44 43 42 40 39 39 40 39 37 37 36 32 30 27 28
31 31 32 31 31 33 31 34 34 34 35 35 36 38 39 40 40 42 43 43 42 43 43 41 43 41 41 42 43 42 39 38 37 37 37 38 37 37 37 31 30 26 24
31 31 31 30 32 30 31 31 31 32 33 35 36 36 38 39 40 41 42 42 41 41 41 40 40 40 40 39 42 42 38 37 36 35 35 35 38 37 38 34 26 24 25
27 28 27 27 30 28 29 28 28 30 31 32 34 36 38 38 39 40 41 41 40 39 38 38 38 38 37 39 40 41 40 38 36 35 35 35 37 36 34 34 29 27 26
25 25 26 26 26 25 27 26 25 27 28 28 30 32 31 34 38 38 38 38 38 38 38 37 37 38 38 38 40 41 42 40 37 36 35 35 37 38 33 34 32 29 26
23 24 25 24 24 23 25 25 26 27 27 27 27 28 30 33 34 37 37 38 37 37 37 36 36 37 36 36 37 39 40 42 39 34 34 35 35 35 33 33 34 28 26
24 25 26 25 23 24 25 25 26 26 26 26 26 27 27 28 31 34 37 37 37 37 37 37 37 36 35 36 37 37 38 39 37 30 28 28 27 26 29 31 31 30 28
22 22 21 22 24 26 26 26 26 26 27 27 27 27 28 28 29 31 33 38 39 40 40 40 38 38 39 39 39 39 39 39 39 29 23 23 24 24 24 27 28 29 30

GFSMW_sfc_dewp_087.txt.gz
Dewpoint
51 57 56 57 59 60 60 59 59 59 60 61 63 63 62 61 62 64 65 65 65 65 64 63 59 60 61 60 58 57 57 57 57 57 57 58 57 56 56 56 55 55 55
50 56 56 57 57 57 59 60 59 60 61 61 62 63 64 65 65 66 65 64 63 63 63 63 61 61 62 61 60 59 58 57 59 60 58 56 56 55 55 54 54 54 55
45 53 54 55 57 56 60 60 60 60 61 62 62 63 62 63 63 64 65 64 64 65 65 64 65 65 64 63 64 63 59 59 62 62 59 54 52 53 54 55 55 53 53
46 51 54 55 56 57 59 61 59 62 62 62 62 61 61 60 62 63 64 65 64 64 65 65 65 65 65 63 63 63 64 63 61 63 62 59 58 53 50 54 52 53 49
49 47 52 55 56 58 58 59 60 61 62 62 62 61 60 61 62 62 61 62 64 64 64 65 65 64 64 63 63 63 62 61 60 59 58 58 58 58 55 49 49 52 51
51 48 49 51 52 53 54 55 57 59 61 61 62 61 61 60 60 61 61 61 62 63 63 64 64 64 63 63 62 60 60 60 60 59 58 57 55 56 55 52 48 48 50
49 47 46 46 49 50 50 51 53 56 58 60 61 61 61 61 59 60 60 59 60 60 61 63 63 63 63 62 61 60 60 59 58 58 58 58 58 56 53 51 50 48 49
44 44 43 44 47 48 47 47 49 47 49 56 59 61 61 62 60 60 60 60 60 60 61 62 62 63 62 62 61 60 59 59 59 59 59 57 56 55 54 52 50 48 48
43 41 41 39 42 44 43 45 45 46 47 47 48 52 59 61 61 61 61 61 61 62 61 62 62 62 62 61 61 59 59 58 58 58 56 54 54 54 54 54 53 49 46
41 42 43 42 38 39 40 42 43 43 45 46 47 47 47 48 54 59 61 61 61 62 62 61 61 62 61 60 59 57 56 55 54 53 52 51 52 52 54 54 53 52 49
39 39 42 43 42 39 39 39 39 40 41 44 45 46 47 47 48 50 53 56 58 59 59 60 61 59 58 58 57 55 53 52 51 51 50 50 51 51 52 52 52 51 51
39 37 33 32 33 33 35 38 39 39 40 40 42 45 46 47 48 47 49 51 53 56 57 57 57 56 55 55 54 52 50 49 48 48 49 49 48 49 49 50 49 49 48
30 30 30 30 30 31 31 32 33 34 37 40 40 41 43 45 46 47 47 48 50 52 54 54 53 52 51 50 49 47 47 47 47 47 47 47 47 47 48 48 48 48 47
30 30 30 30 31 32 32 33 33 34 34 35 39 40 41 41 45 46 46 46 47 49 50 51 51 49 47 47 45 45 45 46 45 45 45 45 45 46 46 47 47 47 47
30 31 31 31 31 32 32 33 34 35 35 35 36 38 40 41 42 45 46 46 46 46 47 47 46 45 44 43 44 44 44 43 43 43 43 44 44 44 45 46 45 45 45
31 31 31 31 31 31 32 34 35 35 36 36 36 38 39 40 42 42 45 46 45 45 45 45 44 44 42 44 45 44 42 42 42 41 42 42 42 42 42 42 42 43 43
31 31 31 31 32 32 33 34 35 36 36 36 37 38 39 40 41 42 42 44 45 46 45 44 43 43 42 44 45 44 43 43 42 42 42 41 41 42 42 42 41 40 40
31 30 30 31 31 32 34 33 35 35 36 36 36 37 39 40 40 41 43 43 45 46 45 45 44 43 42 44 44 44 43 43 43 42 42 42 40 40 40 39 38 36 35
30 30 31 31 30 32 32 30 33 34 34 35 35 36 37 38 40 41 42 43 44 45 45 45 44 43 43 44 44 43 43 40 39 39 39 40 40 40 40 36 35 33 32
30 30 30 29 28 30 29 30 30 30 31 32 34 35 36 37 38 40 40 42 43 43 45 44 44 44 43 44 45 44 41 39 38 39 39 40 39 39 39 34 32 29 28
28 27 26 24 25 29 26 27 27 27 29 31 31 32 35 36 37 39 40 41 42 43 42 43 42 42 42 42 44 44 40 38 38 37 37 37 39 39 40 36 32 32 28
24 23 23 25 26 27 25 25 24 25 26 27 27 28 30 32 32 36 38 40 41 41 41 41 40 39 40 42 43 44 42 40 37 36 36 36 39 39 39 39 33 28 28
21 21 22 22 22 23 22 23 22 23 24 24 24 25 26 27 30 32 34 36 38 38 39 39 39 38 38 38 42 43 43 41 37 37 37 38 38 39 37 37 35 30 27
19 20 21 21 20 19 19 20 21 23 23 23 24 24 25 26 26 28 32 33 37 37 37 37 37 38 38 38 39 39 42 42 40 39 36 36 37 38 36 34 34 30 27
20 21 20 21 20 19 19 21 22 22 22 23 23 24 25 25 26 27 28 31 32 37 37 37 37 37 36 37 39 39 39 39 40 36 34 34 34 35 34 33 33 31 28
17 17 19 17 18 18 20 21 22 23 23 24 25 26 27 28 28 28 29 31 32 34 38 40 40 38 39 40 40 40 41 40 41 32 30 31 32 31 30 31 32 31 31

GFSMW_sfc_dewp_090.txt.gz
Dewpoint
53 56 57 57 59 60 60 61 60 60 61 60 60 61 61 63 63 64 64 64 65 65 65 64 60 59 61 59 58 57 56 57 56 55 56 57 58 58 57 56 54 53 54
51 54 57 56 56 57 60 60 61 61 61 60 60 62 62 63 63 64 65 65 64 64 64 64 62 59 61 61 60 58 57 57 57 57 57 55 56 56 55 53 53 52 52
47 54 54 54 55 55 56 60 61 61 61 61 62 62 62 63 63 63 63 63 64 64 63 63 63 63 63 62 62 62 62 59 59 59 58 55 52 53 54 53 53 52 51
46 51 54 54 55 56 57 59 60 61 61 62 61 60 59 59 61 62 63 64 64 64 63 63 63 63 63 62 62 62 62 61 61 61 62 59 57 52 51 53 51 51 49
47 48 52 55 55 56 55 58 60 60 61 61 61 61 60 61 61 61 61 60 62 63 63 63 63 63 63 62 62 62 62 62 60 60 58 58 57 57 54 49 48 50 50
47 47 49 53 53 53 53 55 55 58 59 60 61 61 60 60 60 60 60 60 61 62 62 63 63 64 63 62 62 62 61 61 60 59 59 57 55 55 54 53 53 50 48
46 46 46 48 49 50 51 52 53 54 57 58 59 60 60 60 58 57 59 60 60 60 61 61 62 63 62 62 62 60 60 60 59 59 58 58 57 57 56 54 50 48 48
44 45 45 47 48 48 49 49 52 51 51 54 56 59 60 60 60 59 59 60 59 59 59 61 61 62 62 62 61 60 59 59 58 58 58 58 58 58 55 52 50 47 47
42 43 44 44 46 47 46 47 48 48 48 49 50 52 59 59 60 60 59 59 60 60 60 61 61 60 60 61 61 60 59 59 58 58 58 57 55 55 54 53 51 48 44
43 43 44 44 43 43 40 40 41 43 44 45 46 47 48 52 54 58 60 60 60 60 61 60 61 61 60 61 61 60 59 58 57 56 55 53 53 53 53 53 52 51 48
41 42 44 44 40 38 39 39 40 40 40 41 44 45 47 47 48 48 51 55 57 58 60 60 60 60 61 61 60 58 57 56 55 53 53 52 51 51 51 52 51 50 49
40 40 39 38 36 32 32 33 35 37 39 41 40 43 45 46 46 47 48 49 51 54 56 57 59 59 59 59 58 56 55 55 53 52 50 50 50 50 51 50 49 49 49
37 31 30 31 31 32 32 33 34 34 35 37 40 41 41 41 44 46 47 47 48 50 53 54 55 55 55 56 56 55 53 52 50 49 49 49 48 48 47 48 48 47 47
31 31 31 31 32 32 33 34 34 35 36 36 36 39 40 41 41 44 46 46 46 47 49 51 52 51 50 50 50 48 48 47 47 47 47 47 47 46 46 46 46 46 45
31 31 31 31 31 32 33 34 35 36 36 37 37 38 40 40 41 42 44 46 45 45 46 48 47 46 46 45 46 46 46 46 46 47 46 46 46 45 46 46 45 44 45
31 31 31 31 31 32 33 35 35 36 36 36 37 39 40 40 41 41 42 43 45 45 45 45 45 44 43 45 46 45 45 44 44 43 43 43 43 43 44 44 45 44 43
31 31 30 31 31 32 33 34 35 36 36 36 36 37 39 40 40 41 41 42 43 45 44 44 44 43 43 45 46 46 43 43 43 42 42 41 41 41 41 43 42 41 42
30 30 30 31 30 31 33 32 33 35 35 35 36 37 37 38 39 40 41 41 42 43 43 43 43 42 43 45 45 45 41 41 39 38 39 39 38 39 40 39 36 35 36
30 30 30 30 30 29 30 29 32 32 32 33 33 35 36 36 37 38 38 40 41 42 43 44 43 42 41 44 45 43 38 38 38 39 40 39 38 41 42 38 34 34 32
30 30 29 29 28 28 27 27 29 29 29 31 32 32 34 35 37 37 38 39 40 41 43 43 43 43 42 44 45 43 40 39 39 39 39 41 40 41 41 35 34 31 30
26 25 25 24 24 27 26 26 27 27 29 29 30 30 31 32 34 35 36 38 39 41 41 42 42 42 43 42 45 45 41 39 38 38 37 39 41 41 40 38 33 31 30
24 23 23 24 25 26 26 25 25 26 25 26 27 27 27 28 28 30 33 34 36 37 40 40 41 41 41 43 44 45 43 41 37 37 37 37 41 40 40 39 35 35 32
20 20 21 22 22 22 22 22 22 22 23 24 24 24 25 26 26 26 28 32 32 32 34 37 38 39 39 39 43 44 45 42 38 37 37 38 40 40 39 41 38 33 28
20 21 21 21 20 20 19 19 20 22 22 22 23 24 24 25 25 26 28 30 30 31 31 34 35 37 38 38 38 41 43 44 41 39 38 38 38 39 38 39 39 30 27
21 21 20 20 21 19 18 18 20 21 22 22 23 23 25 25 26 27 27 28 29 30 29 29 34 36 36 37 39 39 40 41 41 38 35 35 35 35 35 34 34 30 28
20 20 20 19 19 19 19 19 20 21 23 23 24 26 27 27 27 28 28 30 30 31 31 31 32 33 39 40 41 41 41 42 42 36 35 34 34 34 35 33 32 31 29

GFSMW_sfc_dewp_093.txt.gz
Dewpoint
27 54 56 57 58 58 59 59 59 61 61 61 60 61 61 62 62 64 63 62 62 60 60 61 60 60 60 58 57 57 56 57 57 55 55 55 57 57 58 57 55 54 54
50 54 54 54 56 57 58 59 60 60 61 61 61 61 60 61 61 62 62 63 61 63 64 62 61 59 61 59 58 57 57 57 57 55 56 54 55 56 56 56 53 53 53
50 52 54 53 53 54 56 59 60 60 61 61 61 61 61 60 59 60 61 63 64 63 63 64 63 62 62 61 61 61 59 57 58 58 58 55 53 54 54 53 53 51 51
48 51 52 54 54 53 55 58 59 61 61 61 60 60 59 58 60 62 62 62 61 63 63 63 63 63 63 62 62 62 61 61 59 61 62 60 58 54 51 54 53 51 49
46 48 50 55 56 55 54 57 59 59 61 61 61 60 59 60 61 61 61 61 61 62 63 63 63 62 62 62 62 61 61 61 60 59 59 58 57 57 54 51 49 50 50
46 46 49 50 52 53 52 54 55 56 59 59 60 60 60 59 59 60 60 60 61 61 61 62 62 62 62 61 61 61 61 61 61 59 58 57 56 55 54 53 53 52 54
45 45 47 48 49 50 49 51 52 54 56 58 59 60 60 60 60 58 59 59 60 60 61 60 60 62 62 61 61 61 60 61 60 59 58 58 57 57 56 55 53 51 49
44 44 46 47 47 47 48 50 51 51 52 53 54 56 60 60 59 58 58 59 60 60 60 61 60 61 62 61 61 60 60 60 60 59 59 58 58 57 57 55 53 49 48
44 44 45 45 45 45 44 45 46 47 49 50 51 52 54 60 59 59 58 58 60 60 60 60 60 60 61 61 61 60 59 59 59 59 58 58 57 57 57 55 52 51 45
43 44 44 44 45 45 44 43 41 41 43 46 48 48 50 54 55 56 58 59 59 60 60 60 60 60 60 60 60 60 59 59 59 58 57 57 57 57 55 54 52 51 47
42 42 42 42 40 38 36 35 36 37 39 41 42 45 46 47 48 48 51 54 57 58 58 60 60 60 60 60 60 59 59 58 58 57 57 56 55 54 53 53 52 51 50
40 41 41 40 35 33 33 34 34 35 35 37 41 41 41 42 44 46 47 47 48 50 53 55 57 59 59 60 60 59 59 58 56 55 55 54 53 52 52 51 50 50 50
39 35 32 32 32 33 34 34 35 35 36 36 37 39 40 41 41 42 45 46 46 47 49 52 53 55 56 57 58 58 57 57 56 55 55 54 52 51 50 50 50 49 48
31 31 31 31 32 33 34 35 35 36 36 37 37 38 39 40 41 42 42 44 46 45 46 48 50 51 52 53 54 54 53 53 53 52 52 52 51 49 48 48 48 46 45
31 31 31 31 31 32 33 35 35 36 36 37 37 39 40 40 41 41 41 42 43 45 45 45 47 47 47 48 48 49 49 49 48 50 50 49 49 47 48 47 47 46 44
31 31 31 31 31 32 33 34 35 35 36 36 36 37 38 39 40 40 41 41 42 43 44 44 44 45 45 45 47 47 47 47 46 46 46 47 46 47 48 48 48 47 44
31 30 30 30 31 31 33 32 32 34 35 35 36 36 37 37 38 39 40 40 41 41 42 43 43 43 43 45 46 46 45 45 45 44 44 43 44 44 45 46 46 46 46
30 30 30 30 30 30 32 30 32 33 31 34 33 34 35 35 36 37 38 38 39 40 41 42 44 44 43 45 45 46 42 42 42 42 42 41 41 40 41 40 38 38 39
30 30 30 30 29 28 29 28 29 30 30 32 31 32 33 33 35 35 36 37 39 39 41 42 42 43 44 44 45 44 39 38 38 38 40 40 40 42 43 38 35 35 34
29 29 28 27 26 25 26 26 26 28 28 30 30 31 31 31 33 33 34 35 36 38 39 41 42 43 43 44 45 44 40 38 39 40 39 41 39 42 43 37 35 33 32
26 26 25 24 24 25 27 27 26 26 27 29 28 29 29 28 30 31 31 33 33 35 35 35 38 41 42 43 44 45 41 40 39 39 39 39 43 42 43 40 35 34 32
24 23 23 23 25 26 27 27 25 26 26 26 26 26 26 26 27 27 29 29 31 32 31 31 33 35 39 43 44 44 45 42 39 38 39 38 41 42 42 41 38 37 34
20 20 21 21 21 21 22 21 21 21 22 22 23 23 24 24 25 25 26 27 30 30 30 30 30 33 35 38 41 43 44 45 41 39 39 39 41 42 41 42 39 38 31
19 21 21 20 20 20 21 20 19 20 21 21 22 23 23 24 25 26 27 27 28 28 29 29 28 28 31 34 38 39 40 42 44 40 39 40 40 41 40 39 39 34 30
20 21 20 19 19 19 18 17 18 19 19 20 21 22 24 24 25 26 27 27 28 29 29 27 27 27 28 31 35 39 39 39 41 39 36 37 37 37 37 36 38 32 29
20 20 20 20 19 19 19 19 19 19 19 19 21 24 26 27 27 27 27 29 30 31 31 31 28 26 29 31 34 36 38 41 40 39 36 35 35 35 35 35 35 33 31

GFSMW_sfc_dewp_096.txt.gz
Dewpoint
26 33 42 54 56 57 58 59 60 60 60 60 60 60 61 61 61 63 63 63 59 60 60 59 57 58 56 56 56 55 54 55 54 55 55 55 55 57 58 58 57 56 57
29 47 53 53 56 56 57 58 59 60 60 60 59 60 61 61 62 62 61 62 62 60 60 59 57 57 58 58 57 57 57 56 57 55 55 53 55 57 57 57 55 54 54
33 49 52 52 53 55 56 57 58 59 59 60 59 59 60 61 60 61 62 62 62 62 61 60 60 60 60 59 59 58 57 56 58 57 57 54 53 55 55 55 54 53 53
45 49 51 52 52 52 55 57 58 59 59 59 59 59 58 58 59 59 61 62 62 62 62 62 62 61 61 61 60 60 59 59 58 59 60 58 56 52 51 54 53 52 51
47 50 52 52 55 55 54 56 56 58 60 61 61 60 59 59 60 61 61 61 62 62 62 63 63 61 61 61 61 61 60 60 59 59 59 58 58 57 54 52 52 53 51
47 48 49 50 51 53 53 54 55 55 57 59 60 60 59 59 59 60 59 60 61 61 62 62 62 62 62 61 61 60 60 60 59 60 59 58 57 56 54 53 53 53 55
45 47 47 48 49 50 51 52 52 52 54 55 57 58 59 59 59 59 59 59 59 59 60 61 61 61 61 61 61 60 60 61 60 60 60 58 57 56 56 55 53 52 53
44 45 45 45 46 46 49 50 50 50 51 52 53 54 55 60 59 59 59 59 59 60 60 61 61 60 61 61 61 61 60 61 60 60 59 58 57 56 56 55 53 51 51
43 44 45 45 45 45 45 43 45 46 48 50 51 51 53 56 58 59 58 58 59 60 60 60 60 60 60 61 61 60 60 59 60 60 59 58 58 57 57 56 55 53 48
43 43 43 43 43 42 42 42 41 41 44 46 48 50 50 51 53 55 56 58 59 59 59 59 60 60 60 60 60 60 59 59 59 59 58 58 58 57 57 55 54 53 50
42 42 42 42 42 41 42 39 39 38 37 42 42 43 45 47 49 49 49 50 52 54 56 58 59 59 59 59 60 59 59 58 58 58 57 57 57 57 56 55 53 51 49
40 41 41 40 41 40 39 36 36 36 36 37 39 40 40 41 41 42 44 46 46 47 49 52 54 57 59 59 59 59 59 58 58 58 57 56 55 56 55 54 53 52 50
39 38 37 34 33 34 34 35 36 36 37 37 38 39 40 40 40 41 42 43 45 46 46 48 50 52 53 56 58 59 59 58 58 58 56 56 55 55 54 53 52 51 49
31 31 31 31 32 33 34 35 35 36 36 37 38 39 39 40 40 40 41 41 43 44 45 45 47 48 49 51 52 55 55 56 56 56 56 56 55 55 53 52 51 49 48
30 31 31 31 31 32 34 34 34 35 36 36 37 37 38 38 39 39 40 41 42 42 43 44 45 45 46 46 47 49 51 52 52 51 52 53 52 50 52 51 49 48 47
31 31 30 31 31 31 33 32 32 34 35 35 35 35 35 36 36 37 39 39 40 40 41 41 42 43 44 46 47 46 47 48 49 49 49 50 48 49 50 50 48 48 47
30 30 30 30 30 30 33 30 31 33 31 33 33 32 33 34 35 36 37 37 37 38 38 39 41 42 43 45 46 46 45 46 46 46 46 46 46 47 47 49 49 48 48
30 30 30 30 30 30 31 29 30 30 30 29 31 31 32 32 32 34 33 34 36 37 38 38 39 41 42 45 46 46 43 42 42 43 44 44 43 43 44 44 43 44 45
30 30 30 29 29 27 29 27 27 27 28 27 30 29 30 30 30 30 31 32 34 34 36 38 38 40 41 43 45 45 42 40 38 39 41 43 42 43 44 41 39 39 38
29 28 27 26 25 24 27 26 26 26 26 26 28 29 29 29 28 29 30 31 32 32 34 36 35 38 38 41 43 44 43 40 40 40 38 42 42 43 44 40 38 37 36
24 26 24 24 24 25 26 26 26 26 27 28 28 28 28 27 27 28 29 28 29 30 30 31 32 33 35 37 41 43 43 42 40 40 40 40 42 43 44 41 38 38 34
23 23 22 23 23 24 23 23 23 24 22 22 24 25 25 25 25 25 26 26 26 28 28 29 29 31 33 35 37 40 41 42 41 40 40 40 42 43 44 43 40 39 36
20 20 20 21 21 21 21 20 20 20 19 20 21 21 21 22 23 24 24 25 26 27 27 28 29 29 28 30 33 36 38 39 40 42 41 41 41 42 43 43 41 40 33
19 20 20 20 19 19 19 20 20 18 18 18 19 19 20 21 23 25 25 26 26 26 27 28 26 26 26 27 29 31 34 38 39 40 41 41 41 41 42 42 41 38 32
20 20 20 20 20 19 18 17 17 18 17 17 18 18 20 20 22 24 26 27 27 28 28 29 29 26 24 25 29 30 30 33 36 39 36 37 37 37 37 37 38 36 33
20 20 20 19 19 19 19 19 19 20 19 19 19 20 20 21 24 26 26 29 30 29 30 30 29 29 30 29 29 30 31 32 35 36 34 35 36 36 36 36 36 35 34

GFSMW_sfc_dewp_099.txt.gz
Dewpoint
29 33 35 39 41 49 56 58 60 59 59 59 60 61 60 60 60 62 63 62 62 61 62 62 62 62 60 59 58 57 54 54 53 54 54 55 55 55 56 57 57 57 58
30 32 38 46 52 54 56 58 59 60 59 59 59 60 60 61 60 61 61 62 63 61 62 61 60 60 59 58 57 56 55 54 55 53 54 53 54 56 56 57 57 56 56
31 32 42 51 54 55 56 57 58 59 59 59 59 59 59 59 60 61 61 61 62 63 61 61 61 59 59 58 58 57 56 55 57 57 56 53 52 54 55 55 56 54 54
36 47 50 51 53 55 57 58 59 59 59 59 60 58 57 57 58 60 61 61 62 63 63 62 61 60 59 59 59 59 58 58 56 57 59 58 56 53 52 53 53 52 52
46 49 51 53 54 53 53 55 56 58 59 60 59 59 58 58 58 58 59 60 61 62 63 63 62 61 60 59 60 59 59 59 57 57 58 57 57 56 54 52 53 54 53
46 48 49 50 52 53 51 54 53 55 56 57 58 59 60 59 59 59 59 59 60 61 61 62 62 61 61 60 59 59 59 59 59 59 58 57 56 56 54 54 53 53 54
46 46 45 46 48 50 51 53 51 50 52 53 54 54 56 58 59 59 59 59 59 60 61 61 61 61 61 60 60 60 60 60 60 59 59 59 58 57 57 56 54 52 53
45 45 45 45 45 45 45 47 48 49 50 51 52 53 54 56 59 59 59 60 59 60 60 61 61 61 61 61 60 60 60 60 60 59 59 59 59 58 57 56 54 51 50
43 42 42 42 41 42 43 42 44 45 46 49 51 51 52 52 53 54 57 58 58 60 60 59 59 60 60 60 60 59 59 60 59 59 60 59 59 59 58 58 57 54 51
41 42 42 42 42 42 42 43 43 42 43 44 45 48 48 49 50 50 50 51 52 55 58 59 59 59 59 60 60 59 60 60 59 59 59 59 59 58 58 57 56 55 54
41 41 42 42 42 42 42 41 41 40 40 41 41 42 44 45 45 45 47 48 49 50 51 54 56 57 59 59 59 59 59 59 58 58 58 58 58 58 57 57 56 54 53
41 41 41 42 41 41 41 41 40 37 37 38 39 39 40 40 41 40 41 42 43 45 46 47 50 52 54 57 59 58 59 58 58 58 57 57 57 57 56 55 54 53 50
40 40 40 39 39 38 38 37 38 38 37 38 38 38 38 39 39 40 40 41 42 43 44 45 46 47 49 50 52 55 57 58 58 58 57 57 57 56 56 55 55 54 51
32 31 31 31 32 33 34 33 34 36 36 37 37 36 36 37 37 39 39 40 41 41 41 43 44 44 45 46 47 49 51 53 55 56 57 57 57 56 55 55 55 53 52
30 31 31 31 31 32 33 31 32 35 34 36 34 34 35 36 36 36 38 38 39 39 40 41 41 42 43 44 45 45 46 47 50 52 53 54 54 52 55 54 54 52 51
31 30 30 30 30 30 32 30 30 33 31 33 32 32 32 32 33 34 35 36 36 37 38 38 39 40 41 44 46 46 45 45 46 48 50 51 49 50 51 51 51 51 50
31 29 30 30 30 29 31 29 29 29 29 28 31 30 30 30 31 32 33 32 33 35 35 37 38 38 40 43 44 45 45 43 43 45 46 47 47 48 49 50 50 49 50
30 30 30 30 29 29 29 28 28 26 27 26 27 29 28 28 29 29 29 30 32 32 34 34 36 37 37 39 42 43 43 43 42 41 42 44 44 44 46 46 45 46 47
30 30 30 29 27 25 27 27 26 26 26 25 26 27 28 28 27 27 27 28 31 30 31 33 34 34 35 38 36 40 41 41 41 41 41 42 43 44 46 43 42 42 41
29 28 27 25 23 23 25 26 26 26 25 26 26 27 28 27 27 27 27 28 28 29 30 31 31 32 32 36 36 37 40 40 41 42 41 42 42 43 45 43 41 40 39
24 25 25 23 23 24 24 22 23 22 25 24 24 25 26 26 26 26 26 26 26 27 27 28 29 29 31 32 34 35 36 39 40 41 41 41 42 43 44 45 41 40 37
22 21 21 21 22 22 21 20 20 22 22 20 20 19 20 20 20 23 24 24 24 25 26 26 27 28 30 32 31 33 34 36 37 38 40 41 42 43 43 44 42 42 39
20 19 20 21 20 19 19 18 19 20 18 18 18 18 18 19 19 20 22 23 25 25 25 27 27 27 28 28 31 30 32 33 33 36 39 40 42 42 43 43 43 41 35
19 20 20 19 19 19 19 18 18 18 18 17 17 18 18 19 20 20 21 23 24 25 26 27 27 27 26 26 27 27 27 29 29 32 34 37 40 42 41 42 43 39 35
19 20 20 19 19 19 18 18 18 19 19 19 19 19 19 19 20 21 22 24 26 27 27 28 28 27 27 27 28 30 29 29 31 31 32 34 36 36 37 37 39 38 35
19 18 19 19 19 19 19 20 20 21 21 21 21 22 22 22 23 23 23 28 30 31 31 30 29 28 30 30 28 29 30 31 32 31 30 32 35 35 36 36 36 36 36

GFSMW_sfc_dewp_102.txt.gz
Dewpoint
29 32 34 37 38 41 44 52 57 58 59 59 59 59 59 58 58 60 61 62 61 62 63 63 61 62 59 58 60 61 60 57 55 54 54 54 55 55 55 56 57 57 57
30 32 35 37 39 39 46 53 58 59 59 59 58 59 59 59 59 60 61 62 62 61 61 62 62 62 61 60 60 59 58 58 56 53 53 51 53 55 55 56 56 57 57
31 33 34 39 46 51 53 55 57 59 59 58 59 58 58 59 59 60 60 60 61 62 62 62 62 62 61 60 60 60 59 56 56 55 54 52 51 52 55 55 56 56 56
36 36 46 48 51 53 55 57 57 58 58 60 59 58 57 57 57 58 59 60 61 61 62 62 62 61 61 61 60 59 59 57 55 56 56 56 55 53 52 54 54 54 54
46 46 50 51 52 53 54 56 58 58 59 59 59 59 58 58 59 58 57 58 59 61 61 62 62 61 61 60 60 59 59 58 57 56 56 56 56 55 53 52 52 53 53
46 46 47 48 50 52 52 52 54 54 54 57 57 56 57 57 58 58 58 59 59 60 61 61 62 62 62 61 60 60 59 58 58 58 57 56 55 55 54 52 52 52 53
45 45 45 45 45 46 49 51 50 50 52 52 53 53 54 55 57 59 59 59 59 59 60 60 60 60 61 61 60 60 59 59 58 58 58 57 57 57 56 55 54 53 54
42 42 42 43 43 44 45 45 46 47 49 51 51 52 52 53 54 54 58 58 58 59 60 60 61 61 61 61 61 60 60 60 60 60 59 59 59 58 57 56 55 53 52
41 41 41 42 42 43 43 43 43 44 44 46 48 48 49 50 50 51 51 52 52 53 55 59 59 60 61 61 60 60 59 59 59 59 59 59 59 59 59 58 58 56 52
41 41 41 41 41 42 42 42 42 42 42 43 43 45 46 47 47 47 47 48 49 50 51 52 54 56 58 59 59 59 59 59 59 59 58 59 59 59 59 58 58 57 56
41 41 42 42 42 42 42 41 40 40 42 41 40 40 41 42 43 42 43 43 45 46 47 48 50 51 53 55 57 59 59 58 58 58 58 58 58 58 58 58 58 57 56
41 41 41 41 40 40 40 40 40 38 38 38 37 37 37 37 39 40 40 41 41 42 42 44 45 46 47 49 51 52 55 58 58 58 58 57 58 58 58 57 56 56 55
40 40 39 38 38 38 37 38 39 39 39 38 36 34 34 35 36 37 38 39 39 39 40 41 41 42 43 45 46 47 48 51 53 56 57 57 57 56 57 56 55 54 52
37 35 32 32 32 34 33 32 34 34 35 35 32 31 32 33 34 34 35 36 37 37 38 38 39 40 41 43 44 45 45 45 47 49 52 54 56 57 56 56 56 55 53
30 31 31 31 30 32 31 30 31 32 31 32 31 30 31 31 31 31 33 33 33 34 36 37 37 38 38 40 43 44 44 44 44 45 47 50 51 49 52 55 55 55 54
30 30 30 30 29 29 31 29 28 29 28 27 29 29 29 29 29 29 30 30 31 32 33 32 34 37 37 39 38 41 42 43 43 43 44 46 47 48 50 51 50 53 53
31 30 29 30 29 29 30 28 27 26 26 25 26 27 28 28 28 28 28 28 29 31 31 31 33 35 36 36 37 37 39 41 42 42 42 43 44 45 46 48 49 50 51
30 30 30 29 29 28 28 27 27 26 25 25 25 25 27 27 27 27 26 26 28 29 29 30 32 33 31 35 35 37 36 39 40 40 40 41 42 43 44 45 45 46 49
30 30 30 28 25 23 25 26 25 25 25 24 24 25 26 26 26 26 26 26 28 27 28 29 30 30 30 33 34 34 34 36 35 36 40 40 41 43 44 44 42 43 44
29 27 26 24 23 23 24 24 23 24 24 24 24 24 25 25 24 24 24 25 27 27 28 28 29 31 29 32 33 32 31 32 34 37 35 40 41 43 44 43 43 41 42
24 25 24 22 22 22 22 21 22 22 23 24 23 22 22 21 22 22 23 23 23 24 24 26 27 27 28 30 33 31 29 31 31 32 36 37 40 41 42 44 43 42 41
21 20 20 21 22 21 20 18 18 20 20 19 19 19 19 19 19 20 22 22 22 23 24 24 25 27 28 31 31 31 31 30 27 28 30 35 37 39 40 42 44 44 42
19 19 20 19 19 19 18 17 18 18 18 18 18 18 18 18 19 19 19 20 21 23 23 25 26 26 27 28 31 30 30 29 27 27 29 32 34 35 37 40 43 44 38
18 19 18 18 17 18 18 18 18 19 19 19 19 19 19 21 20 20 21 21 22 22 24 25 26 26 27 27 26 26 29 32 29 29 29 30 32 34 35 39 41 41 37
20 19 18 18 18 18 19 19 20 20 21 21 21 21 22 22 22 22 22 23 24 25 26 28 29 28 27 27 30 29 28 29 30 30 30 30 27 29 34 36 37 39 36
18 18 19 19 20 20 21 21 21 22 22 22 23 23 23 23 23 23 23 26 28 29 30 30 29 27 29 31 30 30 30 31 30 29 30 29 30 32 32 34 35 36 36

GFSMW_sfc_dewp_105.txt.gz
Dewpoint
35 36 34 37 39 40 40 42 46 53 60 61 61 60 59 60 61 62 61 61 62 62 63 64 63 64 63 62 62 63 61 60 59 59 58 57 57 55 55 55 54 55 56
35 34 36 38 40 40 41 43 46 58 60 61 60 60 60 61 61 61 61 61 62 62 62 63 63 62 63 61 59 60 59 60 58 57 55 53 52 55 56 56 55 55 56
40 40 37 38 42 42 46 46 48 56 59 60 60 60 60 61 60 61 61 61 62 63 62 62 63 63 63 62 60 59 57 56 58 58 56 53 50 52 55 55 55 56 57
44 46 47 47 49 50 53 55 56 58 59 60 60 58 58 57 59 60 61 61 61 61 63 63 62 63 63 62 61 61 60 59 56 57 58 57 57 52 50 55 56 56 56
45 45 47 49 51 52 53 57 59 59 59 60 59 59 57 58 59 59 59 59 60 61 62 63 62 62 63 62 62 61 60 60 59 57 56 56 56 58 56 54 56 55 55
45 45 46 46 47 49 52 53 54 54 55 56 56 56 56 56 58 59 58 59 60 60 60 61 62 62 62 62 61 61 61 60 59 59 57 55 54 55 56 55 55 55 56
42 43 43 44 45 46 47 49 50 51 52 53 53 53 53 54 54 54 58 59 59 59 59 60 60 61 62 61 61 61 61 60 59 58 58 57 57 57 56 56 55 55 56
41 41 42 43 43 44 44 45 46 46 48 49 49 50 49 50 49 50 51 51 52 53 54 55 59 60 60 60 60 60 60 60 60 59 59 58 58 58 57 56 56 54 54
41 41 41 41 42 42 42 42 43 43 44 43 45 46 46 46 45 46 47 48 49 50 51 52 52 54 55 57 60 60 60 60 60 60 59 59 59 59 59 58 58 56 52
40 41 41 41 41 41 41 41 41 41 42 42 41 42 43 44 45 44 43 44 45 45 46 47 49 50 51 51 54 57 59 59 59 60 59 59 59 59 60 59 59 58 56
40 41 41 41 41 41 41 41 40 40 40 39 39 37 38 40 41 42 41 40 41 41 42 43 44 45 46 48 49 50 52 53 57 58 58 58 58 58 59 59 58 57 57
40 40 40 40 39 39 39 39 39 38 38 36 32 33 32 32 34 35 35 36 35 35 36 36 37 39 41 44 45 45 47 48 49 51 55 57 57 58 58 58 57 57 57
39 38 37 35 36 36 35 36 36 36 34 31 30 30 29 29 29 30 30 31 32 32 33 34 35 35 37 41 43 44 44 44 45 47 48 50 52 56 57 57 57 56 56
38 36 32 31 32 33 30 31 31 30 32 31 28 28 28 28 27 28 28 28 31 30 30 31 32 35 36 36 39 39 41 42 43 44 45 47 49 50 51 53 56 56 55
30 31 31 30 30 31 30 28 28 29 28 29 28 28 28 28 28 27 28 27 29 30 29 29 30 32 34 34 36 36 37 39 40 42 43 44 45 45 47 49 50 53 54
31 31 31 30 29 29 30 28 27 26 26 25 26 27 27 27 27 27 27 26 27 29 28 28 29 30 29 34 35 35 35 35 37 39 41 42 43 44 46 47 47 49 49
31 31 30 30 29 28 30 27 27 26 25 24 24 24 25 25 26 26 25 24 25 28 27 27 28 29 30 33 34 34 34 35 35 36 38 39 40 43 43 44 46 47 48
32 30 30 30 29 28 28 27 27 25 25 24 22 23 24 23 24 24 24 24 25 26 26 27 28 29 28 32 33 33 33 34 35 37 36 37 37 40 41 42 43 44 45
31 30 30 28 26 23 25 25 24 24 24 23 22 22 23 23 23 23 24 24 25 25 26 26 27 28 29 33 33 32 33 32 32 32 32 34 35 37 38 39 42 42 43
30 30 27 24 22 23 22 21 22 22 22 23 23 23 23 23 22 23 24 24 24 24 26 25 27 29 29 31 32 31 29 28 29 29 30 33 35 38 38 39 39 40 41
27 25 23 22 22 21 21 20 21 21 22 23 22 21 21 21 21 22 22 23 23 23 24 24 26 26 27 28 32 32 29 28 28 26 26 27 31 33 35 36 37 39 41
23 21 20 21 22 21 20 18 18 19 20 20 20 20 20 20 20 21 22 22 21 21 22 22 23 25 27 30 31 31 30 29 25 25 26 26 30 31 32 32 35 37 41
20 20 20 19 19 19 19 17 17 18 19 19 19 20 20 20 21 21 21 21 21 21 22 23 24 25 27 28 31 31 31 31 27 27 27 29 29 30 30 31 33 35 38
19 19 18 17 17 18 18 18 19 20 20 20 21 21 21 23 22 22 22 22 22 23 23 24 25 26 28 28 28 28 29 31 31 30 31 32 30 28 28 29 33 36 38
20 19 17 17 18 19 19 20 21 21 21 21 22 22 22 23 23 22 23 23 24 25 25 27 27 27 28 28 29 30 28 29 30 32 30 30 29 27 28 31 32 35 36
18 18 19 19 20 20 20 21 22 22 22 22 22 22 22 22 22 22 21 25 26 27 26 27 27 27 30 31 31 31 31 30 30 30 29 26 26 27 27 28 30 32 34

GFSMW_sfc_dewp_108.txt.gz
Dewpoint
40 43 43 39 38 38 38 37 37 38 39 51 58 60 59 62 63 64 63 63 62 62 61 61 62 62 62 62 63 63 63 62 63 61 60 59 59 58 57 55 52 53 54
42 43 46 46 40 39 39 39 39 41 44 53 59 61 61 61 62 63 62 62 61 61 61 61 61 62 63 62 61 61 61 60 62 59 57 54 53 56 56 55 55 54 55
41 43 43 47 49 47 43 41 41 42 45 52 60 61 61 62 61 61 61 61 61 61 62 61 61 62 62 62 62 61 61 58 58 60 56 54 51 49 52 55 55 54 55
42 43 43 47 50 50 51 51 47 49 48 55 59 59 59 59 59 60 61 61 61 61 62 62 61 61 62 62 63 63 61 60 57 59 59 56 56 53 48 49 52 52 52
43 43 45 46 48 49 51 54 52 53 57 57 58 59 59 59 59 59 59 60 60 60 60 61 61 62 62 62 62 62 62 61 58 57 57 57 56 55 54 52 55 56 55
41 42 44 45 46 48 50 53 53 54 56 56 56 56 56 57 56 56 58 58 59 60 60 60 61 61 61 61 62 62 61 61 60 59 58 56 54 53 52 52 52 53 55
41 41 41 42 44 45 46 47 48 49 51 52 52 53 52 52 51 51 52 52 52 53 53 54 57 60 61 61 61 61 61 60 61 60 59 59 57 56 54 53 52 52 54
40 41 41 41 42 43 44 45 45 45 46 47 48 48 48 48 47 47 48 49 49 50 50 51 52 53 55 55 56 59 60 61 61 60 60 59 59 58 56 55 54 53 54
40 40 41 41 41 41 42 42 41 41 41 42 43 45 45 45 44 44 45 46 45 45 46 47 48 49 50 50 52 54 55 59 60 60 60 59 59 58 58 58 57 55 53
40 40 40 41 40 41 41 41 40 39 38 38 37 39 40 42 42 42 41 41 41 41 42 43 43 44 45 47 49 50 50 51 53 56 58 59 59 59 59 59 58 58 55
40 40 40 40 39 39 40 40 40 37 35 34 33 31 34 36 34 34 36 37 37 37 36 37 38 39 41 44 45 46 47 47 48 50 51 51 56 59 59 59 58 58 58
40 40 40 39 39 38 38 38 38 34 33 33 29 32 29 26 27 27 27 28 27 28 27 26 28 28 31 35 39 41 42 44 44 46 47 48 50 51 55 58 57 57 58
38 37 37 35 36 34 34 34 33 32 29 25 24 24 24 24 24 24 23 23 25 24 24 24 25 27 29 30 31 32 34 36 38 41 43 44 47 49 50 50 50 55 56
36 34 32 31 31 31 27 26 25 25 26 26 26 25 26 26 25 24 23 23 23 23 22 23 23 25 26 28 30 31 32 32 35 38 39 41 42 43 44 47 48 50 50
33 31 32 30 29 30 29 26 24 24 24 25 25 26 25 24 24 24 23 22 21 22 23 22 21 22 23 22 31 30 29 30 30 31 33 38 41 43 44 44 45 46 47
31 31 32 31 29 28 29 27 25 24 23 22 21 21 19 19 20 20 20 19 20 20 21 20 21 23 21 29 32 32 28 28 28 28 30 32 36 38 40 42 44 45 45
31 32 32 31 30 27 28 26 25 25 23 21 19 18 18 18 19 18 17 18 19 20 20 20 20 21 22 29 32 33 28 28 29 30 31 30 29 37 34 38 40 41 43
32 32 32 31 30 27 26 27 26 23 22 20 17 18 19 18 19 20 20 20 21 21 22 22 22 23 23 29 32 33 30 30 30 30 29 28 28 30 34 33 34 36 38
32 33 32 30 27 23 24 25 23 22 20 19 19 19 20 20 20 21 22 22 23 23 23 23 23 24 25 29 31 31 29 28 28 26 26 27 27 31 34 32 35 33 34
33 32 31 26 23 23 22 20 19 19 18 19 21 20 21 21 21 21 22 23 23 24 24 24 25 26 26 28 30 31 26 25 24 24 24 28 27 31 32 30 29 30 31
32 30 26 23 22 21 20 19 18 17 20 21 21 21 21 20 20 22 23 24 23 23 24 23 23 22 24 25 30 31 27 25 24 23 23 24 29 30 31 31 28 29 30
27 25 23 23 23 22 19 17 17 18 20 21 21 19 19 19 19 21 21 21 20 19 19 19 20 22 22 27 29 31 30 29 26 24 24 25 29 29 30 29 30 30 30
23 21 21 21 19 19 18 16 16 19 19 19 18 18 19 18 20 19 19 19 20 20 20 20 21 21 22 23 28 29 29 29 29 27 29 31 31 31 30 28 28 29 29
21 20 19 16 15 17 17 18 19 20 19 18 18 19 18 20 19 20 20 21 21 21 21 22 22 22 23 23 24 25 26 28 28 28 30 31 33 30 29 27 28 29 32
20 19 17 16 15 17 18 19 19 20 19 19 19 19 19 20 19 20 20 21 21 22 23 23 23 24 25 25 30 29 29 30 29 31 30 30 29 27 26 26 27 29 31
20 18 18 17 18 19 19 19 21 20 20 19 19 19 20 20 20 20 20 23 24 26 26 26 25 23 27 29 29 31 32 30 30 29 29 30 27 25 25 25 27 28 28

GFSMW_sfc_dewp_111.txt.gz
Dewpoint
40 42 43 44 45 45 39 38 38 37 38 40 41 51 59 62 64 63 60 60 61 60 62 62 61 62 61 61 61 62 62 63 63 63 62 62 62 60 58 58 55 53 51
40 41 43 44 44 46 47 43 39 38 39 42 43 54 58 61 62 63 63 61 61 61 61 61 62 62 63 61 61 62 61 62 63 60 59 56 57 58 58 58 58 55 53
41 42 43 45 46 46 47 48 47 40 40 42 49 56 60 61 61 62 62 62 62 62 62 61 62 62 63 62 62 62 61 60 61 61 58 55 52 52 55 56 56 55 55
41 42 43 44 47 47 49 51 50 48 45 47 47 55 58 59 61 61 61 62 61 61 62 62 62 62 62 62 62 62 62 61 60 61 60 59 57 51 50 51 54 54 52
41 42 42 43 44 47 49 51 53 51 50 50 53 57 57 58 58 60 60 60 60 61 61 62 62 62 62 62 62 62 62 62 61 60 59 59 58 57 54 51 52 56 55
41 41 42 43 43 45 48 49 51 52 54 54 54 55 54 53 54 55 57 56 56 55 54 55 58 61 61 61 61 61 61 61 61 61 59 57 56 55 54 52 51 50 52
40 41 41 41 42 43 45 47 48 48 50 51 51 51 51 52 51 52 52 52 52 51 51 52 54 54 55 55 56 59 60 61 60 60 59 59 57 57 55 54 52 50 50
40 40 40 40 41 41 43 43 44 45 47 48 48 48 48 48 48 47 47 46 47 47 47 48 49 49 50 51 52 55 55 54 59 60 60 60 59 59 58 57 55 53 52
39 40 40 40 40 41 41 40 37 38 38 40 43 44 45 43 42 41 42 43 43 41 43 44 44 44 46 48 49 50 50 51 53 53 53 56 59 60 60 59 58 55 52
40 40 40 40 40 40 40 41 38 33 33 31 30 32 34 36 37 36 36 37 38 38 38 38 39 40 41 44 46 47 47 48 49 49 49 50 51 53 55 58 58 58 56
40 40 40 40 39 39 39 38 37 35 32 30 30 27 30 32 31 30 30 31 33 32 32 32 33 33 35 37 39 39 41 42 44 45 46 47 48 49 51 52 54 57 57
40 40 39 39 38 38 38 36 35 34 31 31 28 28 27 26 24 23 23 22 23 23 23 23 24 25 27 31 33 34 34 36 37 38 41 43 45 47 48 48 48 49 50
39 39 39 37 36 34 33 33 30 29 27 24 23 24 24 25 24 24 24 23 21 21 20 20 20 21 23 24 26 28 29 31 32 34 37 39 41 42 42 44 46 48 49
36 35 34 31 30 30 27 24 23 23 24 24 24 24 23 23 24 24 22 19 17 18 19 19 19 19 19 20 25 26 27 27 29 31 32 33 37 37 40 41 43 44 44
35 35 33 32 30 28 28 25 23 23 22 22 22 22 21 20 19 19 18 18 18 18 18 18 18 19 20 17 28 28 26 26 26 28 26 30 35 38 40 38 40 41 41
35 32 32 32 31 29 28 27 24 23 22 20 19 19 17 17 18 18 16 17 18 18 18 19 19 20 17 28 29 30 29 26 26 27 29 30 33 33 35 38 39 39 38
34 32 32 32 32 29 27 26 25 23 21 20 18 17 16 17 18 18 17 18 19 20 20 21 21 21 21 27 29 32 29 28 29 30 30 29 25 33 29 33 35 36 37
34 32 32 33 32 29 26 27 27 22 21 20 18 17 18 18 19 20 20 20 20 20 21 23 22 23 23 27 29 31 30 29 30 30 29 28 27 29 31 31 31 31 31
33 32 33 33 32 27 25 25 24 22 21 19 18 19 19 20 20 20 21 21 22 23 24 23 24 25 25 28 29 30 30 29 27 25 25 25 25 28 31 29 30 28 29
33 33 33 31 28 24 23 21 20 20 18 19 20 20 20 20 20 21 22 23 23 24 25 24 26 25 25 26 28 29 27 25 23 23 23 28 26 28 30 28 25 25 25
33 33 32 28 25 23 21 21 20 18 20 20 20 21 20 19 19 21 23 24 24 24 24 23 22 21 22 22 27 29 27 26 26 24 24 23 27 29 30 30 28 28 28
32 31 28 26 24 23 21 20 17 18 18 20 20 18 18 18 17 20 21 21 19 18 19 19 19 21 21 25 26 28 29 29 26 25 25 26 30 31 31 31 31 30 29
29 27 25 24 22 21 18 15 14 17 18 18 17 17 17 18 18 18 18 19 19 20 20 20 21 21 22 23 27 28 28 29 27 27 29 31 30 30 30 31 30 28 27
27 23 22 21 19 17 16 15 17 19 18 17 17 17 18 18 19 19 19 20 20 21 20 20 22 23 23 23 24 26 27 29 29 30 30 30 31 30 29 29 27 27 28
25 23 21 19 16 16 16 17 18 17 17 17 17 18 18 18 18 19 19 20 21 21 22 24 24 24 23 23 26 26 26 27 30 30 29 29 28 28 29 27 27 27 27
23 22 20 18 17 17 18 17 17 19 18 18 18 18 19 19 19 20 20 24 24 26 26 26 25 23 26 26 27 29 29 30 29 26 26 27 27 27 26 25 25 26 26

GFSMW_sfc_dewp_114.txt.gz
Dewpoint
40 43 44 45 45 45 46 46 47 43 41 41 41 40 43 58 60 62 62 61 62 62 62 62 62 60 61 60 62 62 61 62 63 61 61 62 62 62 61 58 56 54 51
41 42 43 43 44 46 47 47 48 49 47 42 43 44 51 57 58 60 62 62 61 62 62 62 61 61 62 61 61 61 61 61 62 59 59 56 58 61 61 60 58 57 56
40 41 42 42 44 44 46 47 49 51 52 43 45 47 52 56 57 58 60 61 61 62 62 61 61 61 61 61 61 61 61 60 60 61 58 55 53 54 58 58 58 57 57
40 40 42 42 43 44 45 48 49 53 53 49 46 46 50 52 54 56 59 61 61 61 62 62 61 61 60 60 60 62 61 60 59 61 61 59 58 52 50 52 56 57 56
40 40 42 43 43 44 46 48 49 50 51 53 51 51 51 52 54 53 56 58 58 58 59 59 61 61 60 59 59 61 60 61 59 59 58 59 59 57 55 53 51 53 54
40 41 42 42 42 43 44 46 46 47 50 51 51 51 52 52 52 51 52 54 53 53 54 56 56 56 56 56 58 59 59 59 60 60 59 58 56 56 56 55 54 53 53
40 41 41 41 41 41 43 43 42 43 47 48 47 48 47 48 48 49 47 48 48 48 49 50 50 51 51 52 53 55 55 54 56 58 59 59 59 58 57 55 54 53 53
40 41 41 41 41 41 41 40 39 37 41 45 46 46 45 45 44 44 44 44 45 45 45 44 45 46 47 49 50 52 50 51 52 52 52 53 56 58 59 57 55 53 54
40 40 41 41 40 41 41 39 37 33 33 31 36 37 41 41 40 39 40 40 39 38 39 39 40 41 44 45 47 48 47 49 49 50 49 50 51 51 52 53 54 56 52
40 40 40 40 40 40 40 40 37 36 33 31 28 29 32 32 34 34 34 34 34 34 34 34 36 36 38 41 43 43 44 43 46 47 46 47 48 49 51 51 50 50 50
40 40 40 40 40 39 39 38 37 35 34 31 30 27 28 30 28 26 27 29 30 29 29 30 32 32 34 37 38 38 38 38 39 41 42 42 45 46 48 46 47 48 48
40 41 41 40 39 37 38 36 35 34 32 31 27 28 27 26 25 24 24 23 21 22 20 21 22 23 26 29 31 31 33 35 36 36 38 38 40 43 42 43 45 45 47
40 40 40 39 37 37 34 34 30 29 27 26 25 24 24 24 24 24 22 19 19 19 20 20 20 21 22 21 26 27 28 29 30 32 34 35 37 38 37 41 40 43 43
39 38 37 36 33 31 27 25 23 23 24 24 24 23 22 21 20 19 19 19 19 19 19 20 20 22 22 22 27 29 29 28 28 30 32 31 33 34 35 38 39 39 39
36 36 36 34 30 29 29 25 24 23 22 22 22 21 19 19 19 19 19 19 20 19 20 20 21 22 21 19 27 29 29 29 27 28 29 31 34 37 34 32 37 38 37
35 35 35 33 32 29 28 26 25 23 23 21 20 20 18 18 20 19 19 20 20 20 21 21 22 22 20 28 29 29 29 29 28 29 30 31 33 32 31 33 35 34 33
35 35 33 32 32 30 28 27 26 24 22 21 20 19 19 20 21 20 21 21 20 21 22 22 23 23 23 28 30 30 30 30 30 30 31 30 26 32 31 32 32 32 32
35 35 32 33 33 29 28 28 27 23 22 21 20 20 21 21 22 22 22 21 22 22 23 24 24 24 24 29 29 30 30 30 30 30 30 29 28 28 28 29 29 30 30
34 34 33 34 32 28 27 27 27 24 23 21 20 21 21 22 22 22 22 22 23 24 24 24 25 25 26 29 29 28 30 30 28 26 25 26 26 28 29 28 29 27 26
33 33 33 32 29 25 25 24 23 22 21 21 22 22 23 23 22 22 22 24 24 24 26 25 26 27 25 28 27 27 29 28 27 26 25 29 26 28 29 28 27 27 27
33 33 32 29 27 23 22 22 21 20 22 21 22 22 22 20 20 21 22 24 25 25 25 25 23 21 22 22 27 28 26 26 26 26 26 25 29 29 30 31 29 30 30
33 33 30 27 24 24 22 22 20 20 19 20 21 20 18 18 18 18 20 20 19 19 20 20 21 22 22 26 26 28 29 28 26 26 26 27 31 31 31 30 31 31 30
32 30 28 25 23 23 20 18 16 17 18 18 17 17 17 18 18 19 19 19 20 21 21 21 21 22 23 23 27 27 28 28 26 26 28 31 33 33 31 31 30 30 26
30 27 25 23 21 19 16 15 18 19 18 17 17 17 18 19 19 19 20 20 20 20 20 21 22 23 23 23 24 23 25 27 27 28 28 32 31 30 29 29 29 28 27
28 25 23 22 19 17 16 17 18 17 17 17 17 17 19 18 19 19 19 20 21 22 22 24 24 23 23 24 27 26 24 25 26 27 27 27 26 26 27 28 28 27 26
25 24 23 20 18 17 17 18 18 18 18 18 18 19 20 20 20 20 21 24 25 26 26 26 25 24 26 27 27 28 28 27 27 25 25 26 26 25 25 26 25 25 26

GFSMW_sfc_dewp_117.txt.gz
Dewpoint
41 43 43 44 44 45 46 46 47 48 49 50 48 41 40 45 50 58 60 61 61 61 61 61 61 61 60 60 60 60 59 59 62 61 61 62 63 62 61 58 56 54 53
40 42 43 43 43 44 44 45 47 49 51 52 52 45 44 49 55 57 58 58 59 61 61 61 61 60 58 59 59 61 61 61 62 59 59 56 58 61 61 61 60 58 57
40 40 41 42 43 42 43 45 47 49 50 51 52 49 48 51 53 54 55 55 57 58 60 61 61 60 60 60 60 60 60 58 59 61 58 55 54 56 59 60 60 60 59
40 40 41 42 42 42 43 44 46 48 48 50 51 49 46 48 51 52 54 56 56 56 56 59 61 61 61 59 59 60 59 58 57 58 60 60 56 53 52 55 58 59 58
40 41 41 42 42 42 43 44 45 46 48 49 49 50 50 51 51 51 52 53 52 52 51 53 59 61 61 60 59 59 59 59 59 59 56 58 59 59 56 54 55 53 56
40 41 41 41 42 42 43 42 42 41 45 48 47 47 48 48 47 48 48 50 49 49 48 49 52 53 55 55 56 57 56 56 59 59 58 58 56 56 56 55 55 54 54
38 41 41 41 41 42 42 40 38 36 37 42 44 45 45 44 43 43 43 44 44 43 43 46 47 49 50 52 53 52 51 52 52 53 53 54 56 56 57 56 55 54 54
38 39 41 40 41 41 41 40 38 34 34 35 38 41 42 41 41 41 41 40 41 41 42 43 44 45 46 47 49 48 49 50 50 49 49 50 51 51 51 52 51 53 54
38 39 39 39 40 39 40 39 37 35 33 32 32 32 33 36 38 38 38 37 37 34 38 37 38 38 39 41 42 44 43 46 48 47 47 47 47 48 49 51 49 48 48
39 39 40 40 40 40 40 40 37 34 33 31 28 28 30 30 30 29 29 30 30 31 31 32 32 33 35 38 38 39 39 39 42 43 42 44 46 46 48 45 46 47 46
38 39 41 40 40 40 39 37 37 34 33 30 29 27 28 29 27 25 25 25 26 26 25 26 27 27 27 32 32 33 33 36 38 38 40 39 40 45 42 42 45 44 45
38 40 40 40 39 38 38 35 33 32 29 30 27 26 26 25 24 22 20 19 19 20 20 20 21 22 24 27 29 30 31 31 31 32 36 36 35 39 38 40 40 41 43
39 40 40 39 38 37 35 34 33 30 26 25 24 23 21 21 19 19 19 19 19 19 19 20 20 22 23 26 28 29 30 30 30 30 31 33 34 33 35 38 38 39 38
39 39 40 40 39 37 35 29 25 23 24 24 23 21 19 18 18 19 19 19 19 19 20 21 22 23 22 24 28 29 29 30 30 31 32 32 32 32 34 34 36 38 38
38 39 39 39 37 35 28 25 24 23 23 22 22 19 18 18 19 19 19 20 21 20 21 22 22 23 22 22 27 28 29 29 29 30 30 31 34 35 31 31 35 34 33
37 38 37 36 32 30 29 26 24 23 23 21 20 19 18 19 20 20 20 21 21 21 22 22 23 23 22 28 30 29 29 30 29 29 30 31 33 31 30 32 32 31 31
36 36 36 35 33 29 29 26 26 24 23 21 20 18 19 20 22 21 22 21 21 22 22 23 24 24 24 29 30 31 29 30 30 30 30 29 27 32 29 30 29 30 29
34 35 35 33 33 31 28 28 27 23 23 21 20 20 21 21 22 22 22 21 22 23 23 24 24 24 24 29 29 30 29 30 30 30 29 27 28 28 29 29 29 29 29
33 35 35 33 32 28 28 28 27 24 23 22 20 21 21 21 22 21 21 22 23 23 23 25 25 25 26 30 29 27 28 29 29 28 26 27 26 29 31 27 28 27 28
33 33 33 32 29 27 27 26 26 24 22 22 22 21 22 21 20 21 20 22 23 23 25 25 25 27 24 27 28 27 26 27 27 27 27 30 28 30 30 28 28 27 28
33 32 31 30 27 25 25 24 23 22 22 22 22 22 21 20 19 19 20 22 22 22 22 22 22 21 23 24 28 28 25 25 26 27 27 27 30 31 31 32 31 30 30
34 32 30 28 25 24 23 23 21 21 21 21 21 20 18 18 18 18 19 19 19 20 20 21 21 22 22 26 27 28 28 27 25 24 25 27 30 30 32 32 32 32 30
33 32 28 24 23 22 22 21 19 18 18 18 17 17 17 17 18 18 19 19 19 20 20 21 21 22 24 24 27 28 28 28 26 25 27 29 29 31 30 30 29 29 27
32 30 26 24 22 22 19 17 17 18 18 17 16 17 17 19 19 19 19 19 20 20 20 20 22 23 23 23 24 25 28 29 27 28 28 30 29 29 28 28 27 28 28
31 28 26 24 22 19 17 16 18 18 17 16 16 17 18 18 19 19 19 20 21 22 22 24 24 24 24 24 27 27 26 26 26 27 27 26 26 25 26 26 27 28 26
28 26 25 24 22 18 17 18 19 18 17 17 18 19 20 20 20 20 20 24 25 26 26 27 25 24 26 27 27 27 26 26 27 25 25 23 25 26 26 26 26 26 26